           , 1.998,  2.145,  2.293,  2.441,  2.589,  2.736,  2.884,  3.032,  3.179,  3.327,  3.475,  3.623,  3.770,  3.918,  4.066,  4.213,  4.361,  4.509,  4.657,  4.804,  4.952,  5.100,  5.248,  5.395,  5.543,  5.691,  5.838,  5.986,  6.134,  6.282,  6.429,  6.577,  6.725,  6.872,  7.020,  7.168,  7.316,  7.463,  7.611,  7.759,  7.907,  8.054,  8.202,  8.350,  8.497,  8.645,  8.793,  8.941,  9.088,  9.236,  9.384,  9.531,  9.679,  9.827,  9.975, 10.122, 10.270, 10.418, 10.565, 10.713, 10.861, 11.009, 11.156, 11.304, 11.452, 11.600, 11.747, 11.895, 12.043, 12.190, 12.338, 12.486, 12.634, 12.781, 12.929, 13.077, 13.224, 13.372, 13.520, 13.668, 13.815, 13.963, 14.111, 14.259, 14.406, 14.554, 14.702, 14.849, 14.997, 15.145, 15.293, 15.440, 15.588, 15.736, 15.883, 16.031, 16.179, 16.327, 16.474, 16.622, 16.770, 16.917, 17.065, 17.213, 17.361, 17.508, 17.656, 17.804, 17.952, 18.099, 18.247, 18.395, 18.542, 18.690, 18.838, 18.986, 19.133, 19.281, 19.429, 19.576
1992/02/19 00:05,   -1.1,   -1.0,   -1.3,   -2.4,   -3.3,   -4.6,   -5.7,   -6.8,   -7.1,   -8.5,   -8.2,   -8.1,   -7.8,   -8.4,   -9.5,   -7.9,   -8.0,   -6.2,   -5.0,   -7.4,   -8.9,   -7.6,   -5.8,   -4.5,   -3.9,   -4.0,   -3.1,   -1.1,    2.5,    4.2,    3.8,    0.7,    0.5,   -0.1,   -1.1,   -1.9,   -2.8,   -3.9,   -5.0,   -4.3,   -0.6,    2.0,    2.7,    4.2,    7.2,    8.7,   10.4,   12.6,   14.6,   15.2,   15.3,   12.2,    8.1,    4.8,    3.9,    2.8,    2.0,    2.5,    3.4,    0.1,    0.4,    1.1,    0.3,   -1.1,   -0.1,   -1.0,    1.8,    4.0,    4.5,    7.5,    7.9,   10.6,   13.5,   15.7,   15.5,  999.0,  999.0,    7.2,   10.6,   11.2,   11.5,    8.4,    8.2,   10.0,   15.0,   19.5,   21.0,   21.6,   22.1,   19.5,   13.3,    8.6,    6.1,    5.9,    3.4,    0.9,    0.8,   -0.7,   -1.1,  999.0,    1.8,    1.1,  999.0,  999.0,  999.0,    2.7,    5.7,    8.8,   11.8,   14.6,   17.1,   20.4,   15.5,   12.2,    8.4,    3.4,    4.6,    6.6,    4.2,    4.4
1992/02/19 00:15,   -1.8,   -1.9,   -1.9,   -1.3,   -1.9,   -3.0,   -4.1,   -6.2,   -6.4,   -6.6,   -6.8,   -7.2,   -6.8,   -7.2,   -7.4,   -6.9,   -7.6,   -3.1,   -3.9,   -5.1,   -5.3,   -5.6,   -5.4,   -4.0,   -3.2,   -3.5,   -1.8,    0.3,    3.4,    6.0,    5.6,    2.0,    0.9,    1.7,    0.9,    0.6,   -0.2,   -1.6,   -2.0,   -1.9,    0.7,    2.8,    4.0,    6.3,    8.7,   10.2,   11.0,   11.9,   13.7,   14.6,   14.4,   11.5,    9.0,    4.2,    3.6,    3.1,    2.2,    1.8,    1.4,   -0.9,   -0.9,    0.7,  999.0,    0.1,    0.0,    0.4,    2.0,    4.3,    7.6,    6.4,   10.6,   12.7,   14.3,   18.1,  999.0,  999.0,  999.0,  999.0,   11.9,   12.3,   12.6,   10.8,    9.3,   11.2,   14.0,   18.3,   21.4,   21.1,   21.4,   18.7,   13.5,   10.4,    8.7,    6.0,    6.0,    3.4,    1.7,    1.0,    0.5,  999.0,    0.4,    1.5,   -1.4,  999.0,  999.0,    1.7,    4.1,    7.6,   10.2,   13.8,   15.4,   19.6,   15.0,   13.5,    7.9,    3.6,    4.8,    7.2,  999.0,    3.0
1992/02/19 00:25,   -3.4,   -2.4,   -2.1,   -3.9,   -3.9,   -3.7,   -5.5,   -5.3,   -5.7,   -6.4,   -7.3,   -7.6,   -8.9,   -9.3,   -8.7,   -8.9,   -9.2,   -5.5,   -4.1,   -5.1,   -5.9,   -5.8,   -5.7,   -4.4,   -3.6,   -3.1,   -1.3,    1.7,    3.9,    7.0,    6.7,    5.2,    2.7,    2.1,    1.4,    0.7,   -0.1,   -1.3,   -1.3,   -0.6,    1.2,    3.2,    5.5,    8.4,    9.3,   10.4,   11.3,   12.7,   13.3,   14.3,   13.0,    8.6,    6.2,    3.3,    1.3,    0.3,    0.9,    0.2,    1.4,   -1.7,   -0.2,    0.2,    0.7,   -1.2,   -0.1,   -0.6,    1.0,    3.4,    4.6,    5.8,    9.1,   13.6,   15.0,   17.8,  999.0,  999.0,  999.0,  999.0,   11.3,   12.0,   14.5,   12.4,    9.4,   11.7,   14.2,   17.1,   20.9,   19.9,   23.6,  999.0,   12.7,   11.9,    8.1,    7.1,    7.9,    4.3,    4.0,    2.5,    0.7,   -0.3,  999.0,    1.1,    0.9,  999.0,  999.0,    0.5,    3.4,    6.2,    9.7,   12.1,   14.2,   17.2,   15.5,   10.2,    8.0,    2.5,    3.6,    5.0,    6.1,    0.6
1992/02/19 00:35,   -7.2,   -7.2,   -7.4,   -7.7,   -7.4,   -6.1,   -5.1,   -5.2,   -5.7,   -6.9,   -7.5,   -8.1,   -7.4,   -7.9,   -7.6,   -8.2,   -9.8,   -7.4,   -5.6,   -7.8,   -8.0,   -8.4,   -6.9,   -4.5,   -2.6,   -0.6,    1.6,    3.5,    6.4,    8.2,    6.9,    6.5,    4.9,    1.3,    1.4,    1.1,   -0.1,   -1.3,   -2.7,   -0.3,    1.9,    4.0,    6.3,    9.3,    9.6,   11.4,   11.4,   13.2,   14.5,   14.9,   12.5,    8.4,    6.3,    4.4,    3.1,    3.5,    2.2,    1.4,    0.5,   -0.9,   -1.2,    1.0,    1.1,   -0.7,    1.4,    1.1,    0.4,    2.5,    5.4,    4.1,    8.5,   12.0,   16.6,   17.4,   20.4,  999.0,   21.2,  999.0,   10.7,   10.7,   11.6,   14.4,   15.9,    9.5,   12.0,   14.4,   18.5,   19.8,   21.3,  999.0,   12.3,   11.6,    8.7,    8.9,    9.4,    4.8,    4.5,    5.8,    1.9,    3.0,    2.1,    2.3,    2.6,    2.2,  999.0,    1.4,    1.6,    4.0,    7.7,    9.4,   14.3,   16.7,   13.3,    7.4,    4.1,   -1.1,    1.3,   -1.9,   -4.5,   -2.3
1992/02/19 00:45,   -7.5,   -8.0,   -6.2,   -4.7,   -2.4,   -3.1,   -4.6,   -5.5,   -7.3,   -8.5,   -7.6,   -7.6,   -6.7,   -7.8,   -6.9,   -7.7,  -10.6,   -8.3,   -8.1,   -5.8,   -7.4,   -6.9,   -5.9,   -5.9,   -2.8,    1.1,    4.2,    5.7,    5.7,    6.4,    6.7,    6.4,    7.0,    5.7,    2.0,    2.3,    1.7,    0.4,   -0.7,    0.5,    3.5,    5.4,    7.5,    8.7,   11.2,   10.9,   11.5,   14.5,   15.5,   15.9,   12.8,    8.2,    6.6,    3.7,    2.9,    3.9,    3.8,    3.4,    1.3,   -1.2,   -0.4,    1.5,    1.7,    2.3,    2.6,    0.9,    1.2,    5.1,    4.8,    5.9,   11.2,   13.7,   17.6,   20.2,   22.2,   20.5,  999.0,  999.0,   13.7,   13.9,   15.1,   15.1,   13.0,   11.0,   12.3,   15.4,   20.4,   20.3,   21.1,   17.2,   14.6,   12.4,    9.6,   10.4,    8.4,    4.9,  999.0,    3.6,    1.6,    3.8,    3.7,    5.1,    4.4,    3.7,  999.0,  999.0,    2.1,    4.6,    6.4,   10.2,   13.6,   17.6,   15.9,    9.6,    4.8,    2.0,    4.2,    4.2,   -0.6,   -1.2
1992/02/19 00:55,   -6.7,   -6.9,   -7.4,   -5.0,   -4.7,   -4.9,   -6.3,   -6.7,   -7.2,   -5.3,   -5.9,   -6.7,   -6.2,   -6.4,   -6.2,   -7.4,   -9.2,   -8.0,   -7.4,   -6.5,   -7.5,   -6.2,   -6.2,   -4.6,   -3.1,    1.2,    3.9,    5.7,    6.4,    6.3,    6.3,    7.3,    7.3,    7.3,    6.0,    6.0,    5.4,    3.9,    2.6,    2.3,    3.6,    6.0,    7.5,    9.4,   10.4,   12.3,   12.6,   14.2,   15.2,   15.7,   13.9,    7.6,    4.8,    3.9,    3.3,    3.3,    3.2,    2.1,    2.0,   -1.3,   -0.3,    1.2,    1.6,    0.9,    1.1,    1.0,    2.2,    4.7,    7.3,    8.9,   10.5,   14.9,   18.5,   21.0,  999.0,   21.7,  999.0,   13.8,  999.0,   15.3,   16.9,   16.7,   15.8,   13.3,   13.0,   16.1,   19.2,   22.2,   18.5,   19.2,   13.5,   13.1,   11.4,   12.2,   10.1,    7.2,    7.7,    6.1,    8.7,    7.8,    4.7,    6.6,    6.0,    6.2,    4.9,    2.6,    2.2,    1.5,    4.0,    7.6,   10.7,   15.4,   13.0,    6.2,    1.8,    1.9,    3.5,    5.0,   -0.1,   -3.5
1992/02/19 01:05,   -4.4,   -3.3,   -2.4,   -3.8,   -5.6,   -6.7,   -7.0,   -6.7,   -8.1,   -9.0,   -7.5,   -7.9,   -7.7,   -7.5,   -6.7,   -9.6,  -10.0,   -8.3,   -8.5,   -7.9,   -7.8,   -8.5,   -6.0,   -4.5,   -2.1,    0.9,    4.0,    5.7,    6.0,    5.2,    5.2,    5.3,    5.2,    6.2,    7.1,    7.4,    5.0,    6.8,    5.1,    4.6,    5.1,    6.4,    7.8,    9.5,   10.9,   12.6,   13.4,   16.3,   15.0,   16.3,   12.9,    6.3,    4.6,    2.7,    2.5,    2.8,    2.1,    1.4,   -0.6,   -1.4,   -0.5,    0.8,    1.7,   -0.6,    1.1,    0.8,    3.3,    3.5,    7.2,    7.8,   10.8,   14.0,   18.2,   19.0,   22.7,  999.0,  999.0,   16.1,  999.0,   15.2,   13.4,   16.3,   14.5,   16.6,   10.2,   12.7,   16.3,   18.3,   16.6,   18.5,   14.0,    9.1,    9.9,    9.5,    9.7,    6.3,    5.3,    7.8,    8.9,    6.6,    3.9,    3.3,    5.9,    6.4,    5.4,  999.0,  999.0,    3.2,    5.7,    9.1,   10.8,   14.9,   12.2,    6.9,    2.2,   -1.6,    1.9,    4.1,  999.0,   -5.3
1992/02/19 01:15,   -4.2,   -5.3,   -5.8,   -7.3,   -8.4,   -7.9,   -6.9,   -7.7,   -9.3,   -7.1,   -6.5,   -7.2,   -8.0,   -8.5,   -7.9,   -8.2,   -8.3,   -7.0,   -7.0,   -6.1,   -6.2,   -2.2,   -5.4,   -4.3,   -1.8,    1.2,    3.7,    5.7,    7.8,    8.5,    8.7,    7.9,    6.3,    5.4,    5.6,    7.4,    6.7,    5.5,    4.2,    3.9,    6.3,    7.1,    9.3,    9.9,   11.1,   12.3,   13.5,   15.3,   14.1,   14.5,   12.7,    5.7,    2.8,    1.6,    0.4,    1.6,    1.3,   -0.0,   -3.3,   -2.3,   -0.6,   -0.4,    0.8,   -0.8,    0.3,    0.9,    2.3,    4.9,    7.8,   12.0,   14.1,   17.9,   21.1,   21.1,  999.0,   19.9,   21.6,  999.0,   13.7,   18.8,   18.9,   18.4,   19.0,  999.0,   12.7,   15.0,   19.1,  999.0,   19.1,   19.3,   15.2,   10.5,    9.3,   10.8,    9.2,    8.0,    5.1,    7.5,    8.9,    9.6,    4.3,    2.6,    5.0,    5.4,    5.8,   -0.2,    0.6,    1.6,    4.5,    7.8,    9.9,   13.4,   14.2,    3.9,    2.8,   -1.5,   -2.7,    0.3,   -2.2,   -1.8
1992/02/19 01:25,   -4.0,   -3.9,   -4.9,   -5.6,   -7.0,   -8.5,   -8.9,   -9.5,   -7.5,   -5.1,   -6.8,   -7.4,   -9.3,   -8.1,   -9.0,   -9.0,   -8.7,   -8.3,   -7.6,   -5.0,   -5.7,   -5.6,   -5.2,   -4.1,   -2.4,    0.5,    3.1,    5.2,    6.6,    7.7,    7.9,    6.5,    4.5,    3.8,    5.4,    6.7,    8.5,    8.6,    7.6,    8.1,    6.4,    7.8,    9.1,   10.2,   12.5,   12.6,   13.8,   15.0,   14.1,   14.8,   12.3,    7.4,    2.9,    3.0,    3.4,    2.6,    1.7,    1.2,    0.2,    0.4,    1.2,    1.6,    3.2,    2.2,    1.5,    2.5,    4.1,    6.9,    9.5,   10.8,   14.1,   18.6,   22.6,   22.7,  999.0,  999.0,  999.0,  999.0,   15.4,   21.4,   18.1,   21.1,   21.1,  999.0,   14.9,   16.8,   21.2,  999.0,   17.8,   20.0,   15.4,   12.7,    9.7,   11.2,    7.9,    6.8,    5.5,    4.7,   10.4,   11.0,    6.0,    2.5,    0.8,    2.3,    2.4,  999.0,   -1.3,   -1.0,    0.1,    4.0,    7.8,   11.9,   12.8,    7.7,    2.1,   -2.0,   -2.0,    0.5,   -2.2,   -4.7
1992/02/19 01:35,   -1.7,   -3.4,   -4.4,   -6.0,   -7.7,   -9.1,   -9.9,   -9.2,   -5.1,   -4.7,   -6.2,   -7.2,   -8.6,   -7.8,   -8.9,   -9.9,   -9.3,   -7.9,   -5.7,   -6.5,   -5.3,   -5.9,   -5.5,   -4.4,   -2.7,   -0.5,    3.3,    4.2,    5.4,    5.7,    7.1,    6.0,    4.1,    4.2,    5.9,    7.8,    8.7,    9.4,   10.8,   11.6,   10.1,   10.7,   11.1,   10.9,   11.6,   13.5,   13.4,   13.9,   14.6,   14.0,   10.5,    5.1,    2.7,    4.0,    3.3,    2.4,    2.2,    0.9,    0.3,    0.9,    2.6,    2.7,    4.2,    2.4,   -1.2,    2.7,    4.5,    8.7,    9.7,    9.3,   12.7,   17.4,   20.5,   22.6,   24.4,  999.0,  999.0,  999.0,   18.6,   21.1,   14.4,   17.2,   18.1,  999.0,   12.2,   14.2,   17.1,   21.1,   14.6,   15.0,   10.7,    6.8,    7.7,    8.5,    5.1,    3.3,    2.6,    4.9,  999.0,    4.5,    5.4,    0.7,    1.1,    0.6,    0.4,  999.0,   -1.9,   -0.5,    0.4,    3.9,    7.3,   11.6,   13.8,    8.3,  999.0,    3.9,    3.6,  999.0,  999.0,    3.4
1992/02/19 01:45,   -3.2,   -3.3,   -5.7,   -7.8,   -9.4,   -8.8,  -10.4,  -10.1,   -7.8,   -6.7,   -8.4,   -9.8,  -10.0,   -9.8,   -9.1,   -9.2,   -9.9,   -8.8,   -7.2,   -5.6,   -6.0,   -6.4,   -4.7,   -3.9,   -2.3,   -0.9,    1.4,    4.0,    5.0,    5.3,    5.7,    6.3,    4.6,    4.9,    6.7,    8.2,    9.4,   11.1,   12.6,   13.8,   12.7,   13.3,   14.5,   14.2,   14.0,   14.4,   12.9,   13.3,   13.6,   11.5,    7.0,    3.7,    3.5,    4.2,    3.5,    2.8,    2.3,    0.1,    0.4,    0.5,    1.9,    3.7,    4.0,    0.8,    2.5,    4.2,    4.7,    7.8,    9.7,   11.4,   13.4,   16.1,   19.9,   22.4,   22.5,   19.3,  999.0,  999.0,  999.0,   19.1,   14.9,   16.1,   16.2,  999.0,    9.1,   14.7,   18.2,  999.0,   15.3,   14.7,    9.6,    7.2,    7.1,    7.4,    5.7,    3.1,    3.3,    5.7,   15.2,    2.3,    3.6,    2.8,    2.7,    1.4,    2.5,  999.0,   -2.6,   -1.5,    1.5,    3.3,    8.0,   12.8,   13.6,   11.9,    6.1,    2.9,    2.0,    5.0,    2.7,    2.8
1992/02/19 01:55,   -2.5,   -4.0,   -6.5,   -7.2,   -8.7,   -9.0,  -10.2,   -9.9,   -8.6,   -8.8,   -9.3,   -9.8,   -9.6,   -9.9,   -8.8,   -8.3,   -8.9,   -8.6,   -5.8,   -5.6,   -5.8,   -5.1,   -6.1,   -5.5,   -4.8,   -2.5,   -0.4,    1.9,    3.1,    3.0,    4.0,    2.9,    3.1,    4.7,    6.3,    7.5,    8.9,    9.6,   10.8,   12.6,   12.9,   13.5,   14.4,   14.3,   15.2,   14.8,   14.3,   14.2,   12.8,    8.4,    4.7,    3.5,    3.3,    4.4,    4.0,    1.6,    2.2,    1.3,    0.7,    1.6,    2.9,    4.7,    4.3,    2.0,    5.1,  999.0,    6.5,    9.3,   10.1,   14.6,   13.6,   16.2,   18.5,   23.6,   24.5,   24.4,   24.6,  999.0,  999.0,   14.9,   17.2,   18.1,   18.5,   12.2,   13.5,   15.9,   18.2,   15.8,   15.8,   13.6,    9.5,    7.2,    5.9,    6.3,    4.9,    3.3,    3.0,    3.8,  999.0,  999.0,    5.5,    5.9,    3.7,    3.3,    3.4,    1.4,    0.8,    0.9,    1.8,    5.8,   10.7,   14.4,   16.0,    9.6,    7.8,    3.5,    0.8,    3.7,    0.7,    2.7
1992/02/19 02:05,   -2.9,   -3.5,   -4.7,   -6.4,   -8.7,   -9.3,   -8.9,   -9.0,   -9.4,   -9.7,   -9.8,   -8.3,   -7.5,   -7.3,   -7.5,   -7.0,   -7.2,   -5.7,   -2.1,   -3.8,   -1.3,   -3.1,   -4.3,   -3.6,   -3.0,   -2.3,   -1.9,    0.5,    2.0,    2.6,    2.4,    1.8,    1.7,    2.3,    4.2,    5.8,    7.3,    7.8,    9.5,   10.3,   11.7,   11.8,   12.9,   12.8,   13.6,   12.9,   13.1,   12.7,    8.4,    6.2,    1.9,    2.2,    1.6,    3.0,    3.8,    2.9,    0.2,    1.9,    1.8,    2.6,    5.1,    5.8,    4.2,    4.0,    2.9,    5.0,    6.8,   10.5,   12.5,   12.4,   13.1,   15.8,   20.2,   24.6,   23.6,   22.0,  999.0,   14.5,  999.0,  999.0,   17.3,   16.9,   16.3,   12.6,   14.3,   17.1,   18.2,   16.3,   14.5,   11.9,    9.8,    7.0,    7.3,    7.2,    6.6,    3.7,    3.6,    5.1,  999.0,    5.3,    4.7,    3.3,    2.5,    1.6,   -2.4,   -0.5,   -0.9,   -2.0,   -1.5,    1.3,    6.4,    7.1,   13.0,  999.0,    7.3,    1.9,   -1.8,   -1.2,    0.8,   -1.5
1992/02/19 02:15,   -4.0,   -4.6,   -5.7,   -7.5,   -7.4,   -7.6,   -8.6,   -9.5,   -9.8,  -10.0,   -8.7,   -7.2,   -7.7,   -6.8,   -7.1,   -6.5,   -6.2,   -6.2,   -3.8,   -3.2,   -1.6,  999.0,   -3.2,   -3.4,   -2.6,   -1.6,   -1.1,   -0.5,    0.4,    2.0,    1.8,    1.1,    1.4,    1.8,    2.3,    3.6,    4.6,    5.3,    6.6,    7.9,    9.3,    9.2,    9.8,   11.7,   10.4,   10.8,   11.2,    9.4,    6.0,    4.0,    0.9,    0.8,    1.7,    2.9,    2.4,    2.7,   -1.7,    1.0,    0.6,    2.2,    5.2,    6.2,    5.3,    6.7,    4.8,    4.8,    7.3,  999.0,   10.5,    9.6,   14.0,   15.4,   19.0,   23.0,   24.7,  999.0,   21.7,   21.7,  999.0,  999.0,   19.0,   17.4,   16.8,   13.7,   14.8,   18.0,   16.8,   16.0,   15.1,   11.9,    9.0,    7.2,    7.3,    8.3,    8.4,    6.2,    4.5,  999.0,  999.0,  999.0,    7.4,    7.0,    3.9,    5.3,  999.0,    3.1,    3.2,    1.8,    1.3,    4.5,    8.3,   11.7,   13.5,  999.0,  999.0,    4.2,   -0.2,  999.0,  999.0,    0.2
1992/02/19 02:25,   -5.3,   -5.2,   -6.4,   -7.5,   -7.3,   -7.6,   -7.7,   -9.1,  -10.5,   -9.0,   -9.4,   -8.8,   -8.7,   -8.4,   -9.3,   -7.3,   -6.6,   -4.7,   -3.1,   -3.8,   -2.8,   -4.0,   -3.2,   -2.9,   -2.7,   -1.5,    0.2,    0.8,    2.6,    3.5,    2.3,    1.2,    1.2,    2.4,    1.5,    3.0,    1.8,    4.9,    5.7,    6.2,    7.9,    9.1,   10.6,   10.8,   11.4,   11.6,   10.0,    6.7,    4.3,    3.7,    1.2,    1.8,    3.5,    3.3,    3.1,    3.5,    0.4,    1.7,    1.7,    2.5,    5.6,    6.2,    5.2,    6.2,    5.8,    5.5,    7.0,    6.0,    9.4,   12.4,   12.0,   13.5,   18.3,   22.3,   24.1,   20.4,   19.8,  999.0,  999.0,  999.0,   17.6,   18.7,   14.4,   13.5,   15.0,   17.8,   16.6,   17.5,   14.2,   12.2,    8.7,    8.4,    8.3,    7.0,    6.2,    5.9,    6.2,  999.0,  999.0,  999.0,    5.5,    6.6,    7.0,    7.5,    4.6,    3.9,    4.8,    3.9,    2.4,    5.4,   10.1,   12.0,   14.2,  999.0,    4.9,    2.0,   -2.9,   -3.8,   -0.3,   -2.5
1992/02/19 02:35,   -7.8,   -6.9,   -6.0,   -6.1,   -5.2,   -6.0,   -7.3,   -8.0,   -9.8,  -10.5,  -10.1,  -10.5,   -9.0,   -8.9,   -8.7,   -7.9,   -8.1,   -5.3,   -4.7,   -4.5,   -4.4,   -4.7,   -3.0,   -2.6,   -1.9,   -1.0,    0.1,    1.2,    2.7,    2.9,    1.6,    0.6,    1.3,    1.9,    2.5,    3.9,    4.7,    5.4,    6.2,    6.9,    7.7,    9.2,   10.6,   10.7,   10.3,   10.7,    9.0,    5.9,    4.2,    3.9,    2.7,    4.2,    4.4,    4.8,    4.1,    4.0,    2.8,    3.6,    3.8,    5.4,    7.7,   10.8,  999.0,    6.1,    6.9,    6.7,    6.5,    9.4,   10.1,   13.0,   13.0,   14.2,   18.3,   22.5,   24.3,   20.7,   23.3,   24.0,  999.0,  999.0,   19.3,   18.7,   18.6,   16.3,   16.4,   18.3,   17.6,   17.3,   15.8,   12.4,    9.9,    8.3,    8.7,    8.4,    6.7,    7.0,    6.6,    6.5,    9.7,  999.0,  999.0,    6.6,    7.8,    5.2,    4.3,    5.1,    5.3,    3.6,    2.0,    5.3,    7.8,   12.5,   15.1,  999.0,    4.9,    0.8,   -3.9,   -3.7,   -2.8,   -3.3
1992/02/19 02:45,   -6.9,   -6.3,   -5.1,   -4.2,   -3.9,   -4.9,   -5.6,   -7.5,   -8.2,   -9.9,   -8.1,   -9.7,  -10.0,   -8.7,   -7.9,   -6.4,   -7.0,   -5.0,   -4.3,   -1.9,   -3.1,   -3.3,   -3.0,   -2.8,   -1.7,   -1.0,   -0.5,    0.7,    1.8,    1.5,    1.1,    0.5,    1.1,    1.5,    2.0,    3.0,    3.7,    4.5,    5.4,    6.8,    7.5,    7.9,    7.6,    6.5,    7.3,    8.7,    6.7,    6.0,    4.1,    4.9,    4.5,    4.5,    4.4,    6.0,    6.4,    5.7,    4.7,    5.3,    5.8,    5.8,    5.7,    9.8,    7.5,    2.9,    7.6,    6.6,    6.6,   12.3,    9.8,    5.5,   10.6,   13.0,   15.5,   19.0,   22.1,   18.3,  999.0,  999.0,  999.0,  999.0,   19.2,   19.4,   19.0,   16.3,   18.4,   19.8,   16.5,   17.0,   15.7,   15.5,    8.4,    8.0,    8.2,    9.0,    8.9,    7.5,    8.5,   10.2,   13.7,  999.0,    7.7,    8.8,    9.3,  999.0,    5.9,    6.8,    6.1,    2.7,    2.2,    6.1,   10.5,   13.5,  999.0,    4.8,    2.3,   -2.1,   -5.8,   -2.9,   -3.6,  999.0
1992/02/19 02:55,   -5.5,   -5.8,   -4.4,   -4.9,   -6.0,   -6.8,   -7.0,   -8.0,   -8.4,   -8.4,   -9.8,  -11.0,   -9.9,   -9.5,   -8.5,   -7.2,   -8.5,   -6.1,   -4.7,   -4.6,   -4.2,   -4.2,   -2.6,   -2.3,   -2.3,   -1.6,   -1.1,    0.2,    1.1,    0.8,    0.7,    0.1,    1.6,    2.7,    2.4,    3.0,    3.1,    3.7,    3.6,    3.5,    4.2,    3.6,    5.2,    5.2,    6.2,    7.1,    6.7,    5.8,    4.4,    5.7,    5.1,    3.6,    4.3,    5.6,    5.9,    5.5,    5.3,    6.5,    5.1,    6.0,    7.2,    8.8,   10.4,    2.4,    6.6,    7.5,    5.9,  999.0,    8.8,  999.0,  999.0,   11.7,   15.2,   17.4,   20.5,  999.0,  999.0,  999.0,   18.3,  999.0,   18.1,   17.5,   18.2,   16.9,   18.5,   18.1,   14.4,   14.7,  999.0,   10.2,    8.1,    5.9,    5.7,    6.2,    5.6,    5.7,    5.2,    6.4,    8.0,    9.3,    6.4,    6.4,  999.0,  999.0,    3.7,    4.4,    4.2,   -1.7,    0.3,    3.7,    8.2,    9.2,  999.0,    3.0,   -1.1,   -6.3,   -9.3,   -1.4,   -5.1,    1.4
1992/02/19 03:05,   -5.2,   -4.9,   -4.9,   -5.6,   -6.2,   -6.5,   -7.3,   -7.1,   -7.6,   -9.3,  -12.0,  -12.0,  -11.4,   -9.9,   -9.4,   -7.6,   -7.1,   -6.0,   -4.6,   -3.3,   -2.2,   -3.0,   -3.1,   -2.9,   -2.5,   -1.0,    0.4,    0.9,    0.8,    0.2,    0.9,    0.9,    2.1,    2.5,    3.1,    3.2,    2.8,    3.5,    2.6,    3.5,    2.5,    2.0,    2.7,    4.5,    5.9,    6.0,    5.3,    4.4,    4.9,    5.2,    3.1,    1.3,    2.9,    4.4,    6.2,    5.6,    5.5,    5.0,    4.7,    6.4,    8.0,    9.9,    6.4,    4.4,    8.1,    6.0,    7.2,  999.0,    9.2,    9.9,   11.7,   13.6,   15.2,   17.3,   20.9,  999.0,  999.0,  999.0,  999.0,    3.8,   21.2,   19.7,   18.9,   18.8,   18.5,   17.4,   17.3,   19.5,   11.2,   11.1,    9.5,    7.3,    7.1,    7.5,    7.3,    6.0,    6.4,    7.4,  999.0,    6.3,    6.5,    7.9,  999.0,  999.0,    5.8,    5.9,    3.2,    1.1,    1.3,    3.4,    8.6,   10.1,  999.0,    3.8,    2.2,   -3.7,   -4.1,    0.3,   -1.9,    1.0
1992/02/19 03:15,   -5.9,   -5.1,   -4.5,   -3.2,   -4.0,   -5.8,   -6.2,   -8.1,   -9.1,  -11.2,  -11.5,  -11.3,  -10.3,   -8.7,   -8.9,   -8.0,   -6.7,   -5.5,   -4.4,   -2.3,   -3.1,   -2.6,   -3.1,   -2.6,   -1.6,   -1.0,    0.1,    0.3,    0.0,   -0.2,   -0.1,   -0.6,    0.0,    2.1,    1.0,    1.5,    2.5,    2.3,    2.3,    2.2,    1.9,    1.4,    3.0,    3.6,    4.9,    5.1,    4.8,    3.3,    4.4,    3.7,    3.8,    2.2,    3.8,    5.0,    5.8,    6.4,    5.9,    6.5,    6.4,    7.9,    9.4,    8.4,    7.5,    4.3,    8.5,    3.7,    5.8,    6.3,   11.3,    9.5,   13.0,   12.8,   16.6,   18.4,  999.0,   19.6,  999.0,   19.9,  999.0,  999.0,   21.5,   22.3,   19.9,   22.4,   19.9,   18.2,   19.9,   17.8,  999.0,   11.4,    9.8,    7.2,    8.4,    7.8,    6.8,    5.8,    5.7,    6.4,    4.9,  999.0,    7.1,    7.5,    9.1,  999.0,    8.1,    6.2,    2.5,    0.0,    2.0,    6.6,   10.5,   13.7,  999.0,  999.0,    1.9,   -3.8,   -5.2,   -2.2,   -3.3,   -1.7
1992/02/19 03:25,   -7.0,   -6.5,   -6.4,   -6.0,   -7.8,   -8.0,   -9.4,  -10.4,  -10.6,  -10.8,  -10.2,  -10.3,   -8.9,   -9.0,   -9.3,   -8.6,   -8.3,   -6.6,   -3.8,   -4.4,   -2.2,   -2.4,   -2.8,   -3.5,   -2.1,   -0.4,   -0.7,   -0.5,   -1.2,   -0.8,   -1.8,   -1.0,    0.2,    1.1,    1.0,    0.2,    0.8,    0.5,    1.1,    0.9,    0.5,   -0.4,    0.4,    1.7,    4.7,    5.9,    4.5,    4.3,    6.5,    5.3,    4.9,    2.7,    4.4,    7.5,    6.9,    7.2,    6.8,    7.5,    6.7,    8.8,    9.5,    8.1,    9.5,   11.5,    7.1,    6.8,    5.6,    9.0,   10.9,   13.1,   12.9,   14.0,   15.6,   22.8,   17.5,   23.1,   20.7,   22.3,  999.0,   19.6,   24.2,   24.2,   21.5,   23.2,   21.5,   20.8,   22.7,   16.0,   13.4,   11.9,    9.2,    6.9,    7.8,    7.9,    5.5,    4.7,    4.6,    4.5,    1.2,  999.0,    5.0,    4.7,    2.9,    3.0,    5.1,    3.7,    0.3,   -1.1,   -0.9,    1.5,    3.9,  999.0,    6.1,   -1.7,   -1.6,  -10.5,  -10.9,   -6.1,   -5.1,   -5.3
1992/02/19 03:35,   -6.2,   -7.4,   -7.8,   -8.8,   -8.6,   -9.6,   -9.4,   -9.6,   -8.3,   -6.9,   -7.4,   -8.5,   -7.3,   -8.5,   -8.0,   -7.6,   -7.3,   -6.2,   -3.5,   -2.1,   -2.9,   -3.2,   -3.4,   -3.3,   -2.6,   -1.1,   -0.8,   -1.6,   -1.8,   -1.4,   -1.3,   -2.0,   -0.8,   -0.1,   -0.1,   -0.9,   -0.6,   -0.8,    0.1,   -0.1,    0.4,    0.5,    0.7,    1.5,    4.1,    5.1,    4.1,    5.8,    8.5,    7.0,    5.5,    2.9,    4.3,    6.7,    7.3,    5.7,    6.4,    9.7,    8.7,    6.7,    7.0,    7.8,    7.4,    7.0,    6.8,    5.7,    5.0,    6.8,    9.5,   10.3,   11.2,   13.7,   13.9,   17.6,  999.0,  999.0,   16.4,   18.7,  999.0,   21.7,   21.7,   23.0,   20.4,   22.5,   22.2,   20.6,  999.0,   16.4,   13.8,   11.2,   10.3,    7.4,    8.2,    6.1,    6.2,    3.4,    2.0,    2.2,  999.0,    1.9,  999.0,    3.3,    6.8,    9.6,    6.8,    9.7,    4.2,    1.2,    0.2,    3.7,    5.5,    9.4,  999.0,  999.0,   -1.6,   -9.1,   -9.4,   -8.4,   -3.4,   -5.8
1992/02/19 03:45,   -6.8,   -7.7,   -7.5,   -8.5,   -9.0,   -9.0,   -8.2,   -7.9,   -6.5,   -6.2,   -7.7,   -7.0,   -7.3,   -7.4,   -8.0,   -7.0,   -6.4,   -5.5,   -2.9,   -2.9,   -3.1,   -3.8,   -3.3,   -2.3,   -1.5,   -1.2,   -1.2,   -1.9,   -2.1,   -2.0,   -2.1,   -3.0,   -2.2,    0.4,   -0.8,   -1.1,   -1.1,   -1.5,   -0.7,   -0.9,    0.4,    0.2,    0.6,    2.5,    4.0,    2.0,    3.2,    6.9,    7.7,    7.5,    4.7,    3.5,    3.8,    6.4,    7.4,    5.3,    5.9,    7.3,    9.2,    6.1,    6.3,    7.1,    5.7,    4.3,    4.1,    3.2,    4.8,  999.0,    5.0,    8.8,   12.4,   12.4,   12.6,   16.5,   18.1,   16.6,   13.7,  999.0,   20.1,  999.0,  999.0,   21.0,   21.6,   23.7,   24.5,   20.2,   18.8,   10.6,    3.2,    8.1,    6.6,    7.5,    7.6,    5.5,    4.9,    0.3,    1.9,    1.9,  999.0,    5.7,  999.0,    7.2,    7.8,  999.0,    9.2,    8.0,    6.6,    1.9,    1.9,    3.6,    7.5,    8.8,   11.2,    0.6,    1.8,   -4.7,   -6.1,   -4.1,   -0.7,   -3.3
1992/02/19 03:55,   -7.7,   -7.6,   -6.9,   -6.9,   -6.3,   -7.0,   -6.1,   -4.7,   -4.5,   -4.8,   -5.4,   -5.3,   -7.5,   -7.0,   -7.5,   -6.6,   -6.5,   -5.1,   -3.1,   -2.9,   -3.7,   -3.7,   -3.3,   -2.6,   -1.8,   -1.3,   -1.6,   -2.3,   -2.0,   -1.6,   -2.0,   -1.9,   -2.4,   -0.5,   -0.9,   -1.3,   -0.4,    0.4,   -0.1,   -0.6,   -0.4,    0.1,    0.3,    2.7,    4.0,    1.7,    3.5,    4.8,    6.9,    6.1,    4.6,    4.2,    3.4,    6.4,    6.2,    6.3,    4.1,    6.0,    7.5,    9.9,    6.8,    6.0,    5.7,    3.5,    5.7,    2.1,    3.0,    5.0,    5.5,    7.8,    9.3,   10.8,    7.9,   15.0,   16.3,   18.2,   14.9,   17.9,   19.5,   18.9,   19.8,   21.4,   21.5,   22.9,   23.4,   19.8,   19.7,  999.0,    3.6,    6.7,    6.9,    6.1,    7.6,    7.8,    5.1,    2.3,    1.3,    1.0,    5.3,   10.6,  999.0,  999.0,    5.5,    6.1,    8.0,    7.3,    2.4,   -0.2,    1.3,    1.7,    3.8,    5.5,    7.6,  999.0,   -1.9,   -7.8,   -9.9,   -9.3,   -7.5,   -4.2
1992/02/19 04:05,   -6.0,   -4.8,   -3.6,   -3.5,   -3.7,   -3.0,   -3.1,   -4.0,   -4.1,   -5.2,   -6.4,   -7.2,   -7.3,   -6.8,   -7.0,   -5.4,   -6.0,   -4.3,   -2.9,   -1.8,   -3.3,   -3.5,   -2.5,   -1.6,   -1.2,   -0.3,   -1.0,   -1.5,   -1.6,   -1.9,   -1.8,   -1.8,   -1.7,   -0.4,    0.0,   -0.2,   -0.2,    0.1,   -0.2,    0.0,    0.4,   -0.7,    1.5,    3.3,    3.3,    3.5,    5.9,    7.6,    7.5,    7.0,    6.7,    6.0,    3.7,    7.2,    7.6,    7.5,    5.0,    7.1,   10.1,    4.7,    5.8,    7.5,    5.7,    3.2,    4.7,    3.0,    2.7,    3.8,    6.6,    7.4,   10.1,   12.0,   12.9,   15.3,   17.2,   15.3,   18.1,   19.7,   22.4,   21.3,   22.8,   21.5,   20.5,   22.8,   24.7,   24.2,   21.1,   10.8,  999.0,    8.5,    8.0,    8.7,    9.5,   10.6,    7.6,    4.8,    2.1,    1.6,  999.0,  999.0,  999.0,    9.2,    9.5,   15.4,    9.3,    6.9,    4.2,    2.6,    3.5,    6.7,    8.0,   10.8,    8.1,    3.8,    0.1,   -6.2,   -8.4,   -6.3,   -6.2,   -2.3
1992/02/19 04:15,   -5.4,   -4.2,   -4.7,   -2.7,   -3.2,   -3.6,   -3.7,   -4.6,   -5.5,   -6.7,   -6.2,   -6.2,   -5.9,   -6.3,   -6.5,   -6.7,   -6.7,   -3.8,   -2.9,   -1.2,   -1.0,   -2.6,   -3.2,   -2.6,   -1.9,   -1.8,   -0.8,   -1.5,   -2.0,   -2.5,   -2.8,   -3.0,   -1.4,   -0.2,    0.2,   -0.0,    0.3,    0.1,   -0.1,    0.1,   -0.5,   -0.1,   -0.4,    1.1,    2.3,    3.0,    6.9,    6.8,    7.2,    7.6,    6.5,    7.0,    2.6,    4.6,    7.8,    8.2,    4.4,    6.4,    6.8,    8.1,    5.9,    6.4,    4.7,    5.2,    7.0,    4.7,    3.0,    4.3,    5.0,    7.0,    8.7,    9.1,   11.4,   12.4,   14.6,   14.3,   17.1,   19.8,   18.5,   18.4,   22.4,   21.7,   20.3,   22.4,   23.7,   22.7,   20.0,  999.0,   11.1,    8.1,    7.7,    8.2,    8.4,    7.8,    7.8,    4.6,    4.2,    2.0,    3.3,  999.0,  999.0,  999.0,  999.0,   11.6,    9.1,    7.0,    3.4,    0.8,    5.1,  999.0,   10.4,   11.1,  999.0,    0.1,   -1.2,   -5.9,   -7.2,   -5.1,   -6.0,   -3.1
1992/02/19 04:25,   -5.2,   -3.1,   -3.0,   -2.0,   -2.4,   -2.7,   -3.6,   -4.8,   -5.5,   -5.2,   -6.3,   -4.7,   -5.1,   -6.7,   -5.6,   -4.7,   -6.1,   -5.5,   -3.3,   -2.3,   -2.6,   -3.2,   -3.5,   -3.3,   -2.9,   -2.1,   -1.4,   -1.4,   -1.9,   -1.4,   -1.9,   -2.0,   -0.7,    0.6,    0.5,    0.7,    1.0,   -0.0,   -0.5,   -0.6,    0.2,   -0.1,    0.8,    0.9,    2.3,    4.7,    8.2,    7.0,    4.6,    6.1,    6.3,    5.8,    1.7,    3.1,    6.3,    7.9,    3.9,    3.8,    3.8,    5.3,    4.0,    6.0,    5.3,    4.5,    5.3,    4.9,    3.0,    4.4,    4.7,    6.6,    8.5,   10.8,   11.1,   13.2,   16.0,   14.1,   18.4,   18.7,   18.9,   17.0,  999.0,   17.7,   21.2,   19.4,   20.4,   21.9,  999.0,   15.0,   10.7,    5.8,    6.2,    7.9,    8.2,    9.4,    7.9,    6.6,    6.4,    4.8,    4.2,    7.7,  999.0,  999.0,  999.0,  999.0,    7.5,    6.9,    4.0,    3.1,    3.9,    6.3,    9.2,  999.0,    4.1,    2.6,   -2.5,   -6.5,   -6.6,   -3.0,   -3.8,   -2.8
1992/02/19 04:35,   -4.1,   -4.2,   -3.4,   -3.5,   -2.0,   -3.8,   -5.7,   -4.8,   -4.8,   -5.0,   -4.7,   -4.4,   -5.1,   -4.7,   -3.9,   -5.0,   -6.2,   -3.9,   -3.9,   -2.2,   -2.9,   -4.0,   -4.5,   -3.9,   -3.1,   -1.7,   -1.4,   -1.1,   -1.1,   -1.4,   -1.4,   -1.5,    0.4,    0.6,    0.7,    1.7,    1.3,    0.9,    0.7,   -1.5,    0.3,   -0.2,    0.7,    1.1,    2.0,    4.1,    7.5,    9.7,    0.3,    6.4,    6.9,    6.5,    2.4,    4.6,    8.6,    8.8,    4.8,    5.4,    4.9,    5.1,    6.0,    6.1,    5.2,    3.6,    4.7,    4.1,    3.2,    3.7,    6.4,    6.2,    8.2,    8.0,    9.6,   12.3,   15.7,   13.6,   15.6,   18.1,  999.0,  999.0,  999.0,   16.1,   14.7,   17.7,   21.6,   20.3,   20.7,   12.5,    7.8,    6.4,    6.9,    8.1,    8.4,    9.8,    9.3,    7.6,    4.6,    4.8,    5.3,    6.0,  999.0,  999.0,    8.6,    9.1,    8.7,    6.2,    1.9,    2.8,    3.5,    4.6,    6.5,    8.5,    3.1,    0.5,   -3.0,   -8.6,   -9.6,   -6.1,   -7.9,   -4.8
1992/02/19 04:45,   -4.8,   -4.3,   -4.4,   -4.1,   -4.8,   -5.6,   -5.8,   -4.6,   -4.7,   -5.1,   -5.1,   -5.6,   -6.1,   -6.8,   -6.8,   -6.2,   -7.9,   -7.8,   -6.0,   -4.3,   -3.7,   -6.2,   -6.0,   -5.7,   -3.6,   -1.6,   -1.2,   -0.9,   -1.7,   -2.2,   -2.7,   -2.4,   -0.5,    0.6,    0.4,    1.7,    0.9,   -0.1,   -0.1,    0.4,   -0.2,    0.1,   -0.2,   -0.1,    0.3,    3.4,    7.0,    8.8,    6.9,    6.5,    6.7,    6.8,    2.7,    4.9,    9.0,    9.0,    4.2,    5.2,    5.1,    5.8,    4.9,    6.3,    5.0,    5.1,    3.9,    5.2,    4.8,    2.8,    4.3,    9.8,    7.1,    6.1,   11.8,   13.9,   16.8,   17.5,   15.6,   19.3,   20.1,   18.8,   19.4,   19.0,   20.2,  999.0,   21.8,   21.7,   21.4,   14.9,    8.6,    6.9,    8.4,    9.1,    9.2,    9.9,    9.9,    7.5,    5.7,    6.0,    5.8,    8.0,  999.0,    3.9,  999.0,    7.7,    8.3,    4.7,    5.1,    0.8,    2.8,    3.5,    4.6,    5.6,    1.4,   -0.5,   -3.9,   -6.9,   -8.3,   -4.7,   -7.8,   -5.4
1992/02/19 04:55,   -7.0,   -5.3,   -5.8,   -6.6,   -5.2,   -5.3,   -4.1,   -3.6,   -5.3,   -5.9,   -5.8,   -6.5,   -7.5,   -7.4,   -7.2,   -7.1,   -9.3,   -6.9,   -7.0,   -5.1,   -5.9,   -5.9,   -5.8,   -5.1,   -3.8,   -2.4,   -1.7,   -1.5,   -2.0,   -3.4,   -3.3,   -2.0,   -0.6,   -0.6,    1.1,    1.2,    1.4,    1.1,   -0.3,   -0.4,   -0.0,   -0.7,   -0.1,   -0.2,    1.2,    5.0,    8.1,    6.7,    8.3,    5.4,    7.1,    6.8,    4.0,    6.9,   10.4,   10.2,    6.7,    5.6,    5.2,    8.4,    5.2,    6.5,    6.9,    5.3,    5.4,    5.2,    4.7,    4.5,    5.3,    7.1,    9.6,    8.9,   13.4,   15.8,   16.9,   11.6,   15.3,   19.0,   16.9,   19.2,   19.1,   23.4,   26.8,  999.0,  999.0,   24.4,   23.9,   22.0,   11.1,    9.6,   10.3,   10.1,    9.6,    8.9,    8.3,    5.8,    4.8,    5.3,    8.5,    8.2,    1.9,  999.0,  999.0,    9.6,   11.9,    8.0,    6.2,    1.4,    1.7,    8.2,    6.5,    8.8,  999.0,    2.4,    0.3,   -3.9,   -2.9,   -2.9,   -2.6,   -2.3
1992/02/19 05:05,   -6.9,   -5.4,   -6.1,   -5.9,   -4.6,   -3.4,   -2.3,   -3.4,   -5.8,   -6.9,   -6.0,   -5.9,   -6.6,   -6.5,   -6.6,   -6.9,   -8.5,   -6.9,   -5.4,   -3.5,   -5.1,   -6.1,   -5.7,   -4.8,   -3.2,   -1.7,   -1.3,   -1.4,   -1.7,   -3.7,   -3.5,   -0.8,    0.5,    0.7,    1.3,    1.4,    1.2,    0.7,    0.5,    0.0,    0.1,    0.5,    0.5,    0.7,    4.2,    6.8,    9.1,    6.2,    7.1,    5.9,    7.8,    4.8,    4.6,    8.3,   12.8,    8.9,    5.3,    5.5,    6.8,    7.3,    5.6,    7.1,    7.7,    5.8,    5.0,    1.4,    3.0,    5.5,    6.1,    6.6,   10.3,   11.5,   16.9,   16.2,   14.1,   13.0,   14.5,   16.6,   17.6,   18.8,   22.2,   23.6,   19.5,  999.0,  999.0,   23.4,   24.2,   22.9,   14.7,    9.0,    9.9,   10.1,    9.5,    9.9,   10.1,    3.9,    5.3,    6.0,    7.2,  999.0,    6.7,  999.0,  999.0,    6.0,    9.7,    6.5,    5.7,    4.7,    5.8,    6.0,    8.6,   11.4,    3.1,    4.8,  999.0,   -0.7,   -1.5,   -0.8,   -2.1,   -1.1
1992/02/19 05:15,   -6.7,   -6.7,   -6.9,   -5.7,   -2.6,   -2.0,   -2.9,   -6.4,   -6.6,   -5.0,   -6.2,   -6.6,   -6.1,   -5.5,   -6.3,   -5.9,   -6.9,   -6.8,   -4.8,   -3.5,   -5.0,   -5.9,   -6.3,   -5.2,   -3.6,   -2.2,   -1.8,   -1.0,   -1.9,   -3.6,   -2.5,   -0.3,    0.7,    1.9,    1.7,    1.0,    0.7,   -0.3,   -0.6,   -0.3,    0.1,   -0.5,   -1.3,    0.0,    2.9,    5.4,    6.4,    5.7,    7.4,    4.9,    5.9,    4.9,    3.5,    6.6,   11.4,    9.1,    4.5,    4.8,    6.3,    6.6,    5.7,    8.0,    5.2,    3.3,    3.7,    0.1,    1.6,    6.3,    7.7,    6.7,   10.2,    9.0,   11.8,   14.6,   12.5,   16.9,   16.5,   15.8,   17.0,   17.6,   17.8,   19.1,  999.0,   21.4,   26.3,   25.1,   24.8,  999.0,   10.6,    8.5,    8.7,    8.1,    8.4,    8.8,    5.0,    3.5,    4.3,    4.2,    4.9,    7.5,    6.1,    4.0,  999.0,    5.9,    5.2,    6.7,    3.6,    3.5,  999.0,    3.8,    7.1,    8.8,    2.5,    2.2,    4.2,   -5.7,   -3.3,    2.7,   -1.1,   -2.8
1992/02/19 05:25,   -6.7,   -6.6,   -6.4,   -5.8,   -5.0,   -3.7,   -4.0,   -5.2,   -4.9,   -6.1,   -6.6,   -6.2,   -6.6,   -6.7,   -6.0,   -6.4,   -7.9,   -6.9,   -5.3,   -3.6,   -6.7,   -6.1,   -6.4,   -5.5,   -2.8,   -1.7,   -1.3,   -1.7,   -2.9,   -3.4,   -3.6,   -1.5,    0.4,    0.2,    0.7,    0.7,    0.9,    1.3,    0.9,    0.0,   -1.0,   -1.5,   -2.9,   -0.3,    2.3,    4.3,    3.3,    4.9,    3.5,    3.1,    4.3,    3.5,    1.5,    4.1,    8.2,    6.7,    3.6,    4.7,    5.7,    5.1,    5.2,    7.5,    6.4,    3.7,    4.1,    4.4,    4.5,    7.9,    6.1,    8.6,    8.9,   11.2,   14.6,  999.0,  999.0,  999.0,   15.1,   19.5,  999.0,   17.7,   18.1,   19.6,  999.0,   20.3,   21.9,   23.0,   19.8,  999.0,  999.0,    8.6,    8.2,    7.9,    7.8,    8.0,    6.0,    3.3,    3.8,    4.8,    4.2,    6.0,    7.7,  999.0,  999.0,  999.0,  999.0,    5.1,    3.7,    5.0,    4.7,    2.7,    6.3,    7.6,  999.0,  999.0,   -0.8,   -5.2,   -7.5,   -4.9,   -5.5,  -10.5
1992/02/19 05:35,   -8.4,   -8.4,   -8.0,   -7.4,   -5.1,   -4.0,   -5.4,   -6.0,   -7.4,   -8.6,   -9.1,   -8.3,   -7.4,   -7.7,   -6.7,   -6.6,   -7.5,   -7.4,   -5.4,   -5.1,   -5.9,   -6.4,   -5.5,   -4.3,   -2.4,   -1.5,   -1.5,   -1.9,   -2.3,   -3.9,   -3.7,   -1.6,   -0.5,   -0.4,    0.8,    0.5,   -0.2,   -0.0,    0.1,   -0.9,   -2.6,   -2.2,   -2.4,   -1.5,    0.8,    3.1,    4.3,    3.3,    3.3,    4.5,    5.8,    2.4,    2.1,    4.6,    9.2,    8.7,    3.2,    3.8,    5.6,    4.3,    5.2,    6.1,    4.7,    3.7,    3.4,    4.9,    2.5,    6.0,    3.8,  999.0,   12.1,    8.4,   10.4,   16.1,  999.0,  999.0,  999.0,   18.2,   19.1,   15.9,   13.7,   16.6,  999.0,  999.0,  999.0,   22.6,  999.0,   15.3,   10.3,    7.0,    5.7,    6.3,    6.2,    6.4,    2.6,    1.9,    2.1,    1.6,    2.4,    1.9,  999.0,    9.8,  999.0,    4.2,  999.0,    3.8,    5.7,    2.6,  999.0,  999.0,    5.4,  999.0,  999.0,  999.0,   -0.1,   -3.7,   -3.9,    0.0,    1.4,    1.9
1992/02/19 05:45,   -9.1,   -8.2,   -7.5,   -5.6,   -4.1,   -3.8,   -5.9,   -7.5,   -7.9,   -9.6,   -7.8,   -6.8,   -5.9,   -6.9,   -6.2,   -6.3,   -7.2,   -6.2,   -5.3,   -5.3,   -6.2,   -5.5,   -5.2,   -4.0,   -2.3,   -0.8,   -1.0,   -1.9,   -2.7,   -3.4,   -1.8,    0.3,    0.4,    0.6,    0.5,    0.2,   -0.2,   -0.1,   -0.3,   -0.1,   -1.8,   -1.2,   -2.4,   -2.1,    1.0,    2.6,    4.3,    2.6,    2.0,    4.3,    4.6,    1.4,    2.8,    5.4,    8.4,    6.4,    2.2,    2.2,    5.2,    4.9,    3.4,    3.4,    4.0,    3.0,    3.4,    3.4,    2.0,    3.7,    5.5,    8.2,    5.9,    7.8,   10.0,   14.1,   14.8,   13.1,   14.4,   19.2,   17.7,    6.7,   13.4,   18.1,   26.9,  999.0,  999.0,  999.0,   18.8,   13.1,   10.3,    5.2,    5.3,    6.2,    6.4,    6.3,    6.0,   -0.1,    0.6,    2.7,    2.2,    0.1,    2.9,    3.6,    8.0,  999.0,    5.1,    5.4,    4.2,    1.7,  999.0,    4.0,    5.9,  999.0,  999.0,    2.0,    1.5,   -3.8,   -4.3,   -1.5,   -0.0,   -1.4
1992/02/19 05:55,  -10.1,  -10.0,   -8.4,   -7.1,   -4.2,   -3.6,   -6.2,   -7.3,   -8.1,   -7.3,   -7.6,   -7.3,   -6.0,   -5.8,   -6.4,   -7.8,   -7.6,   -5.1,   -4.6,   -4.6,   -4.8,   -5.9,   -5.0,   -4.6,   -2.7,   -1.8,   -1.5,   -2.7,   -3.3,   -2.4,   -0.4,    0.7,    1.0,    0.3,    0.6,   -0.7,   -0.7,   -0.4,    0.5,   -0.7,   -0.7,   -1.6,   -2.0,   -1.1,    0.5,    3.3,    4.8,    3.5,    4.4,    5.4,    5.3,    3.5,    4.9,    7.2,    9.1,    7.4,    2.4,    2.0,    4.3,    5.2,    3.8,    4.3,    5.7,    3.4,    2.8,    3.1,    1.4,    5.1,    2.7,    9.4,  999.0,    5.7,    9.1,    9.0,   10.9,   13.9,  999.0,   17.2,   15.3,  999.0,   14.2,   17.5,  999.0,  999.0,  999.0,  999.0,  999.0,  999.0,   15.4,    9.2,    6.2,    4.9,    6.5,    6.3,    6.3,    5.3,    2.5,    1.3,    1.1,    3.5,    0.7,    3.7,    4.9,    4.4,    6.2,    6.8,    5.0,    1.1,    0.2,    3.0,    5.4,    3.2,  999.0,    0.9,   -4.6,   -5.9,   -6.9,   -3.1,   -4.8,   -5.2
1992/02/19 06:05,   -9.9,   -9.0,   -7.6,   -5.8,   -4.1,   -4.0,   -6.6,   -8.3,   -8.9,   -7.8,   -7.9,   -6.6,   -5.2,   -5.8,   -5.8,   -7.0,   -7.0,   -4.9,   -3.1,   -4.0,   -4.9,   -4.5,   -5.5,   -5.3,   -3.3,   -1.6,   -1.6,   -1.9,   -3.0,   -2.6,    0.4,    1.3,    2.0,    0.9,   -0.0,   -0.3,   -0.6,   -0.4,   -0.3,   -0.1,   -1.9,   -1.2,   -1.7,   -1.9,   -0.7,    0.6,    2.9,    2.9,    2.7,    3.8,    3.8,    2.3,    2.3,    4.8,    6.4,    6.6,    3.2,    0.7,    2.7,    3.1,    2.9,    2.5,    3.8,    4.9,    2.9,    3.0,    2.7,    0.6,    3.2,    4.6,    8.1,    5.3,    6.2,    6.2,    8.4,   11.3,   15.2,   14.4,   14.8,   11.9,   11.4,   15.6,  999.0,  999.0,  999.0,   11.6,   11.9,  999.0,    6.9,  999.0,    3.9,    3.7,    4.6,    5.0,    7.6,  999.0,   -0.3,   -0.8,   -2.6,   -0.2,   -0.8,   -0.2,    2.9,    3.4,    4.7,    4.0,    1.9,    0.3,   -0.9,  999.0,    0.2,  999.0,   -1.9,   -2.4,   -7.6,   -9.1,   -9.4,   -7.6,   -7.0,   -7.2
1992/02/19 06:15,   -8.9,   -8.9,   -8.1,   -6.1,   -4.9,   -5.1,   -6.6,   -8.0,   -9.1,   -8.5,   -8.6,   -7.3,   -5.1,   -6.4,   -6.0,   -6.3,   -7.2,   -7.4,   -4.0,   -3.5,   -5.0,   -6.0,   -6.0,   -5.8,   -4.7,   -2.7,   -2.0,   -2.5,   -2.9,   -2.4,    0.4,    0.8,    1.0,    0.6,   -0.6,    0.8,    0.8,   -0.4,   -0.4,   -0.6,   -1.3,   -3.0,   -1.0,    0.5,   -0.7,   -0.3,    2.4,    2.4,    3.2,    3.8,    5.0,    3.4,    1.9,    4.2,    7.2,    8.9,    5.2,    4.0,    2.4,    4.2,    5.6,    4.6,    5.1,    6.7,    4.9,    3.4,    2.6,    2.4,    4.7,    5.5,    6.0,    5.9,    4.7,    5.1,    8.8,   13.0,  999.0,   13.7,   15.6,   13.2,   11.0,   14.0,  999.0,  999.0,  999.0,   16.0,  999.0,  999.0,  999.0,  999.0,    5.3,    5.7,    4.4,    5.7,    4.1,   -0.8,   -0.3,   -2.1,   -1.5,   -1.9,   -4.7,   -2.7,    0.3,    1.7,    5.1,    6.1,    2.4,   -0.4,   -0.4,  999.0,  999.0,    1.7,  999.0,  999.0,   -6.5,   -9.7,   -8.7,   -4.5,   -2.3,   -5.9
1992/02/19 06:25,   -8.4,   -9.4,   -8.8,   -8.3,   -6.4,   -5.0,   -6.3,   -7.3,   -8.4,   -8.0,   -7.9,   -7.9,   -5.7,   -5.4,   -5.9,   -6.6,   -7.6,   -7.9,   -5.9,   -4.2,   -5.8,   -6.7,   -6.7,   -5.7,   -4.3,   -1.7,   -1.9,   -1.4,   -2.0,   -1.9,    0.7,    1.3,    1.9,    1.2,   -0.5,    0.5,    0.5,   -0.1,   -0.8,   -0.8,   -3.0,   -2.3,   -1.0,   -0.7,   -0.5,   -1.2,    0.3,    2.8,    3.0,    3.7,    4.1,    2.4,    1.4,    3.0,    6.2,    5.0,    2.9,    2.7,    2.3,    5.3,    4.3,    5.0,    4.7,    6.0,    4.4,    3.6,    2.2,    2.8,    1.9,    5.2,    5.2,    3.9,    5.5,    6.5,    9.4,   12.6,  999.0,   16.6,   15.6,   13.5,   10.8,   16.4,   17.0,  999.0,  999.0,   22.4,  999.0,  999.0,  999.0,    5.2,    5.1,    3.7,    4.1,    5.9,    4.3,  999.0,   -1.9,   -3.5,   -2.0,   -0.5,    2.1,   -3.9,    2.6,    4.2,    7.0,    7.1,    4.1,    1.0,   -1.6,  999.0,  999.0,    2.3,   -3.5,   -8.7,  -10.9,  -10.4,   -8.0,  999.0,   -3.6,   -5.7
1992/02/19 06:35,   -9.6,   -9.9,  -10.3,  -10.7,   -7.6,   -5.2,   -6.2,   -8.1,   -8.2,   -7.8,   -7.8,   -8.3,   -7.2,   -5.4,   -6.6,   -6.3,   -7.1,   -7.7,   -6.4,   -5.4,   -5.4,   -5.5,   -6.4,   -5.8,   -4.2,   -1.9,   -1.5,   -2.0,   -2.2,   -2.7,    0.9,    2.3,    2.3,    0.5,    0.9,    0.3,    0.3,   -0.6,   -0.3,   -1.4,   -2.4,   -0.7,    0.4,    0.4,   -0.3,    0.1,    0.9,    2.5,    4.1,    4.2,    2.5,    1.4,    0.7,    3.6,    6.4,    6.5,    3.4,    1.8,    3.4,    5.1,    5.9,    5.4,    5.9,    6.2,    2.8,    2.9,    3.0,    2.4,    3.0,    5.5,    4.8,  999.0,    3.5,    6.1,   10.7,   11.4,   12.8,   13.1,   15.1,   12.1,   12.7,   15.4,   23.5,  999.0,  999.0,  999.0,  999.0,   11.5,  999.0,    9.9,    5.1,    4.3,    2.3,    4.1,    3.7,  999.0,   -1.0,   -2.8,  999.0,    0.1,   -0.1,  999.0,    1.5,  999.0,    6.4,    4.7,    4.3,   -0.9,    1.8,    0.6,  999.0,    0.5,   -3.0,   -6.9,  999.0,   -7.5,   -5.9,   -3.3,   -0.1,   -2.0
1992/02/19 06:45,   -7.9,   -9.8,   -8.5,   -7.1,   -5.0,   -4.0,   -5.5,   -7.1,   -8.1,   -8.2,   -7.3,   -7.2,   -7.6,   -3.9,   -5.6,   -6.1,   -8.0,   -8.1,   -6.3,   -5.2,   -5.5,   -5.9,   -5.9,   -4.9,   -4.2,   -2.8,   -2.4,   -3.1,   -3.0,   -2.5,    0.5,    1.9,    1.3,    1.4,   -0.4,    0.7,    0.2,   -0.4,   -0.3,   -0.8,   -2.3,   -1.1,    0.3,   -0.8,   -0.5,    0.2,    2.0,    2.9,    4.8,    4.3,    1.9,    0.2,    0.7,    3.0,    3.9,    5.3,    1.4,   -0.2,    2.1,    3.7,    4.7,    5.4,    6.0,  999.0,    5.4,    2.8,    2.6,    0.9,    3.5,    4.5,    4.9,    3.1,    4.8,    4.3,    8.5,    9.4,   12.5,   13.2,   14.4,   13.6,   11.0,   13.1,   17.5,  999.0,  999.0,  999.0,  999.0,   13.3,    8.9,    6.6,    4.0,    2.3,    1.7,    3.3,    4.0,  999.0,   -2.3,   -1.2,   -3.2,  999.0,   -0.3,    1.0,    0.9,  999.0,    7.0,    4.8,    5.8,    2.1,  999.0,    1.9,    3.8,    2.8,  999.0,  999.0,  999.0,  999.0,   -4.5,   -2.6,    0.3,    0.6
1992/02/19 06:55,   -9.0,  -10.0,   -7.3,   -7.5,   -6.1,   -6.0,   -5.8,   -7.6,   -7.6,   -7.9,   -7.8,   -8.8,   -8.8,   -5.6,   -5.6,   -6.7,   -8.2,   -8.4,   -7.8,   -7.2,   -5.4,   -6.4,   -6.6,   -5.0,   -3.7,   -2.6,   -3.1,   -3.5,   -3.9,   -3.8,   -0.7,    1.4,    1.1,    0.9,   -0.9,   -0.7,   -0.6,   -1.8,   -1.6,   -1.9,   -2.9,   -1.5,   -1.7,   -2.5,   -1.8,   -0.0,    1.9,    2.5,    4.6,    3.1,   -0.0,   -0.5,   -0.8,   -0.0,    2.3,    2.5,    1.0,   -1.4,    1.2,    3.3,    6.2,    5.1,    5.3,    4.6,  999.0,    3.0,    1.9,    0.8,    1.9,    4.4,    5.1,  999.0,    4.3,    5.4,    6.1,    9.9,   12.8,   14.1,   15.4,   12.7,   12.2,   16.5,  999.0,  999.0,  999.0,   19.4,   13.7,   14.4,    9.6,    5.8,    4.6,    2.3,    3.4,    2.8,    3.8,   -2.3,   -0.9,   -4.2,   -1.7,  999.0,   -3.6,    1.2,  999.0,    4.7,    6.8,    5.6,  999.0,  999.0,    2.5,    6.1,    0.9,  999.0,  999.0,   -8.0,  -11.0,   -7.6,  999.0,  999.0,   -1.8,   -1.9
1992/02/19 07:05,   -8.9,  -11.0,   -9.2,   -5.7,   -4.6,   -5.4,   -6.2,   -8.4,   -7.7,   -6.8,   -6.8,   -7.4,   -7.4,   -5.0,   -5.4,   -7.4,   -8.4,   -8.9,   -8.3,   -7.3,   -6.8,   -6.6,   -6.0,   -3.7,   -2.5,   -2.8,   -3.2,   -4.4,   -3.9,   -2.0,   -0.5,    2.3,    0.7,    0.1,   -0.3,   -0.4,   -0.9,   -1.4,   -1.3,   -1.4,   -1.8,   -0.1,   -1.7,   -0.8,   -0.5,   -0.8,    0.6,    2.1,    4.9,    3.7,    1.4,    0.3,   -0.7,   -0.0,    2.6,    2.5,    2.0,   -1.3,    1.9,    3.3,    7.2,    7.2,    9.0,  999.0,   -0.9,    3.5,    2.5,    3.6,  999.0,    4.7,    6.2,  999.0,    6.0,    7.0,    7.4,   11.9,   14.5,   16.4,   14.6,   13.4,   16.7,  999.0,  999.0,  999.0,   27.4,  999.0,  999.0,  999.0,    6.3,  999.0,    3.4,  999.0,    6.6,  999.0,  999.0,  999.0,   -2.4,  999.0,  999.0,  999.0,  999.0,  999.0,  999.0,  999.0,  999.0,  999.0,  999.0,  999.0,  999.0,  999.0,    1.3,  999.0,  999.0,  999.0,  999.0,  999.0,  999.0,  999.0,  999.0,  999.0
1992/02/19 07:15,   -9.5,   -8.8,   -6.4,   -4.9,   -4.1,   -5.9,   -6.7,   -7.8,   -7.9,   -7.1,   -7.5,   -8.1,   -9.4,   -5.5,   -5.2,   -5.5,   -7.4,   -8.0,   -7.8,   -6.7,   -6.6,   -6.9,   -6.0,   -5.0,   -3.0,   -3.0,   -3.7,   -4.7,   -3.9,   -2.1,   -0.5,   -0.1,   -0.0,   -0.5,   -1.5,   -1.3,   -0.4,   -2.0,   -2.9,   -1.5,   -0.2,   -0.2,    0.1,   -1.0,   -0.1,    0.2,    1.1,    1.7,    4.8,    4.1,    2.0,    1.6,    0.5,    0.3,    2.3,    3.9,    2.8,   -0.3,    0.7,    5.3,    5.8,    8.0,    7.0,    6.3,    7.6,    4.2,    4.1,    5.1,    4.4,    4.9,    6.2,    4.0,    6.6,    8.6,    6.7,   11.0,   13.3,   12.8,   13.5,   12.4,   15.9,   21.0,  999.0,  999.0,  999.0,   21.9,   15.6,   11.2,    6.5,    1.6,    2.3,    1.4,    3.3,    5.2,  999.0,   -0.2,   -2.0,   -4.4,   -6.4,  999.0,   -3.8,    0.6,  999.0,  999.0,  999.0,  999.0,  999.0,  999.0,  999.0,    7.6,    6.0,  999.0,  999.0,  999.0,  999.0,  999.0,  999.0,    3.8,   -1.5,   -4.9
1992/02/19 07:25,   -7.1,   -6.6,   -4.6,   -4.0,   -4.3,   -6.7,   -7.7,   -8.0,   -7.2,   -6.1,   -7.6,   -8.2,   -8.6,   -4.3,   -4.3,   -5.0,   -6.9,   -7.4,   -6.9,   -6.0,   -6.8,   -6.5,   -6.3,   -4.0,   -2.6,   -3.0,   -3.4,   -4.3,   -3.7,   -1.4,   -0.3,   -0.4,   -0.9,   -0.3,   -3.2,   -1.8,   -3.6,   -2.2,   -2.8,   -0.5,    0.6,    1.0,   -0.2,   -0.7,    0.9,    2.2,    2.2,    2.0,    2.9,    4.9,    2.7,    1.0,    0.9,    0.2,    1.8,    2.9,    2.0,   -1.0,    1.6,    5.0,    5.3,    4.2,    6.7,    4.5,    4.5,    4.9,    3.7,    2.8,    1.4,    5.3,  999.0,    4.5,    7.8,    9.5,  999.0,   10.2,   13.1,   14.7,   15.3,   14.7,   16.9,  999.0,  999.0,  999.0,  999.0,  999.0,  999.0,   10.9,   12.0,    4.6,    1.4,    3.1,  999.0,    1.9,    1.6,    1.4,  999.0,  999.0,   -5.4,  999.0,   -1.8,   -0.3,    3.3,  999.0,    6.6,  999.0,  999.0,  999.0,    3.5,    5.2,    3.1,  999.0,  999.0,  999.0,  999.0,  999.0,  999.0,  999.0,  999.0,    0.2
1992/02/19 07:35,   -8.3,   -5.6,   -5.5,   -5.0,   -5.5,   -5.7,   -6.4,   -6.9,   -6.3,   -6.6,   -7.3,   -8.0,   -6.5,   -5.0,   -5.6,   -5.4,   -7.9,   -9.3,   -8.4,   -7.5,   -7.4,   -6.7,   -6.9,   -5.8,   -3.6,   -3.4,   -3.5,   -4.6,   -4.1,   -2.3,   -0.3,    0.2,   -1.6,   -1.0,   -2.0,   -3.4,   -3.9,   -2.5,   -1.1,    0.5,    1.0,    0.8,   -0.5,   -0.5,    1.4,    3.5,    2.7,    0.2,    4.1,    4.5,    1.6,    1.5,    0.4,    0.4,    0.5,   -0.6,   -2.4,   -0.9,    2.4,    4.6,    3.8,    3.9,    3.9,    2.1,    2.8,    3.5,   -3.5,    1.0,   -0.5,    2.5,    0.5,    1.4,    3.1,    6.8,  999.0,    1.3,    7.6,   11.1,   10.1,   10.9,   13.1,   16.8,  999.0,  999.0,  999.0,   24.4,  999.0,   11.7,    9.8,    6.0,    1.1,    1.4,    3.9,  999.0,  999.0,   -1.7,    1.2,   -8.2,   -6.7,   -6.3,   -3.7,   -3.2,    0.5,  999.0,  999.0,  999.0,  999.0,  999.0,    4.0,    2.2,    2.8,  999.0,  999.0,  999.0,   -6.3,  999.0,  999.0,    6.3,   -0.2,  999.0
1992/02/19 07:45,   -6.6,   -7.5,   -7.2,   -5.3,   -5.8,   -7.2,   -6.7,   -6.9,   -7.4,   -7.1,   -8.0,   -7.8,   -4.9,   -4.3,   -4.5,   -5.3,   -7.9,   -8.4,   -6.8,   -7.0,   -6.0,   -6.8,   -6.0,   -5.2,   -3.4,   -3.4,   -3.6,   -5.2,   -3.5,   -2.0,   -0.1,   -0.3,   -2.3,   -1.5,   -3.5,   -2.6,   -2.0,   -2.8,    0.2,    2.1,    1.5,   -0.7,    0.8,    0.9,    2.3,    3.0,    2.2,    2.6,    4.7,    4.0,    1.4,    0.2,   -2.0,   -1.2,   -0.7,   -0.5,   -3.7,   -1.9,    0.5,    3.6,    2.5,    3.2,    4.1,    4.5,    1.8,    2.4,    0.4,    3.6,    3.2,    2.4,    2.1,    1.9,    2.4,    5.1,  999.0,    5.4,    7.1,    9.2,   11.2,   11.5,   11.7,  999.0,  999.0,  999.0,  999.0,   32.0,  999.0,    6.2,    2.2,    3.7,   -1.9,   -1.8,    1.5,    3.0,    5.2,    2.8,  999.0,  999.0,   -9.1,   -9.9,   -6.9,   -3.8,   -2.2,  999.0,  999.0,   -6.3,  999.0,   -2.7,   -0.4,   -3.8,  999.0,  999.0,  999.0,  999.0,  999.0,  999.0,  999.0,   -2.9,  999.0,   -4.7
1992/02/19 07:55,   -9.1,   -8.1,   -7.3,   -4.9,   -6.0,   -5.9,   -6.7,   -6.6,   -7.0,   -6.7,   -7.6,   -8.3,   -3.9,   -4.2,   -5.0,   -6.3,   -6.9,   -8.5,   -7.3,   -6.9,   -6.7,   -6.1,   -3.9,   -4.6,   -3.4,   -3.6,   -4.1,   -4.9,   -3.5,   -1.1,   -1.1,   -1.0,   -0.5,   -2.8,   -3.7,   -4.4,   -2.0,   -0.7,    1.9,    2.3,   -0.5,   -0.0,    0.6,    1.3,    2.2,    2.3,    1.7,    2.8,    3.9,    3.2,    1.1,   -1.4,   -1.7,   -2.9,   -2.6,   -2.3,   -1.0,   -1.2,    1.5,    2.5,    1.3,    3.3,    5.6,    2.3,    3.1,    1.3,    2.0,    0.8,   -1.1,    2.6,    1.4,    1.2,    2.2,    3.7,    4.6,    3.7,    5.2,    7.3,    9.1,    7.0,   10.0,   14.6,   15.9,  999.0,  999.0,  999.0,  999.0,  999.0,    7.0,    6.7,   -2.8,   -3.5,   -2.8,    1.6,    0.2,    2.3,  999.0,  999.0,   -8.5,  -11.1,   -7.8,   -3.9,   -0.6,    3.1,    6.9,    5.9,    2.7,    0.9,  999.0,    1.3,  999.0,    4.2,   -2.6,   -2.8,  999.0,  999.0,  999.0,    0.4,  999.0,   -5.5
1992/02/19 08:05,   -8.6,   -8.6,   -5.9,   -4.2,   -5.8,   -6.2,   -6.0,   -6.6,   -6.8,   -7.1,   -7.2,   -7.8,   -5.1,   -4.4,   -5.6,   -4.6,   -8.7,   -8.2,   -7.8,   -6.9,   -6.3,   -6.3,   -4.7,   -3.8,   -2.7,   -2.5,   -5.3,   -5.1,   -3.6,   -1.7,   -0.9,   -1.6,   -0.1,   -0.9,   -3.7,   -3.5,   -3.6,   -1.7,    2.5,    1.0,    0.1,   -0.0,    1.2,    2.3,    1.2,    3.0,    2.7,    3.9,    4.4,    1.2,   -0.9,   -2.5,   -1.8,   -2.8,   -1.1,    0.1,   -0.8,    1.6,    2.9,    3.4,    1.2,    2.3,    2.9,    2.7,    4.3,    3.1,    1.7,    1.6,    2.7,    3.4,    2.4,    4.3,  999.0,   10.6,  999.0,  999.0,  999.0,    9.1,  999.0,    7.9,   12.3,   16.4,   19.7,  999.0,  999.0,   18.1,  999.0,  999.0,  999.0,  999.0,    4.8,    0.5,   -0.5,    2.1,    4.7,    1.6,    1.8,  999.0,   -2.0,  999.0,   -4.6,  999.0,    0.4,    1.9,    8.7,    9.4,    5.4,    1.7,    0.9,  999.0,    3.3,  999.0,   -2.6,   -4.8,   -5.0,  999.0,  999.0,  999.0,   -8.3,  999.0
1992/02/19 08:15,   -8.6,   -7.3,   -6.1,   -5.4,   -6.7,   -5.9,   -6.9,   -6.8,   -5.9,   -6.4,   -6.3,   -6.3,   -2.8,   -3.1,   -5.2,   -5.9,   -7.8,   -7.1,   -6.9,   -6.2,   -5.4,   -6.3,   -4.1,   -3.8,   -3.0,   -2.2,   -4.1,   -4.8,   -3.1,   -0.7,    0.2,   -1.4,  999.0,   -1.1,   -2.5,   -2.7,   -2.5,   -1.2,    2.8,    2.7,    1.3,   -0.1,    1.6,    0.4,  999.0,    4.0,    2.0,    4.2,    3.8,    1.1,   -0.9,   -2.2,   -1.2,   -1.0,    1.5,    0.9,    1.6,    3.7,    5.7,    2.6,    2.8,    3.6,    6.3,    3.8,    3.1,    4.1,    3.2,    2.6,    5.4,    2.8,    4.0,    5.5,  999.0,   11.0,    9.9,  999.0,    9.3,   12.9,   12.5,   10.2,   12.3,   16.0,  999.0,  999.0,   17.9,   24.5,  999.0,  999.0,   11.1,   12.1,  999.0,    1.3,    3.4,    2.6,    4.6,    4.3,    3.1,   -1.3,  999.0,   -7.1,   -4.9,   -1.8,    0.3,    3.9,    8.3,    9.8,    9.2,    7.7,    2.1,    4.6,    2.5,    2.8,  999.0,  999.0,   -5.0,   -3.7,  999.0,   -3.0,   -2.9,  999.0
1992/02/19 08:25,   -7.1,   -6.8,   -7.3,   -5.6,   -6.3,   -6.0,   -6.0,   -6.7,   -4.7,   -6.1,   -5.9,   -5.6,   -2.3,   -3.2,   -3.5,   -3.9,   -5.6,   -6.9,   -6.3,   -5.6,   -5.6,   -5.6,   -2.3,   -3.1,   -2.8,   -2.3,   -3.1,   -3.0,   -1.0,   -0.9,    0.4,    0.3,    0.1,   -1.3,   -1.3,   -1.1,   -1.2,    2.0,    5.4,    3.9,    1.6,  999.0,    1.7,    2.4,    1.5,    3.8,    4.6,    4.7,    2.4,    0.1,   -0.6,   -0.5,   -1.1,    0.5,    2.7,    6.1,    0.7,    1.7,    3.2,    2.4,    2.7,    3.3,    4.3,    4.9,    4.6,    3.1,    2.4,    2.2,    4.2,    5.3,    5.5,    5.4,    5.0,    5.4,    6.4,    8.6,    8.7,   10.5,   10.1,    8.1,   10.4,   13.5,   18.8,  999.0,  999.0,   21.8,  999.0,   20.0,  999.0,   11.3,  999.0,    3.1,    1.9,    2.6,    4.8,    2.3,    3.3,    3.8,    0.9,   -3.1,   -3.5,   -1.2,   -0.1,    2.6,  999.0,  999.0,    9.5,    6.2,    3.6,    3.7,    4.0,  999.0,   -2.7,   -2.6,  999.0,   -3.5,  999.0,    1.3,   -0.8,  999.0
1992/02/19 08:35,   -7.6,   -8.6,   -8.2,   -7.1,   -6.3,   -6.4,   -7.0,   -8.2,   -7.2,   -7.8,   -7.1,   -3.8,   -3.7,   -3.3,   -5.3,   -3.9,   -6.9,   -8.4,   -7.2,   -6.6,   -6.1,   -3.8,   -2.3,   -3.2,   -1.4,   -1.9,   -2.5,   -2.4,   -1.3,   -0.0,    0.8,    1.5,    1.1,   -0.1,   -0.8,   -0.8,    0.1,    2.4,    6.8,    5.3,    2.9,    1.8,    3.0,    4.1,    3.8,    4.8,    5.3,    4.0,    2.2,   -0.4,   -0.9,   -1.6,   -0.4,    1.2,    1.6,   -0.1,   -1.0,    1.2,    2.8,    3.2,    4.1,    5.3,    5.6,    6.6,    5.0,    4.1,    3.7,    1.1,    3.9,    4.7,    3.5,    5.1,    4.4,    7.7,    6.4,   11.4,    9.4,    8.1,    7.6,    7.5,    7.3,   11.7,   14.9,  999.0,  999.0,  999.0,   21.0,  999.0,   14.5,    9.7,    4.6,   -0.2,   -1.5,    0.4,    2.3,    2.3,   -1.7,   -5.3,  999.0,   -4.0,   -5.3,   -4.1,   -3.1,    0.6,    3.4,    6.1,  999.0,  999.0,    1.8,    3.1,    4.1,    7.8,  999.0,   -0.1,   -0.3,    2.0,  999.0,  999.0,  999.0,  999.0
1992/02/19 08:45,   -9.9,   -9.4,   -8.1,   -6.9,   -6.3,   -7.1,   -7.9,   -8.1,   -8.6,   -8.4,   -7.2,   -4.4,   -3.3,   -4.5,   -4.8,   -4.5,   -8.4,   -7.9,   -7.5,   -7.5,   -6.1,   -3.1,   -3.7,   -4.1,   -2.3,   -2.1,   -2.4,   -2.0,   -0.6,    0.1,    1.4,    1.9,    0.4,   -0.0,    0.3,   -0.0,    0.9,    4.1,    7.8,    5.8,    6.0,    3.1,    2.6,    5.6,    3.9,    5.2,    5.0,    4.7,    0.7,    0.1,   -2.0,   -4.2,   -1.0,   -2.3,   -1.9,   -1.4,   -0.8,    1.7,    2.1,    3.5,    2.9,    2.3,    3.5,    4.9,    3.1,    2.4,    0.1,    3.3,    2.6,    5.9,    4.2,    4.4,    3.7,    5.1,    5.9,  999.0,    3.8,    7.9,    9.0,    5.5,    6.8,    9.5,   12.4,   14.3,  999.0,   17.1,   18.1,  999.0,  999.0,   10.0,    8.3,   -0.8,   -2.0,    0.6,    2.6,    3.4,   -3.5,   -6.0,  999.0,  999.0,   -4.6,   -4.8,  999.0,    0.7,  999.0,  999.0,  999.0,  999.0,    3.4,  999.0,  999.0,  999.0,  999.0,   -1.6,   -1.0,  999.0,  999.0,  999.0,   -0.1,   -1.5
1992/02/19 08:55,  -10.7,   -8.1,   -7.4,   -6.9,   -7.8,   -8.2,   -8.7,  -10.0,   -9.8,   -8.8,   -6.7,   -3.6,   -4.0,   -5.8,   -6.0,   -4.1,   -7.1,   -8.9,   -5.8,   -5.9,   -4.4,   -3.2,   -3.0,   -2.1,   -0.2,   -1.4,   -1.5,   -0.9,   -0.3,    1.8,    1.4,    1.1,    1.5,   -0.8,    0.1,   -0.1,    0.2,    3.5,    6.8,    6.0,    3.7,    2.9,    3.8,    4.5,  999.0,    5.2,    3.5,    3.2,    1.0,   -2.1,   -3.1,   -7.0,   -5.5,   -4.6,   -3.2,   -2.0,   -3.0,   -0.3,    1.1,    1.6,    2.6,    3.1,    5.5,    3.9,    5.5,    3.4,    4.7,    5.2,    3.0,    4.7,    1.6,    4.5,    5.6,    3.2,    6.6,  999.0,    7.2,    8.2,    7.7,    5.6,    7.8,    8.8,   13.4,   20.0,    8.8,  999.0,  999.0,   18.5,  999.0,   11.0,  999.0,    0.7,    0.6,    0.7,    2.7,    3.1,   -3.1,   -4.2,  999.0,  999.0,   -5.4,   -3.6,   -2.0,    1.0,  999.0,  999.0,  999.0,    6.1,  999.0,    0.4,  999.0,  999.0,  999.0,   -1.8,   -1.6,   -2.1,   -1.5,  999.0,   -2.2,  999.0
1992/02/19 09:05,  -11.2,   -7.7,   -7.3,   -8.0,   -7.5,   -8.5,   -8.9,   -8.8,   -8.4,   -8.0,   -6.1,   -3.5,   -4.3,   -5.4,   -6.4,   -6.1,   -7.5,   -7.0,   -6.8,   -5.7,   -3.7,   -3.1,   -3.7,   -1.8,   -1.1,   -0.7,    0.8,    0.6,    1.2,    3.5,    3.5,    2.1,    2.7,    1.2,   -0.7,    0.1,   -0.6,    2.6,    5.9,    6.5,    2.2,    2.9,    3.8,    6.0,    5.1,    4.9,    3.2,    2.6,    0.2,   -1.8,   -6.2,   -6.5,   -4.8,   -3.1,   -2.5,   -2.1,   -1.7,   -0.9,   -0.3,    0.7,    3.1,    2.8,    4.7,    4.5,    4.5,    3.0,    4.1,    4.6,    2.9,    5.1,    3.9,    2.6,    4.8,    4.2,    4.8,    4.3,    8.6,    7.9,    7.2,    5.5,    6.1,    9.8,   13.6,   18.4,   22.3,  999.0,  999.0,   15.4,   14.1,  999.0,    4.1,    3.3,   -0.1,    1.1,    3.6,    2.2,   -3.7,   -5.7,  999.0,  999.0,   -2.5,   -2.5,   -1.4,  999.0,    2.1,  999.0,    6.2,    7.1,  999.0,    1.4,  999.0,  999.0,   -1.5,   -2.9,   -2.0,    1.0,  999.0,    0.0,  999.0,   -3.5
1992/02/19 09:15,   -8.4,   -7.9,   -6.9,   -7.1,   -7.5,   -8.6,   -9.5,   -8.9,   -8.9,   -8.5,   -7.0,   -4.1,   -3.3,   -5.3,   -5.4,   -6.0,   -7.4,   -7.0,   -5.8,   -6.4,   -4.8,   -2.9,   -4.0,   -2.9,   -2.5,   -1.4,    0.2,   -0.7,    0.3,    1.6,    2.2,    1.7,    1.0,   -0.6,   -1.1,   -0.2,   -0.7,    2.2,    5.9,    6.5,    1.9,    3.4,    4.1,    4.0,    3.0,    0.7,    0.5,   -0.1,   -2.1,   -4.7,   -4.9,   -4.7,   -3.0,   -1.8,   -1.0,   -3.0,   -3.2,   -1.8,   -0.6,    1.4,    3.8,    2.0,    3.7,    4.2,    4.3,    3.2,    4.5,    5.5,    4.9,    4.6,    4.0,    6.7,    8.5,    7.4,    5.5,    6.1,    5.8,    8.4,   10.2,   10.7,    7.5,   10.0,   13.7,   17.1,   20.2,   18.0,   22.2,   13.4,   13.7,   12.0,    3.7,    0.3,    3.6,    0.8,    3.0,   -0.3,   -4.7,   -3.9,  999.0,  999.0,   -1.2,  999.0,   -3.6,  999.0,    5.1,  999.0,    7.4,    3.9,    3.2,    3.5,  999.0,  999.0,    0.6,   -2.3,   -3.0,  999.0,  999.0,  999.0,  999.0,  999.0
1992/02/19 09:25,   -8.5,   -8.3,   -8.3,   -8.1,   -9.2,   -9.3,   -9.2,   -9.3,   -8.7,   -7.7,   -5.9,   -3.3,   -5.0,   -6.8,   -8.5,   -5.8,   -7.7,   -6.6,   -5.7,   -5.3,   -3.3,   -3.1,   -2.9,   -2.8,   -2.1,   -0.4,    0.4,    0.5,    2.0,    2.3,    2.0,    1.5,    1.1,    0.7,   -0.3,    0.8,   -0.4,    2.2,    5.5,    7.1,    2.6,    3.2,    3.9,    2.8,    2.2,    0.4,    0.3,   -2.4,   -4.6,   -6.3,   -6.2,   -3.2,   -2.3,   -2.8,   -5.2,   -2.8,   -1.5,   -0.5,    0.3,    3.0,    4.2,    4.0,    3.2,    2.0,    2.9,    5.5,    4.4,    3.7,    5.1,    4.7,    6.0,    5.4,    8.5,    8.3,    7.5,    8.9,   10.3,    8.8,    8.1,    8.1,    9.6,   11.3,   14.0,   18.6,  999.0,  999.0,  999.0,  999.0,   14.8,   14.2,    6.3,    3.6,    1.4,    3.7,    5.7,    1.6,   -4.3,  999.0,  999.0,  999.0,  999.0,  999.0,  999.0,    2.7,    7.3,  999.0,    8.2,  999.0,    5.9,   -0.7,  999.0,  999.0,    0.5,   -3.6,  999.0,  999.0,  999.0,  999.0,   -1.8,   -4.6
1992/02/19 09:35,   -7.0,   -6.1,   -5.7,   -5.9,   -6.9,   -7.1,   -7.8,   -7.5,   -8.1,   -7.6,   -6.4,   -3.3,   -4.8,   -6.8,  999.0,   -6.7,   -7.8,   -6.4,   -5.7,   -4.8,   -1.7,   -2.9,   -2.9,   -3.2,   -1.7,   -0.8,    1.1,    1.4,    0.3,  999.0,    2.4,    2.4,    2.4,    1.5,   -0.1,    0.8,    0.8,    2.4,    4.8,    6.9,    4.5,    5.4,    5.1,    3.9,    2.5,    0.8,   -1.2,   -3.2,   -5.5,   -6.8,   -5.7,   -2.8,   -2.8,   -3.5,   -4.1,   -0.9,   -2.5,    0.1,    0.5,   -1.0,    1.1,    0.5,    1.1,    2.2,    3.6,    3.8,    5.0,    5.2,    7.9,    5.4,    7.5,    8.8,    8.4,    8.4,    7.8,    7.5,    9.3,    9.5,    8.7,    9.3,    8.1,   10.5,   13.9,   18.6,  999.0,  999.0,   21.0,   21.2,   17.2,   17.1,    7.7,    3.5,    2.7,    4.4,    7.0,    4.9,   -2.0,  999.0,  999.0,  999.0,  999.0,  999.0,    6.1,    0.9,  999.0,  999.0,    6.0,  999.0,  999.0,    3.1,  999.0,  999.0,  999.0,  999.0,   -6.3,   -0.4,  999.0,  999.0,  999.0,  999.0
1992/02/19 09:45,   -6.2,   -5.9,   -5.8,   -6.7,   -7.7,   -7.7,   -7.3,   -7.7,   -7.7,   -7.1,   -5.5,   -4.7,   -4.2,   -6.3,   -2.0,   -5.2,   -7.2,   -6.6,   -5.1,   -5.4,   -1.8,   -2.4,   -3.8,   -4.0,   -2.7,   -0.3,    1.3,    1.2,    1.5,    2.4,    0.8,    0.8,    2.4,    1.8,    1.4,    1.9,    1.2,    1.5,    4.3,    6.9,    5.7,    6.0,    5.5,    4.0,    1.7,   -0.9,   -2.2,   -3.6,   -5.7,   -6.3,   -5.6,   -3.1,   -2.1,   -3.7,   -2.7,   -1.4,   -2.9,   -2.4,   -1.2,    0.4,    1.1,    1.6,    1.1,    3.1,    5.0,    7.3,    7.4,    6.5,    7.0,    9.2,    9.9,    7.2,    8.5,    8.1,    8.1,    9.1,    8.6,    9.1,    7.4,    8.1,    8.4,    9.2,   14.5,   18.2,  999.0,  999.0,   22.2,  999.0,   18.5,   17.0,   12.8,    5.8,    2.3,    4.7,    6.9,    2.8,  999.0,   -2.8,  999.0,  999.0,  999.0,    1.1,    2.3,  999.0,    4.4,  999.0,  999.0,  999.0,  999.0,   -1.1,  999.0,  999.0,  999.0,  999.0,   -5.6,   -3.2,   -0.5,    1.6,   -1.8,  999.0
1992/02/19 09:55,   -5.9,   -6.1,   -6.7,   -7.6,   -7.4,   -7.7,   -8.5,   -8.5,   -9.1,   -8.5,   -7.9,   -5.7,   -5.3,   -7.3,   -6.2,   -5.3,   -6.8,   -7.1,   -5.6,   -4.7,   -2.8,   -2.6,   -4.0,   -4.0,   -2.1,    0.1,    1.8,    1.6,    1.8,    3.9,    4.8,    3.2,    2.6,    2.9,    2.5,    2.6,    2.2,    1.5,    4.2,    6.3,    6.4,    5.2,    4.1,    1.4,    0.6,   -0.8,   -3.6,   -4.1,   -5.0,   -3.5,   -1.9,    0.0,    1.4,    2.3,   -0.0,   -0.7,   -2.4,   -2.3,    0.1,    1.9,    2.7,    3.2,   -0.7,    3.1,    5.3,    5.6,    6.1,    4.6,    4.2,    6.1,    6.6,    4.8,    3.5,    6.0,    6.8,    8.7,    9.8,  999.0,  999.0,    9.6,    8.7,  999.0,   10.5,   12.8,   15.1,  999.0,   17.9,   23.3,   15.4,   13.1,   11.5,    4.5,    3.6,    4.3,    5.3,    2.9,   -0.5,   -3.8,  999.0,  999.0,   -1.2,  999.0,  999.0,  999.0,    5.3,    9.3,  999.0,    5.6,  999.0,    1.2,    4.2,    3.8,  999.0,   -3.3,   -6.1,   -1.5,   -0.5,  999.0,  999.0,   -1.4
1992/02/19 10:05,   -6.5,   -5.0,   -4.9,   -6.2,   -6.2,   -7.9,   -9.2,   -9.0,   -9.5,   -8.5,   -7.3,   -5.4,   -4.3,   -7.4,   -7.3,   -6.1,   -6.8,   -6.8,   -5.4,   -4.6,   -3.1,   -3.2,   -4.7,   -3.8,   -2.5,    0.1,    1.3,    1.5,    2.6,    3.5,    2.1,    3.2,    3.3,    3.5,    2.3,    1.4,    1.6,    1.8,    2.1,    5.7,    6.5,    3.7,    2.3,    0.7,   -0.7,   -3.1,   -5.5,   -4.9,   -5.5,   -3.4,  999.0,  999.0,    1.8,    0.1,    0.1,   -1.3,   -3.8,   -2.7,   -1.3,   -0.5,    1.5,    3.4,    1.9,    3.9,    2.5,    3.3,    5.2,    6.1,    5.5,    6.0,    5.3,    6.3,    6.8,    7.2,    7.1,    9.0,  999.0,  999.0,    9.6,    8.0,    7.2,    7.4,    7.2,   10.2,   14.3,  999.0,  999.0,  999.0,   10.5,   11.6,   10.6,    1.9,    1.5,    3.6,    3.3,    1.6,    2.4,   -5.9,  999.0,   -3.2,  999.0,  999.0,  999.0,  999.0,    4.3,  999.0,    7.7,    7.3,  999.0,    1.8,    2.0,    2.2,  999.0,   -3.3,   -2.8,   -0.8,  999.0,  999.0,  999.0,    3.6
1992/02/19 10:15,   -6.6,   -5.9,   -4.9,   -5.6,   -6.2,   -7.4,   -8.6,   -7.3,   -8.5,   -7.3,   -6.0,   -5.1,   -6.0,   -7.6,   -7.2,   -6.4,   -7.4,   -6.8,   -5.7,   -4.0,   -5.0,   -3.8,   -5.7,   -4.8,   -3.2,   -0.9,    0.7,    1.9,    3.3,    3.3,    1.6,    2.2,    1.2,    1.4,    1.5,    1.6,    1.2,    0.4,    2.9,    5.0,    5.1,    3.4,    2.2,    0.9,   -1.2,   -2.9,   -5.9,   -6.6,   -7.1,   -3.4,  999.0,   -1.1,    0.1,    1.2,   -0.9,   -2.3,   -4.5,   -4.2,   -3.5,   -1.1,    0.1,    2.3,    2.8,    0.1,    3.3,    2.3,    5.4,    5.6,    3.3,    4.3,    5.2,    5.8,    5.8,    6.0,    7.3,    9.5,    8.4,  999.0,  999.0,    8.0,    6.1,    6.2,    7.6,   10.5,   12.6,  999.0,  999.0,  999.0,   16.8,  999.0,   13.5,    3.9,    5.1,    4.9,    4.7,  999.0,   -2.1,   -3.0,   -0.9,   -0.5,    2.1,  999.0,  999.0,  999.0,  999.0,    9.8,  999.0,    7.0,  999.0,    4.8,    3.7,  999.0,  999.0,   -3.8,   -2.6,    1.0,    1.7,  999.0,    1.1,   -0.8
1992/02/19 10:25,   -6.3,   -6.9,   -5.2,   -5.3,   -6.5,   -7.7,   -8.3,   -7.7,   -7.4,   -7.4,   -6.0,   -5.2,   -6.9,   -7.5,   -4.8,   -4.9,   -6.1,   -8.3,   -5.0,   -4.5,   -5.3,   -3.9,   -5.0,   -5.0,   -3.2,   -0.3,    0.4,    1.7,    3.0,    3.3,    3.0,    2.5,    1.4,    1.7,    2.0,    2.9,    0.9,    1.8,    3.5,    6.7,    6.8,    3.8,    3.4,    2.4,    0.4,   -1.7,   -5.3,   -6.3,   -5.2,   -0.4,  999.0,    3.2,   -0.1,    1.6,   -2.0,   -2.4,   -2.5,   -3.1,   -1.2,   -0.5,    0.2,    2.0,    1.0,    0.6,    1.4,    1.7,    4.7,    5.3,    3.8,    5.0,    6.3,    7.0,    5.9,    7.3,  999.0,   10.1,   11.8,  999.0,  999.0,  999.0,    6.9,    4.4,    8.5,    9.7,   14.5,  999.0,  999.0,  999.0,  999.0,  999.0,  999.0,    4.8,    3.1,    3.4,    3.2,    6.1,   -3.3,   -3.6,   -2.2,   -0.6,    0.7,  999.0,  999.0,  999.0,  999.0,   10.5,   12.1,  999.0,  999.0,    5.0,  999.0,  999.0,  999.0,   -0.4,   -1.4,  999.0,  999.0,  999.0,   -2.8,   -1.5
1992/02/19 10:35,   -4.4,   -4.6,   -5.0,   -4.5,   -6.4,   -6.6,   -8.3,   -7.9,   -7.7,   -7.6,   -5.8,   -5.1,   -7.3,   -6.7,  999.0,   -7.6,   -6.8,   -7.6,   -4.7,   -4.8,   -5.3,   -4.7,   -5.4,   -4.6,   -3.3,   -1.8,   -0.3,    0.8,    2.1,    2.3,    2.5,    2.8,    2.9,    2.2,    2.3,    2.0,    2.0,    2.1,    3.9,    6.5,    6.9,    3.9,    1.9,    0.6,   -0.9,   -3.5,   -5.8,   -5.5,   -4.9,   -2.3,   -1.2,   -0.4,   -0.4,    0.7,    1.2,   -0.9,   -3.9,   -4.8,   -2.6,   -1.9,   -1.6,   -1.9,   -0.5,   -1.0,    0.4,    3.5,    4.5,    4.5,    4.9,    5.9,    6.2,    4.8,    4.3,    8.0,    7.3,    7.5,    9.6,  999.0,  999.0,    7.3,    7.4,    6.0,    7.1,   10.0,   16.9,   16.3,  999.0,  999.0,   15.6,   13.1,  999.0,    5.1,    3.2,    3.9,    3.2,    0.1,   -3.0,   -2.3,   -4.5,   -2.2,  999.0,  999.0,  999.0,  999.0,  999.0,  999.0,  999.0,    3.8,  999.0,  999.0,    4.7,  999.0,  999.0,   -3.6,   -2.6,  999.0,  999.0,  999.0,  999.0,  999.0
1992/02/19 10:45,   -5.4,   -3.1,   -5.7,   -5.5,   -5.8,   -6.3,   -6.6,   -6.9,   -7.6,   -6.9,   -6.6,   -5.9,   -7.6,   -7.2,   -4.1,   -5.0,   -6.9,   -5.1,   -5.0,   -4.2,   -3.3,   -4.2,   -4.9,   -4.6,   -3.0,   -1.5,    0.5,    1.2,    1.8,    1.0,    2.8,    1.4,    1.5,    0.9,    1.5,    2.2,    0.3,    2.6,    6.0,    7.1,    6.2,    2.8,    1.2,   -0.2,   -3.2,   -5.3,   -5.8,   -5.3,   -4.7,   -4.1,   -4.2,   -2.9,   -1.9,   -1.7,   -0.7,   -0.5,   -4.1,   -3.6,   -3.1,   -4.3,   -3.7,   -1.0,   -0.1,   -0.5,   -0.2,    5.0,    3.3,    4.7,    4.8,    4.2,    2.6,    3.5,    5.1,    6.8,    5.6,    4.6,    6.8,  999.0,  999.0,    5.0,    5.7,    4.1,    6.0,    6.9,    9.8,   17.9,  999.0,  999.0,   13.3,  999.0,  999.0,    7.9,    4.2,    3.7,    0.9,   -2.4,   -4.6,   -4.4,   -4.1,   -2.9,   -1.6,  999.0,    0.0,  999.0,  999.0,  999.0,    5.7,  999.0,    1.7,   -1.3,   -0.0,  999.0,  999.0,   -8.8,   -5.6,   -2.3,    0.1,   -7.0,   -2.0,   -5.3
1992/02/19 10:55,   -7.4,   -4.0,   -6.9,   -8.1,   -5.7,   -6.9,   -8.1,   -7.9,   -8.1,   -7.1,   -6.9,   -5.6,   -7.1,   -7.6,   -3.3,  999.0,   -6.7,   -7.0,   -4.5,   -4.6,   -4.5,   -5.9,   -5.8,   -3.9,   -4.0,   -0.8,   -0.4,    1.4,    1.6,    1.6,    1.4,    0.1,    1.4,    1.4,    2.0,    2.0,    1.9,    3.8,    6.4,    6.8,    3.6,    2.0,    0.9,   -2.6,   -4.6,   -6.6,   -8.5,   -7.7,   -7.8,   -9.0,   -7.2,   -9.2,   -4.7,   -4.6,   -4.2,   -2.8,   -5.3,   -4.9,   -4.3,   -3.6,   -2.3,   -1.0,   -1.1,   -2.3,   -0.4,    1.4,    2.8,    4.4,    2.9,    2.2,    1.4,    0.6,  999.0,    5.8,    3.8,    6.2,    6.2,    6.5,  999.0,    5.6,    4.0,    3.2,    4.1,    8.9,   10.7,   12.5,   19.0,  999.0,   12.7,   15.9,  999.0,    5.3,    4.5,    2.4,    1.2,   -1.4,   -5.4,  999.0,  999.0,   -1.5,   -2.3,    0.9,   -2.6,    1.5,    3.7,  999.0,  999.0,  999.0,  999.0,  999.0,   -3.1,   -1.9,  999.0,  999.0,   -5.2,   -1.5,    1.0,    2.6,    1.2,   -4.5
1992/02/19 11:05,   -2.8,   -3.1,   -3.2,   -7.4,   -6.0,   -4.9,   -6.7,   -7.3,   -7.5,   -7.2,   -6.7,   -5.8,   -4.5,   -4.0,  999.0,  999.0,   -7.2,   -7.8,   -3.8,   -4.2,   -4.4,   -7.1,   -5.4,   -4.3,   -4.9,   -2.8,    0.2,   -0.6,    0.5,    0.5,    0.7,    1.2,    1.3,    1.0,    2.6,    4.0,    4.1,    6.4,    8.2,    7.5,    5.0,    2.7,   -0.1,   -3.2,   -5.3,   -5.4,   -6.4,   -6.4,   -6.9,   -6.5,   -6.1,   -2.3,   -4.5,   -4.5,   -3.6,   -2.6,   -4.5,   -4.0,   -3.6,   -3.8,   -2.7,    0.2,    2.1,    0.8,    0.7,    2.0,    5.0,    3.5,    5.8,    3.9,    4.2,    1.0,    3.2,    5.8,    3.9,  999.0,    6.5,    9.2,  999.0,    4.7,    4.1,    4.9,    5.6,    8.0,   12.5,   15.0,  999.0,   20.4,   19.1,   15.9,   10.7,    6.9,    4.4,    2.8,    0.6,   -0.4,   -3.5,  999.0,  999.0,  999.0,  999.0,   -4.1,  999.0,  999.0,    3.5,    4.2,  999.0,    5.2,    3.8,   -2.3,  999.0,  999.0,  999.0,  999.0,   -3.4,    0.9,    0.7,    7.1,    2.5,  999.0
1992/02/19 11:15,   -2.3,   -1.9,   -1.3,   -1.3,  999.0,   -5.5,    0.0,  999.0,   -6.1,   -6.6,   -5.7,   -7.1,   -2.9,   -2.9,   -2.0,   -6.6,   -7.3,   -4.8,   -3.0,   -4.2,   -4.5,   -4.9,   -4.2,   -3.6,   -3.5,   -1.5,    0.5,    0.0,    0.6,    0.3,    1.8,    1.7,    1.8,    2.5,    4.2,    3.1,    5.4,    7.9,    9.1,    7.2,    3.6,    1.3,   -0.2,   -2.7,   -4.6,   -5.7,   -6.6,   -7.2,   -7.3,   -4.8,   -2.0,    0.1,   -3.6,   -1.5,   -3.8,   -4.4,   -4.4,   -4.5,   -3.8,   -1.9,   -2.5,    0.8,    2.2,    1.6,    2.0,    3.1,    5.4,    4.8,    1.9,    4.9,    5.0,    6.5,  999.0,    6.5,    5.3,    5.5,    5.2,    7.2,    7.0,    5.6,    4.1,    6.1,    6.7,  999.0,  999.0,   13.7,   19.1,  999.0,  999.0,  999.0,   14.1,  999.0,    5.4,    3.2,    2.5,    0.4,   -2.4,   -4.3,  999.0,    0.3,  999.0,    0.1,   -0.1,    4.1,    6.6,    7.7,  999.0,  999.0,    0.7,  999.0,  999.0,    0.5,  999.0,   -5.6,  999.0,   -0.5,    0.3,    2.7,  999.0,  999.0
1992/02/19 11:25,   -1.2,   -0.5,   -2.0,   -4.7,   -2.7,   -7.1,   -5.9,   -7.2,   -8.0,   -7.3,   -5.8,   -6.2,   -5.0,   -1.5,  999.0,   -5.0,   -7.6,   -5.5,   -4.8,   -3.7,   -6.3,   -5.9,   -3.7,   -4.9,   -3.7,   -1.0,   -1.0,   -1.5,   -0.6,    0.1,    1.0,    2.0,    0.5,    0.5,    2.2,    4.5,    8.0,    8.0,    7.7,    4.7,    2.9,   -1.1,   -2.0,   -5.2,   -6.3,   -6.8,   -6.5,   -6.5,   -6.2,   -4.0,   -3.2,   -2.8,   -4.1,   -3.1,   -3.2,   -4.7,   -6.0,   -5.4,   -4.2,   -4.6,   -3.6,   -1.4,    0.6,    1.3,    0.2,    0.9,    0.7,    3.3,    3.4,    4.2,    3.3,    4.8,    4.1,    6.6,    6.2,    5.0,    5.4,    4.1,    4.9,    5.0,    3.3,    7.4,  999.0,    9.0,  999.0,   13.3,   16.3,  999.0,  999.0,   12.4,   11.4,   10.4,    4.2,    2.6,    1.4,    0.8,   -1.6,   -3.5,   -3.0,    0.3,   -0.3,   -0.6,   -0.2,    4.3,    5.6,    9.5,    7.4,    5.7,  999.0,   -1.5,    3.6,  999.0,  999.0,   -2.2,   -2.8,    0.4,    1.9,  999.0,  999.0,  999.0
1992/02/19 11:35,   -2.3,   -0.4,    7.3,    2.3,   -0.5,   -1.5,   -4.0,   -7.0,   -6.9,   -6.1,   -4.0,   -4.9,  999.0,   -1.7,  999.0,   -5.6,   -6.4,   -5.2,   -4.7,   -5.0,   -7.0,   -6.3,   -6.2,   -6.0,   -4.0,   -1.8,   -2.3,   -2.7,   -1.9,   -0.9,   -0.1,    0.5,    1.4,    1.6,    3.2,    4.8,    6.8,    6.3,    4.8,    1.2,   -0.9,   -3.5,   -5.2,   -6.4,   -6.8,   -7.6,   -8.1,   -7.1,   -6.0,   -3.1,   -2.4,   -1.2,   -2.6,   -2.8,   -2.5,   -3.1,   -5.9,   -5.1,   -4.0,   -3.0,   -5.3,   -0.3,    0.2,    1.0,   -1.0,    0.6,    1.9,    3.3,    5.3,    4.8,    4.9,  999.0,    7.6,    6.4,    6.1,    4.9,    5.4,    4.3,    6.4,    3.6,    6.4,    4.1,  999.0,  999.0,   11.9,   13.3,   15.5,  999.0,  999.0,  999.0,   12.3,   13.4,    0.4,    0.4,   -1.8,   -2.9,   -3.5,   -5.0,  999.0,   -3.3,   -1.2,   -1.6,   -0.1,    2.3,    4.5,   11.2,    7.4,  999.0,  999.0,  999.0,  999.0,  999.0,  999.0,   -1.5,   -2.2,    2.1,    5.3,  999.0,  999.0,  999.0
1992/02/19 11:45,   -4.3,   -2.1,   -1.5,    2.8,   -2.8,   -5.2,   -2.7,   -9.5,   -2.7,   -3.6,   -3.6,   -3.5,   -1.5,   -3.0,  999.0,   -4.8,   -5.7,   -3.5,   -3.7,   -2.5,   -4.8,   -5.7,   -4.8,   -5.1,   -3.3,    0.1,   -1.1,   -0.3,   -0.1,   -1.0,    0.2,    1.3,    2.1,    2.6,    2.7,    6.5,    7.0,    6.7,    3.9,    0.9,   -1.9,   -5.0,   -5.6,   -7.4,   -8.5,   -7.0,   -7.9,   -4.8,   -2.6,   -3.1,   -1.5,   -1.6,   -2.6,   -0.2,   -4.3,   -3.9,   -5.9,   -6.5,   -4.3,   -3.9,   -4.3,   -1.4,    0.8,    0.2,    0.0,    0.8,   -0.3,    2.2,    2.1,    2.9,    2.4,    4.7,    5.8,    6.6,    5.2,    4.9,    4.4,    5.9,    6.2,    5.7,    4.0,    8.6,   11.8,    7.3,   15.4,  999.0,   12.9,   14.3,  999.0,  999.0,   14.5,   12.7,  999.0,    3.0,    1.4,   -0.7,   -4.2,   -5.4,   -4.5,   -1.7,   -0.5,   -0.5,    0.6,    2.6,    7.1,  999.0,    8.5,    5.3,  999.0,   -1.9,   -2.9,    1.1,  999.0,   -4.7,   -4.1,    0.3,    3.1,    3.7,  999.0,  999.0
1992/02/19 11:55,   -3.0,   -1.6,   -1.4,   -1.6,   -2.1,   -3.2,   -4.6,   -8.0,  -10.5,   -7.7,   -5.5,   -4.3,   -3.9,  999.0,   -5.3,   -6.2,   -5.5,   -4.7,   -3.8,   -4.4,   -5.5,   -4.5,   -4.7,   -4.9,   -0.5,   -0.9,   -1.7,   -0.5,   -0.5,   -1.3,   -1.4,    0.9,    2.8,    4.5,    5.3,    7.2,    7.2,    5.5,    1.4,   -0.1,   -3.7,   -6.1,   -7.1,   -7.8,   -7.5,   -5.2,   -5.2,   -3.3,   -2.1,   -1.2,   -1.8,   -1.9,   -3.2,   -2.9,   -4.0,   -4.2,   -5.1,   -6.9,   -4.1,   -3.1,   -2.7,    0.7,    1.7,   -0.6,    2.0,    0.1,    3.4,    2.1,    2.9,    2.0,    3.6,    5.0,    5.7,    5.4,    8.3,    5.0,  999.0,    3.4,    8.4,  999.0,  999.0,  999.0,  999.0,  999.0,  999.0,  999.0,  999.0,  999.0,  999.0,  999.0,  999.0,   10.3,  999.0,    0.9,   -1.5,   -3.5,   -4.9,   -7.0,  999.0,   -4.5,   -2.4,  999.0,   -0.3,    0.6,    3.5,  999.0,    8.6,    4.4,    4.2,  999.0,    0.9,  999.0,   -1.9,   -3.5,   -2.2,    2.3,    3.1,    4.6,   -2.4,   -2.5
1992/02/19 12:05,   -1.3,   -1.0,   -2.5,   -2.6,   -4.7,   -6.6,   -4.5,   -5.0,   -5.3,   -1.9,   -3.1,   -2.6,   -1.7,  999.0,   -3.8,   -4.0,   -5.4,   -4.8,   -3.0,   -1.7,   -5.0,   -3.2,   -3.5,   -3.6,   -0.2,    0.3,   -1.4,   -0.6,   -0.0,   -0.7,   -0.2,    1.4,    2.3,    3.6,    4.6,    7.2,    6.6,    3.4,    0.3,   -1.4,   -3.2,   -4.8,   -7.1,   -5.7,   -6.2,   -4.2,   -3.0,   -1.5,   -1.3,   -0.3,    1.2,    1.1,   -1.0,   -1.1,   -3.4,   -2.1,   -2.9,   -5.0,   -4.9,   -3.0,   -2.9,   -1.2,    0.7,    0.5,   -1.5,   -0.7,   -0.1,    1.2,    2.7,    2.3,    4.3,    4.1,    3.2,    4.4,    4.1,    2.2,    6.7,    6.3,    6.7,    8.2,    7.2,    9.0,   10.8,   12.6,   16.2,  999.0,   14.0,   18.0,   13.8,   12.3,    8.7,    6.4,    5.3,   -1.7,   -3.1,   -4.7,   -8.0,  -10.0,   -9.5,   -6.1,   -3.4,  999.0,  999.0,   -0.7,    2.1,    7.3,    7.1,    6.5,    2.9,  999.0,  999.0,   -0.9,   -2.7,   -3.9,   -2.0,   -0.4,    1.3,  999.0,  999.0,   -1.1
1992/02/19 12:15,   -2.4,   -3.9,   -4.4,   -5.3,   -7.4,   -5.4,   -5.6,   -2.3,   -4.3,   -3.6,   -4.5,   -1.9,   -3.3,   -2.3,  999.0,   -3.8,   -3.8,   -3.2,   -2.1,   -1.7,   -3.3,   -3.9,   -3.1,   -3.2,   -0.5,   -1.8,   -2.7,   -2.0,    1.3,   -1.4,    0.1,    1.1,    2.0,    3.3,    5.1,    7.7,    6.5,    4.0,    1.3,   -1.0,   -2.6,   -4.4,   -6.1,   -6.0,   -6.0,   -5.0,   -2.9,   -1.0,    0.6,    2.4,    1.2,    3.0,   -1.8,   -0.6,   -2.0,   -2.2,   -2.5,   -3.4,   -4.4,   -4.9,   -2.8,   -0.6,    1.5,   -0.0,   -0.6,   -1.8,    1.7,    1.0,    2.5,    2.3,    4.1,    3.3,    3.0,    4.0,    3.7,    4.3,    3.0,    6.5,    5.6,    6.3,    4.4,    6.3,    9.4,   16.3,   13.9,  999.0,   14.9,   16.5,   14.7,  999.0,    8.9,    7.8,    3.6,   -1.2,   -5.0,   -7.1,   -8.4,  -12.6,   -9.4,   -8.3,   -4.4,   -1.0,  999.0,    3.4,    4.3,    6.3,    8.4,    6.8,    5.4,    6.8,  999.0,    2.8,    2.6,   -0.1,   -1.8,    0.5,    4.4,  999.0,  999.0,  999.0
1992/02/19 12:25,   -1.3,   -1.5,   -2.2,   -2.1,   -3.6,   -6.4,   -7.3,   -8.1,   -7.1,   -5.7,  999.0,   -4.1,  999.0,   -1.8,   -2.6,   -5.1,   -6.5,   -4.7,   -2.8,   -2.2,   -3.2,   -3.6,   -4.7,   -3.6,   -1.7,    1.2,   -2.0,   -3.1,   -2.1,   -1.8,   -0.2,    1.0,    1.7,    1.9,    4.4,    5.4,    5.0,    3.3,   -0.3,   -3.4,   -4.3,   -5.7,   -5.6,   -6.6,   -6.1,   -4.5,   -1.9,   -1.3,    2.4,    2.7,    1.8,    3.4,   -8.2,    0.9,    0.2,   -1.0,   -2.2,   -3.6,   -5.7,   -5.8,   -4.2,   -2.3,    0.0,   -2.8,   -1.7,   -2.9,   -1.3,    1.8,    1.3,    2.1,    4.2,    3.6,    0.6,  999.0,    1.4,    2.8,    7.2,    6.0,    4.9,    7.4,  999.0,    9.0,    7.6,   11.5,   15.3,  999.0,   13.4,  999.0,    9.8,  999.0,    6.2,    9.8,  999.0,   -5.4,   -2.4,   -6.0,   -9.3,   -8.2,   -9.3,   -7.1,   -4.7,   -1.8,  999.0,  999.0,    2.5,  999.0,    7.5,    6.1,    4.1,  999.0,    4.7,    2.2,    2.5,    0.3,   -1.3,    2.9,    4.5,  999.0,  999.0,  999.0
1992/02/19 12:35,   -1.9,   -1.2,   -0.4,   -1.0,   -1.8,   -2.5,   -4.5,   -8.1,   -8.0,   -6.4,   -6.5,   -3.0,   -2.6,   -2.4,   -2.8,   -2.6,   -4.1,   -3.2,   -2.0,   -1.1,   -1.5,   -3.1,   -3.2,   -3.0,   -1.3,    1.0,    1.4,   -1.4,   -1.4,    0.5,    0.1,    1.9,    1.4,    1.2,    2.5,    3.1,    4.4,    2.7,    0.3,   -2.2,   -3.3,   -4.1,   -3.9,   -4.9,   -4.1,   -3.2,   -3.7,   -3.6,   -2.2,   -1.2,   -0.9,    1.3,    2.1,    1.6,    1.5,   -0.2,   -1.3,   -2.6,   -5.5,   -5.5,   -4.8,   -3.1,   -1.0,   -1.1,   -3.9,   -5.0,   -3.1,   -0.6,   -0.2,   -0.5,    2.5,    0.8,    0.9,    1.2,    1.7,    1.3,    3.7,    3.8,    5.6,    5.1,    6.2,    7.5,    9.8,   10.8,  999.0,  999.0,  999.0,  999.0,   12.3,   10.0,  999.0,  999.0,    7.5,    4.3,    0.8,   -3.3,   -6.9,   -7.2,   -7.5,   -6.3,   -4.8,   -3.3,  999.0,  999.0,    2.1,    6.7,    6.5,  999.0,    2.8,  999.0,    4.4,    5.1,  999.0,   -1.5,  999.0,  999.0,  999.0,  999.0,  999.0,  999.0
1992/02/19 12:45,   -1.1,   -1.0,   -2.8,   -2.3,   -5.7,   -6.2,   -8.0,   -8.1,   -7.6,   -6.9,   -5.8,   -0.8,   -1.3,   -2.5,   -1.5,   -5.0,   -4.3,   -3.2,   -0.8,   -2.1,   -2.7,   -2.7,   -3.8,   -3.0,   -0.4,   -0.3,   -2.1,   -1.4,   -0.1,    0.2,    0.5,    0.7,    1.1,    2.1,    3.8,    4.0,    3.2,    0.6,   -1.7,   -2.8,   -4.6,   -5.5,   -5.8,   -8.2,   -8.2,   -9.1,   -9.2,   -8.1,   -4.4,   -1.8,   -0.4,   -0.6,    0.8,   -1.0,   -2.1,   -1.2,   -2.9,   -5.5,   -6.4,   -4.9,   -5.0,   -5.2,   -2.8,   -4.5,   -4.7,   -3.6,   -1.0,    1.3,    1.3,    3.1,    3.6,    3.2,    2.7,    3.1,    1.9,    6.5,    4.7,    7.1,    8.1,    7.7,    7.4,    7.3,    7.3,    9.8,   13.2,   14.2,  999.0,  999.0,   13.4,   14.2,   14.1,   11.0,   10.2,  999.0,    1.6,  999.0,   -2.9,  999.0,   -8.2,   -6.0,   -2.9,   -0.8,  999.0,  999.0,    3.8,    8.5,  999.0,  999.0,  999.0,  999.0,    9.4,  999.0,    3.0,    0.2,    1.4,  999.0,  999.0,    0.8,   -6.3,  999.0
1992/02/19 12:55,   -1.6,   -2.2,   -3.9,   -4.5,   -4.2,   -2.9,   -5.2,   -7.0,   -5.8,   -5.0,   -3.7,   -0.7,   -2.3,   -1.7,   -1.9,   -4.9,   -5.1,   -3.6,   -1.7,   -2.5,   -3.7,   -2.9,   -2.4,   -0.8,    0.5,   -1.5,   -2.2,   -0.9,    0.7,    1.4,    1.5,    1.2,    1.9,    1.5,    3.1,    4.7,    3.0,   -0.1,   -1.3,   -3.4,   -4.2,   -7.1,   -7.0,   -9.1,   -9.2,   -9.3,   -7.7,   -3.4,   -1.4,   -2.0,    1.8,    3.8,    2.9,    0.5,   -0.8,   -2.9,   -3.9,   -4.4,   -7.9,   -9.0,   -6.2,   -4.4,   -3.2,   -9.0,   -9.4,   -5.6,   -0.1,   -0.7,    0.2,    0.1,    2.9,    2.7,    2.6,    3.2,    3.4,  999.0,    3.3,    6.7,    6.5,    7.4,    8.3,    6.2,    5.4,    9.6,   12.0,   12.0,  999.0,  999.0,   10.0,   13.0,   12.7,    7.1,    7.0,   -1.8,   -2.1,  999.0,  999.0,   -8.4,   -7.2,   -6.5,   -3.3,    0.6,  999.0,   -0.6,    1.7,    8.3,  999.0,  999.0,  999.0,  999.0,    7.4,    9.8,  999.0,    2.7,    0.6,    5.0,  999.0,  999.0,  999.0,  999.0
1992/02/19 13:05,   -1.2,   -1.1,   -1.7,   -0.5,   -1.7,   -4.6,   -6.0,   -7.5,   -7.4,   -5.8,   -4.8,   -0.6,   -1.9,   -1.7,   -1.0,   -4.5,   -5.0,   -2.9,   -2.3,   -3.2,   -3.1,   -4.7,   -4.2,   -5.0,    0.0,   -1.2,   -1.4,   -1.2,   -6.7,    1.3,    1.8,    1.2,  999.0,    1.1,    5.7,    4.4,   -3.0,   -4.0,   -1.4,   -6.7,   -8.1,   -4.3,   -6.7,  999.0,   -5.4,   -9.6,   -5.5,   -1.3,   -1.7,    2.9,    4.6,    5.7,    2.1,    5.0,    2.3,    0.4,   -1.5,   -3.8,   -6.0,   -6.6,   -6.0,   -3.9,   -2.2,   -5.7,   -5.9,   -4.2,   -4.0,   -1.0,    1.9,    1.7,    3.2,    3.6,    3.9,    3.9,    3.8,    3.0,    3.5,    8.3,  999.0,    7.7,    9.1,    7.5,    7.7,    7.2,   18.0,   11.6,   13.8,   12.9,   13.8,   14.1,   14.4,    9.5,    6.3,  999.0,   -6.6,   -3.0,  999.0,   -6.1,   -7.4,   -6.1,  999.0,  999.0,  999.0,    2.7,    4.0,  999.0,    7.8,    5.4,    4.7,    7.3,    6.4,    7.5,    6.9,    2.2,   -0.2,    3.9,    5.7,    3.7,   -1.2,   -2.6
1992/02/19 13:15,   -1.4,   -2.4,   -3.7,   -4.6,   -5.5,   -6.3,   -8.6,   -8.5,   -6.2,   -4.5,   -3.8,   -3.4,   -2.2,   -1.0,   -0.9,   -3.0,   -2.8,   -2.2,   -0.5,   -1.6,   -2.5,   -3.2,   -2.4,   -1.3,   -1.0,    0.2,   -1.5,   -1.8,   -0.4,    1.1,    1.7,    2.4,    1.0,    0.9,   -0.5,   -2.1,   -3.6,   -5.1,   -6.4,   -7.4,  -10.0,  -10.2,  -11.3,  -12.5,  -10.1,   -6.5,   -2.1,    0.0,    0.9,    1.0,    2.1,    1.4,    4.1,    3.7,   -0.3,   -1.1,   -2.6,   -6.3,   -6.5,   -6.2,   -4.6,   -2.8,   -2.8,   -5.7,   -6.9,   -3.7,    0.3,   -0.7,   -0.6,    0.0,    2.5,    2.6,    4.6,    3.6,    4.6,    4.7,    4.8,    6.1,    8.9,    8.7,    8.0,  999.0,    5.8,    7.3,   10.5,  999.0,   13.8,   15.4,   13.6,   13.6,   11.3,   12.0,    7.0,    5.9,   -0.1,   -2.1,  999.0,   -7.3,   -5.0,   -5.1,  999.0,  999.0,  999.0,    2.6,    4.0,    6.4,    8.9,    8.0,  999.0,  999.0,  999.0,  999.0,   12.3,    1.0,   -0.8,    2.8,  999.0,  999.0,  999.0,  999.0
1992/02/19 13:25,   -2.6,   -4.9,   -3.5,   -4.0,   -6.3,   -8.4,   -7.6,   -6.8,   -6.3,   -3.6,   -3.7,   -2.8,   -1.7,   -0.2,   -2.8,   -3.3,   -1.1,   -0.4,   -0.9,   -0.4,   -1.2,   -0.3,   -1.5,   -1.6,    3.0,    0.3,   -1.3,   -0.7,    0.3,    2.1,    3.1,    3.1,    2.8,    0.6,   -1.5,   -2.7,   -4.0,   -5.8,   -9.0,   -9.5,  -10.6,  -12.0,  -12.4,  -12.0,   -7.8,   -4.3,   -1.6,   -0.3,    1.6,    2.9,    2.1,    2.5,   -0.0,    1.1,    0.6,   -1.2,   -3.1,   -5.0,   -6.4,   -7.5,   -5.0,   -3.1,   -1.4,   -5.4,   -4.6,   -1.9,   -1.1,   -0.4,    0.4,    0.4,    1.8,    2.9,    3.2,    4.8,    5.6,    6.0,    5.3,    6.4,    9.2,    9.0,    9.5,  999.0,  999.0,    7.2,  999.0,  999.0,  999.0,  999.0,   12.4,  999.0,   12.5,   13.1,    9.1,  999.0,  999.0,    0.7,  999.0,  999.0,   -7.2,   -5.5,  999.0,  999.0,  999.0,    2.5,    3.4,    3.6,  999.0,  999.0,  999.0,  999.0,    5.5,    7.7,  999.0,    3.5,   -0.7,  999.0,  999.0,  999.0,  999.0,  999.0
1992/02/19 13:35,   -2.9,   -2.7,   -4.0,   -5.7,   -6.9,   -8.1,   -7.3,   -6.2,   -5.8,   -2.2,   -2.9,   -1.7,   -0.7,    0.7,   -3.2,   -2.9,   -1.8,   -1.1,   -0.2,   -0.2,   -0.5,    0.9,    0.4,    1.2,    1.4,    1.6,    2.0,    1.3,    2.4,    2.5,    3.0,    2.8,    3.7,    2.8,    0.8,   -1.5,   -4.5,   -6.0,   -8.8,  -11.2,  -12.6,  -13.5,  -11.9,   -8.9,   -5.5,   -4.1,   -1.6,   -1.7,   -1.2,   -0.4,   -0.9,   -3.2,   -1.4,    0.6,    0.5,   -0.3,   -3.2,   -5.6,   -6.0,   -7.5,   -5.1,   -3.6,   -3.6,   -4.5,   -5.2,   -3.8,   -0.2,    0.0,   -0.8,   -0.3,   -0.3,    2.3,    3.5,    4.3,    4.4,    5.1,    5.1,    6.6,    7.9,    8.7,    9.9,    6.4,    8.6,    8.4,    7.2,  999.0,  999.0,  999.0,  999.0,   12.9,   13.9,   13.6,    9.4,    2.8,    2.7,   -0.5,   -2.6,   -4.5,   -5.8,   -4.7,   -5.3,  999.0,    2.1,    2.3,    3.4,    6.2,    4.8,  999.0,  999.0,    7.3,    7.4,    9.2,  999.0,    2.6,    1.6,    0.8,    4.6,    4.9,  999.0,  999.0
1992/02/19 13:45,   -3.9,   -4.4,   -4.8,   -6.3,   -7.0,   -6.7,   -6.2,   -5.5,   -4.5,   -3.1,   -2.1,   -1.9,   -1.7,   -1.3,   -2.9,   -3.0,   -1.1,   -0.7,   -0.8,   -0.3,   -0.2,   -1.0,    0.5,    1.3,    1.0,    2.5,   -0.1,   -0.7,   -0.1,    1.1,    1.8,    2.0,    2.1,    1.5,   -1.2,   -3.5,   -5.8,   -8.5,  -10.6,  -12.2,  -12.0,   -9.6,   -8.3,   -4.3,   -1.5,   -1.8,   -0.2,   -1.1,    0.6,    1.5,   -2.0,   -2.6,   -0.0,    1.1,   -0.2,   -1.4,   -2.8,   -3.3,   -5.3,   -5.9,   -6.6,   -4.9,   -2.7,   -3.4,   -5.0,   -2.9,    0.3,    0.9,    0.7,    0.5,   -0.2,    3.1,    4.8,    6.0,    3.7,    4.0,    3.3,    3.9,    5.6,    8.7,    5.6,  999.0,    8.4,    9.2,    7.7,  999.0,    7.8,    8.1,  999.0,   10.3,   14.4,   13.3,    7.5,    6.3,  999.0,  999.0,   -3.8,   -5.3,   -4.3,  999.0,  999.0,  999.0,    2.5,    3.2,    5.5,    5.4,    9.0,  999.0,  999.0,    8.4,  999.0,  999.0,    6.9,    2.4,    0.2,    1.3,    3.6,    2.1,  999.0,  999.0
1992/02/19 13:55,   -3.5,   -4.4,   -4.5,   -5.6,   -6.5,   -5.8,   -5.8,   -4.9,   -4.4,   -1.8,   -1.8,   -1.1,   -0.4,    0.2,   -2.4,   -1.8,    0.2,    0.8,    1.1,    0.2,    0.5,    0.7,    0.0,    1.8,    1.3,    4.3,    1.0,    0.3,    1.2,    1.6,    1.8,    2.8,    2.4,    1.2,   -1.7,   -3.5,   -6.0,   -7.2,  -10.1,  -10.8,   -9.5,   -5.0,  999.0,    0.1,    0.9,    1.6,    5.9,    4.7,    5.0,    4.8,    6.2,    7.1,    4.8,    5.4,    5.5,    1.7,   -0.2,   -3.8,   -3.7,   -4.4,   -6.2,   -1.7,    0.3,   -2.4,   -3.8,   -1.4,   -1.5,    0.5,    0.6,    0.4,    0.8,   -0.0,    2.2,    2.2,    2.5,    3.1,    1.9,    2.7,    3.8,    4.8,    5.9,    6.2,    7.0,    9.5,    8.5,    7.2,    8.6,    7.5,   10.1,  999.0,   12.1,   12.4,   10.8,    4.6,    7.8,    0.7,   -1.8,   -4.9,   -5.3,   -4.5,    0.8,  999.0,    2.3,    3.0,    4.0,    3.2,  999.0,    2.2,    7.7,   10.4,   10.8,   11.7,    9.3,    3.9,    1.7,    2.6,    3.4,    0.2,   -3.4,  999.0
1992/02/19 14:05,   -4.2,   -5.0,   -6.3,   -7.7,   -7.9,   -8.3,   -7.5,   -6.0,   -4.8,  999.0,   -3.5,   -1.5,   -1.3,   -1.8,   -2.7,   -1.0,    0.8,   -0.1,   -1.0,   -1.0,   -0.9,   -1.7,   -0.9,    1.4,    2.3,    4.2,    1.6,   -0.1,   -0.2,    0.8,    1.5,    3.0,    2.6,    0.6,   -2.6,   -4.9,   -6.4,   -9.2,  -11.1,  -12.4,  -10.7,   -7.9,   -3.8,   -1.8,    1.3,    3.1,    1.8,    1.8,    1.2,    0.3,   -1.7,    0.2,    1.1,    1.3,    2.0,    2.5,    1.8,   -3.8,   -5.1,   -3.4,   -5.9,   -2.4,   -1.4,   -2.9,   -3.7,   -2.8,   -0.3,    0.7,    0.3,    1.4,    0.5,   -0.2,   -0.3,    3.0,    2.1,    4.3,    3.7,    2.7,    5.1,    6.2,  999.0,    2.1,    7.4,    6.8,    9.6,    8.4,    7.0,    6.4,    8.8,   11.6,   10.9,   14.9,   13.2,    6.9,    5.1,    1.5,    0.1,   -2.7,   -4.7,   -3.3,   -1.9,  999.0,  999.0,  999.0,    1.5,  999.0,  999.0,    3.3,    3.3,    7.5,    9.4,   10.7,   10.3,    2.8,    3.2,    3.5,  999.0,  999.0,   -2.9,  999.0
1992/02/19 14:15,   -5.0,   -5.8,   -7.0,   -6.6,   -6.3,   -7.2,   -7.2,   -5.6,   -4.4,   -4.2,   -3.0,   -1.3,   -1.6,   -3.0,   -3.1,   -0.1,    0.5,    1.2,   -0.8,   -1.0,    0.3,   -0.4,    0.7,    2.1,    4.8,    4.9,    2.3,   -0.7,   -0.8,    0.0,    1.5,    2.4,    2.2,   -1.3,   -3.7,   -6.5,   -9.1,  -10.6,  -12.5,  -12.7,   -9.4,   -5.5,   -3.8,   -2.6,    0.3,    1.7,    0.3,    2.6,    2.5,    2.1,    2.1,   -0.1,    0.9,   -1.5,    0.4,   -1.8,   -2.7,   -3.4,   -4.4,   -3.2,   -5.1,   -3.1,   -3.8,   -2.4,   -1.5,   -0.2,   -0.7,    2.0,   -1.9,    1.1,   -1.9,   -0.2,    1.1,    2.1,    2.4,    2.5,    3.1,    4.8,    5.7,    8.5,    7.3,  999.0,    8.7,    5.0,   12.3,   11.5,   11.4,   10.1,    6.1,   12.0,  999.0,   14.5,   15.5,    8.9,    8.0,  999.0,   -1.6,   -2.6,   -6.0,   -4.9,   -2.6,  999.0,  999.0,    0.6,    0.3,  999.0,  999.0,    2.1,    5.9,    5.8,    8.2,    8.0,    7.3,    1.2,    0.5,    1.9,   -3.1,   -1.4,   -0.4,  999.0
1992/02/19 14:25,   -4.3,   -5.4,   -5.8,   -5.8,  999.0,   -4.8,   -5.3,   -4.2,   -4.4,   -2.6,   -1.0,   -0.5,   -0.1,    0.5,    0.0,    0.3,    1.7,    2.8,    2.2,    0.1,    1.7,    1.5,    2.2,    3.3,    5.5,    6.3,    5.3,    2.2,    1.0,    1.4,    2.0,    3.3,    2.7,   -0.5,   -3.0,   -5.4,   -8.4,  -10.7,  -11.9,  -10.5,   -6.8,   -3.1,   -1.0,   -1.0,    1.9,    2.3,    3.4,    1.9,    6.6,    7.8,    5.2,    3.2,    0.8,    4.0,    2.6,    0.2,   -1.4,   -3.1,   -4.6,   -3.9,   -6.6,   -5.7,   -2.4,   -1.1,   -1.1,    2.6,    1.8,    1.3,   -0.2,   -0.1,   -1.1,   -1.3,    1.6,    1.9,    3.8,    4.9,    3.4,    3.1,    7.2,    7.5,    9.1,   12.1,  999.0,  999.0,   12.4,    9.8,    9.1,    7.1,    6.4,    9.8,  999.0,   14.3,   12.4,   10.2,    6.2,  999.0,   -1.9,   -2.5,   -5.6,   -4.8,   -2.9,   -2.5,   -4.8,  999.0,  999.0,  999.0,    2.6,    6.1,    4.3,    8.2,   10.4,   12.5,   11.4,    8.7,    3.3,    5.0,    5.8,  999.0,  999.0,  999.0
1992/02/19 14:35,   -2.9,   -4.5,   -6.1,   -5.3,   -4.8,   -5.5,   -5.3,   -4.8,   -5.0,   -3.3,   -2.4,   -1.4,   -1.0,   -1.1,   -0.7,    0.2,    0.7,    1.1,    1.2,    0.5,    1.3,    0.7,    2.0,    4.9,    6.3,    6.6,    4.7,    1.6,    1.0,    2.8,    4.0,    4.6,    3.0,   -0.0,   -2.8,   -6.0,   -7.8,  -10.5,  -10.8,   -8.6,   -5.0,   -2.1,    0.0,    1.6,    2.4,    5.1,    0.1,    6.7,    5.3,    6.9,    4.8,    2.6,    3.2,    3.3,    1.4,   -1.8,   -3.0,   -4.5,   -3.9,   -4.0,   -6.2,   -6.3,   -2.0,    0.5,    1.7,    0.1,    3.5,    2.4,    2.2,   -0.4,   -0.7,   -1.6,   -0.6,    1.9,    4.6,    2.5,    4.0,    1.8,    5.8,    7.9,    9.0,   11.1,    8.8,  999.0,   12.1,   13.0,    8.2,    7.1,    6.6,    7.8,  999.0,    8.8,   10.6,    8.0,    5.1,  999.0,   -5.7,   -5.0,   -7.9,  999.0,  999.0,   -9.4,  999.0,  999.0,  999.0,  999.0,  999.0,  999.0,    2.4,    3.9,    6.2,    8.4,    9.6,    8.0,   -2.3,   -1.2,    3.8,  999.0,  999.0,  999.0
1992/02/19 14:45,   -2.3,   -4.3,   -5.1,   -4.9,   -4.3,   -5.4,   -7.4,   -6.7,   -5.8,   -3.6,   -2.2,   -1.4,   -1.2,   -0.9,   -1.1,    1.3,    2.0,    1.2,   -0.4,    0.2,    1.3,    0.7,    2.0,    5.2,    6.2,    5.7,    2.5,   -0.1,    1.5,    3.3,    4.7,    4.3,    2.4,   -0.4,   -3.7,   -6.6,   -8.3,   -9.2,   -8.9,   -5.9,   -4.3,   -2.8,   -0.5,    0.8,    1.0,    3.2,    2.8,    3.9,    2.7,    4.0,    3.7,    3.6,    3.6,    1.5,    0.3,   -3.0,   -3.8,   -8.1,   -6.4,   -5.5,   -6.8,   -5.8,   -1.7,    0.4,    2.9,    4.5,    3.3,  999.0,    2.2,    0.6,    0.5,    0.3,    0.6,    3.9,    3.0,    4.2,    3.5,    4.5,    5.5,    8.4,   10.5,    9.6,   12.8,   10.0,   14.9,   13.0,    8.9,    7.2,    6.1,    9.7,  999.0,  999.0,   11.9,    9.6,    8.0,    5.5,  999.0,  999.0,   -7.3,   -7.6,  999.0,  999.0,   -2.1,  999.0,  999.0,  999.0,  999.0,   -3.3,  999.0,  999.0,  999.0,    2.1,    7.5,    7.7,    3.6,    0.5,    4.3,    2.8,    0.4,  999.0
1992/02/19 14:55,   -3.1,   -4.1,   -5.6,   -5.2,   -5.2,   -5.8,   -7.3,   -7.0,   -4.7,   -4.1,   -2.7,   -2.3,   -2.1,   -1.3,   -0.0,    0.6,    1.4,    1.1,   -0.0,    0.8,    1.1,    0.6,    1.7,    5.5,    6.4,    4.8,    2.3,    1.0,    1.8,    3.9,    5.8,    5.0,    2.4,   -0.2,   -3.4,   -6.1,   -8.1,   -8.6,   -8.3,   -6.8,   -3.6,   -1.4,    0.4,    2.3,    2.2,    4.0,    4.2,    3.8,    1.7,   -0.4,   -2.0,   -1.9,   -6.0,   -8.9,   -9.3,   -7.8,   -5.8,   -8.0,   -6.0,   -3.3,   -6.0,   -5.4,    0.8,    2.6,    2.5,    4.0,    3.8,  999.0,    2.5,    3.7,    0.3,   -0.3,    0.2,    1.5,    2.4,    1.2,    2.0,   -0.1,    3.5,    7.2,    8.1,    9.3,   12.3,   -6.1,   14.4,   14.4,   10.8,    9.8,    8.3,    8.4,  999.0,  999.0,    7.5,    9.6,    6.2,    2.7,  999.0,   -1.7,   -3.6,   -6.8,   -5.4,  999.0,   -1.8,  999.0,  999.0,  999.0,  999.0,   -2.1,  999.0,  999.0,    6.6,    7.3,    8.5,    7.6,    2.9,   -0.1,    3.5,    3.2,   -1.2,   -2.8
1992/02/19 15:05,   -2.9,   -3.3,   -3.9,   -4.8,   -5.1,   -7.1,   -7.9,   -7.3,   -6.2,   -3.2,   -3.6,   -2.2,   -2.0,   -1.5,    0.8,    1.1,   -0.3,    0.6,   -0.2,    0.5,    0.5,    2.2,    3.5,    6.2,    5.7,    4.3,    1.9,    2.1,    2.9,    4.4,    5.8,    5.5,    2.8,   -1.1,   -3.0,   -6.1,   -8.1,   -8.0,   -7.0,   -5.4,   -3.7,   -0.2,    1.4,    2.9,    4.1,    3.0,    2.3,    0.4,   -1.4,   -3.5,   -4.7,   -9.1,  -10.0,  -12.0,  -14.1,  -11.3,   -9.5,   -9.7,   -4.8,   -1.8,   -5.3,   -5.1,    0.4,    2.2,    6.2,    4.2,    2.1,  999.0,    4.8,  999.0,    0.1,    0.3,    1.4,    1.9,    3.6,   -1.8,    0.2,    0.3,    0.5,    3.0,    9.3,   11.0,   13.1,   12.5,   13.4,   11.9,    9.3,   12.0,    9.9,    9.1,   10.0,  999.0,   10.0,    9.5,    6.3,    3.9,   -0.9,   -3.6,   -3.9,   -6.6,   -4.9,    0.2,   -4.0,   -1.9,  999.0,  999.0,  999.0,  999.0,   -0.2,  999.0,    7.7,    9.4,   10.7,    8.7,    7.0,    3.2,    5.3,    4.9,    2.5,    2.5
1992/02/19 15:15,   -2.3,   -2.7,   -3.7,   -3.9,   -4.8,   -7.3,   -7.4,   -6.6,   -5.2,   -4.3,   -3.7,   -1.1,   -0.9,   -1.2,    0.8,    1.4,    0.6,    0.1,   -0.4,    1.0,    1.3,    0.9,    5.1,    6.9,    4.6,    2.3,    0.3,    1.9,    3.2,    3.9,    6.2,    4.7,    2.4,   -0.7,   -3.6,   -5.7,   -7.1,   -6.1,   -7.3,   -4.7,   -1.2,    0.9,    2.0,    2.5,    3.9,    1.0,   -1.0,   -2.2,   -3.9,   -4.8,   -7.1,   -8.2,   -9.2,  -10.0,  -11.2,  -10.9,   -9.3,   -8.9,   -5.5,   -2.3,   -5.1,   -4.6,   -1.6,    2.5,    5.7,    2.5,    2.3,    3.0,    0.3,    0.9,   -0.1,   -1.4,    1.0,    0.1,    0.2,    2.6,    1.9,   -0.1,    2.9,    4.1,    8.0,    9.4,   11.9,   13.6,  999.0,  999.0,  999.0,   12.1,   12.3,   10.5,  999.0,   10.8,   14.8,   12.6,    9.5,    8.0,  999.0,   -2.0,   -6.3,   -7.0,   -2.4,   -0.2,    0.1,  999.0,  999.0,  999.0,  999.0,  999.0,  999.0,  999.0,  999.0,    5.7,    7.8,    7.7,    3.0,    1.4,    2.7,    3.2,    1.7,  999.0
1992/02/19 15:25,   -2.2,   -3.3,   -3.8,   -3.8,   -4.3,   -7.2,   -7.1,   -8.0,   -6.5,   -5.1,   -3.5,   -1.5,   -2.0,   -1.2,   -0.3,    0.1,    1.2,   -0.3,   -0.2,    0.4,    1.4,    3.9,    6.3,    6.3,    3.7,    1.4,    2.3,    3.0,    3.1,    5.9,    6.6,    5.0,    1.1,   -1.0,   -3.9,   -5.4,   -6.1,   -4.7,   -3.4,   -2.1,    0.9,    2.1,    2.2,    2.0,    1.1,   -0.9,   -1.1,   -2.6,   -5.0,   -6.3,   -6.6,   -7.4,   -8.1,   -9.4,  -12.2,  -14.3,  -12.6,  -10.6,   -9.1,   -4.3,   -5.3,   -4.6,    0.9,    2.3,    4.3,    4.4,    5.0,    4.3,    3.3,    2.4,    2.5,    1.1,    2.3,    2.0,    3.4,    3.5,    2.4,    3.3,    3.8,    6.5,    9.2,   10.0,   11.0,   11.2,   10.9,    7.5,    6.7,   10.0,   12.1,    9.0,  999.0,  999.0,   11.8,   12.3,   10.6,    7.8,    3.3,    0.3,   -1.3,   -3.6,   -0.6,    1.8,    1.7,    4.2,  999.0,    0.9,  999.0,  999.0,  999.0,  999.0,    2.5,    6.3,    9.0,   10.2,    9.5,    1.1,    2.3,    2.3,    1.5,   -0.7
1992/02/19 15:35,   -2.5,   -3.7,   -3.0,   -3.2,   -3.6,   -6.6,   -6.9,   -6.9,   -6.7,   -5.8,   -3.9,   -2.0,   -2.2,   -2.1,   -0.4,    0.0,    0.1,   -0.7,   -0.9,    0.3,    1.6,    5.1,    6.7,    5.1,    2.5,    1.2,    2.0,    4.1,    4.6,    6.4,    6.9,    4.3,    1.5,   -1.5,   -3.1,   -4.9,   -6.4,   -3.9,   -1.5,    0.1,    0.9,    1.6,    1.8,   -3.7,   -2.2,   -6.0,   -4.8,   -5.2,   -5.9,   -5.4,   -6.8,   -4.8,   -5.1,   -9.4,  -10.1,  -12.4,  -13.5,  -12.8,   -8.8,   -5.4,   -3.5,   -5.9,   -0.9,    2.6,    3.9,    5.7,    7.8,    5.3,    4.2,    2.8,  999.0,  999.0,    0.7,    1.9,    2.8,    2.3,    2.8,    2.2,    2.2,    3.0,    7.3,    7.2,    8.8,    8.5,  999.0,  999.0,    9.1,   10.5,    7.3,    8.1,  999.0,    6.5,    7.3,    9.4,    7.5,    2.2,    0.8,   -0.8,   -3.1,   -4.7,   -2.2,    1.5,    2.2,    2.6,  999.0,    0.4,  999.0,  999.0,  999.0,  999.0,    3.7,    7.7,    9.2,   12.3,  999.0,    1.8,    1.4,    1.9,   -0.6,   -3.9
1992/02/19 15:45,   -1.9,   -3.8,   -4.1,   -2.8,   -4.6,   -6.0,   -6.6,   -6.1,   -5.6,   -5.9,   -3.8,   -2.8,   -2.1,   -1.7,   -0.6,   -0.4,    0.6,   -0.7,   -0.3,   -0.3,    0.6,    5.1,    6.8,    5.1,    3.6,    1.9,    3.0,    4.2,    5.2,    7.3,    6.1,    2.7,    0.2,   -1.5,   -4.7,   -6.3,   -6.7,   -2.3,   -2.0,    0.7,   -0.9,   -2.9,   -5.5,   -5.9,   -6.1,   -4.1,   -4.0,   -5.4,   -3.2,   -4.1,   -4.3,   -8.1,   -5.7,   -7.3,   -8.5,  -14.1,  -14.5,  -13.2,  -10.2,   -6.7,   -6.0,   -6.8,   -3.2,   -0.2,    1.1,    2.8,    4.6,    3.8,    2.8,    3.1,    1.4,  999.0,    2.2,    3.0,    2.2,    1.8,    1.2,   -0.3,    0.4,    1.2,    3.1,    5.7,  999.0,  999.0,  999.0,    4.2,    6.0,    7.2,    3.5,    7.0,    7.7,   -3.1,    6.8,    9.5,    6.4,    3.1,   -0.7,   -1.0,   -3.0,   -4.0,   -2.7,   -0.1,    1.6,    1.1,  999.0,  999.0,  999.0,  999.0,  999.0,    5.9,    8.5,   12.3,   13.2,   13.4,   11.0,    7.6,    4.7,    3.9,    2.0,   -1.2
1992/02/19 15:55,   -1.0,   -1.9,   -3.6,   -3.2,   -5.1,   -6.6,   -7.2,   -8.2,   -6.6,   -4.5,   -2.9,   -1.3,   -1.9,   -1.8,   -0.7,   -0.5,    0.0,   -0.8,   -1.1,    0.9,    1.3,    5.8,    5.2,    3.8,    2.2,    0.5,    2.0,    2.6,    4.4,    6.6,    6.9,    2.0,   -0.0,   -2.7,   -4.3,   -5.9,   -4.3,   -3.5,   -1.8,   -2.9,   -3.4,   -5.1,   -4.1,   -5.1,   -3.6,   -5.6,   -1.9,   -0.8,   -1.2,    0.2,   -1.4,   -2.1,   -2.7,   -5.3,   -6.8,  -11.1,  -13.8,  -13.8,  -10.7,   -7.4,   -7.9,   -8.6,   -3.2,   -0.5,   -0.3,    2.4,    3.2,    6.4,    8.0,    3.6,    2.7,    3.0,    2.5,    4.0,    1.7,    3.4,    2.1,    0.6,    0.4,   -0.1,    0.5,    5.4,    6.6,    7.9,    5.8,    5.5,    6.3,   10.2,    7.7,    8.0,    5.4,    5.8,    6.3,    8.3,    8.6,    5.8,    1.1,   -2.2,   -2.8,   -4.0,   -4.9,   -0.1,    2.3,  999.0,  999.0,  999.0,  999.0,  999.0,  999.0,  999.0,    4.4,   10.0,   11.8,  999.0,    8.4,    3.5,    1.4,    1.3,   -0.4,   -2.4
1992/02/19 16:05,   -2.3,   -2.4,   -3.3,   -3.2,   -4.0,   -5.8,   -5.6,   -8.0,   -7.0,   -4.7,   -3.2,   -3.5,   -3.2,   -2.9,   -1.3,   -0.8,   -0.7,   -1.3,   -1.2,   -1.3,    1.5,    3.8,    4.1,    3.3,    0.8,    0.4,    2.3,    2.6,    4.5,    7.5,    7.1,    3.3,    0.0,   -1.9,   -3.8,   -4.5,   -5.6,   -1.7,   -2.3,   -3.2,   -3.5,   -4.5,   -5.0,   -4.7,  999.0,   -1.8,    0.4,    0.8,   -0.9,    1.0,    0.8,   -0.1,    1.2,   -2.1,   -3.1,   -8.5,  -12.2,  -13.8,  -11.1,   -8.2,   -6.3,   -7.7,   -4.2,   -0.9,    2.0,    3.9,    5.9,    7.2,    5.9,    3.5,    3.1,    4.7,    1.7,    4.1,    5.6,    6.1,    5.0,    2.5,   -0.1,    2.8,    2.7,    6.1,    7.3,    8.0,    7.8,   -1.4,    8.2,  999.0,    7.7,    8.7,  999.0,  999.0,    4.9,    7.4,    7.1,    5.6,    3.6,   -0.7,   -1.6,   -3.8,   -3.5,   -0.7,    3.4,    4.9,  999.0,  999.0,  999.0,  999.0,  999.0,  999.0,  999.0,  999.0,  999.0,  999.0,    4.0,   -0.0,    1.7,    0.6,   -2.8,   -2.9
1992/02/19 16:15,   -1.8,   -2.0,   -1.6,   -1.4,   -4.3,   -5.1,   -5.5,   -6.2,   -5.4,  999.0,   -5.0,   -3.6,   -4.4,   -2.1,   -1.3,   -1.9,   -2.0,   -2.1,   -2.1,   -1.2,    1.9,    3.8,    4.0,    2.9,   -0.0,   -0.7,    0.9,    2.2,    4.6,    7.2,    7.2,    3.5,   -0.1,   -0.8,   -3.9,   -5.3,   -6.8,   -5.6,   -4.1,   -5.9,   -5.5,   -4.8,   -1.4,   -1.2,    0.7,    0.5,    4.0,    4.0,    1.8,    2.4,    2.2,    2.0,    0.4,   -1.9,   -3.5,   -4.9,  -10.9,  -14.4,  -12.5,   -9.2,   -7.4,   -7.0,   -4.5,   -0.9,    1.2,    2.5,    5.1,    3.6,    6.5,    5.3,    4.6,    4.5,    4.2,    5.3,    6.9,    5.4,    6.2,    2.9,    2.2,    0.9,    0.6,    3.4,    7.6,    8.4,    7.6,    7.6,    6.2,    7.3,    6.7,    9.9,    9.2,    4.7,    3.8,    4.5,    7.3,    5.7,    5.5,    3.1,   -1.1,   -3.7,   -1.6,    0.2,    5.3,    7.5,  999.0,  999.0,  999.0,  999.0,  999.0,  999.0,  999.0,   13.6,  999.0,  999.0,    4.0,    0.2,  999.0,    4.0,   -1.9,   -3.9
1992/02/19 16:25,   -1.4,   -0.4,    0.1,   -1.2,   -4.7,   -5.2,   -6.0,   -6.1,   -5.5,   -4.3,   -3.4,   -3.5,   -2.4,   -2.0,   -1.4,   -1.8,   -2.7,   -3.0,   -2.7,   -1.1,    3.2,    4.1,    4.1,    2.2,   -0.4,   -0.2,    1.5,    3.1,    5.1,    6.8,    7.0,    4.0,    0.7,   -1.8,   -3.3,   -5.1,   -7.0,   -6.6,   -7.6,   -6.8,   -4.8,   -3.2,   -0.9,    1.1,    1.9,    3.9,    4.6,    4.0,    3.3,    2.1,    2.0,    0.9,    2.0,   -0.6,   -2.5,   -6.5,  -11.1,  -13.1,  -13.6,  -10.5,  -10.4,  -10.5,   -5.2,   -3.1,   -1.0,    2.5,    4.4,    4.5,    4.2,  999.0,  999.0,  999.0,    3.1,    3.5,    5.0,  999.0,    7.0,    3.8,    1.5,    1.3,    1.9,    3.8,    4.9,    6.2,    5.7,    7.4,    8.8,  999.0,    8.8,    6.9,    8.1,    6.2,  999.0,    7.8,    2.9,    4.0,    2.3,    1.6,   -1.7,   -2.9,   -2.1,   -0.1,    2.7,    4.9,  999.0,  999.0,  999.0,  999.0,  999.0,    1.3,  999.0,  999.0,    8.1,    8.0,    5.1,   -1.4,    1.2,   -0.6,   -3.3,   -3.5
1992/02/19 16:35,   -2.0,    0.0,    1.4,   -0.3,   -2.7,   -4.2,   -4.8,   -6.5,   -5.2,   -3.0,   -3.0,   -3.6,   -3.8,   -2.7,   -1.8,   -2.4,   -3.0,   -2.2,   -1.6,   -2.0,    2.7,    3.5,    1.0,   -1.3,   -3.4,   -1.6,    1.3,    1.8,    4.6,    7.7,    5.6,    1.7,   -1.0,   -2.0,   -5.3,   -6.3,   -9.4,   -9.4,   -8.2,   -5.8,   -3.4,   -3.0,   -0.6,    1.8,    2.2,    3.8,    4.3,    3.2,    3.3,    2.5,    1.9,    1.1,    0.4,   -0.6,   -2.9,   -5.4,  999.0,  -13.3,  -15.0,  -13.4,  -12.7,  -11.4,   -7.6,   -5.7,    0.5,    0.2,    3.6,    5.7,    5.5,    3.4,    2.1,    3.0,    4.4,    4.8,    6.6,    8.3,    6.4,    4.0,    2.7,    1.6,    1.8,    4.5,    5.8,    6.8,    6.2,  999.0,    5.6,    8.8,    7.5,    8.2,   10.1,    8.5,    5.0,    5.4,    5.9,    4.9,    7.2,    0.1,   -1.5,   -2.8,   -2.0,    0.7,    4.2,    8.0,  999.0,  999.0,  999.0,  999.0,    5.3,    4.2,  999.0,  -12.4,   12.3,    7.7,    7.6,    1.7,    1.5,    2.5,    2.4,    0.5
1992/02/19 16:45,   -0.7,   -0.1,    0.5,    0.2,   -3.2,   -4.1,   -5.5,   -6.0,   -4.4,   -3.2,   -3.1,   -4.3,   -3.8,   -2.9,   -2.2,   -2.4,   -3.9,   -3.2,   -3.0,   -1.6,    2.5,    3.5,    1.1,   -1.9,   -2.9,    0.5,    1.7,    3.4,    5.6,    6.6,    4.4,    2.0,    0.3,   -1.7,   -5.7,   -7.8,   -8.7,   -8.6,   -7.6,   -4.7,   -2.9,   -1.4,    0.1,    1.5,    3.9,    5.0,    4.8,    3.9,    4.3,    3.2,    2.9,    2.6,    1.1,    0.1,   -3.3,   -6.0,   -8.8,  -13.1,  -16.8,  -14.3,  -13.0,  -10.5,   -6.0,   -2.7,    0.5,    0.2,  999.0,    3.9,    4.0,    3.5,    3.7,    0.5,    4.2,    6.1,    8.6,    8.7,    9.3,    6.4,    4.6,    1.1,    3.0,    2.6,    5.8,    4.3,    9.7,  999.0,    5.4,    7.4,  999.0,    9.3,   11.0,    9.3,    4.1,  999.0,    6.5,    8.5,    5.6,    4.1,    0.7,   -2.3,   -1.3,    2.9,    6.2,   10.7,  999.0,  999.0,  999.0,  999.0,  999.0,  999.0,  999.0,   15.4,  999.0,    8.9,    2.2,    0.8,    3.9,  999.0,   -4.3,  999.0
1992/02/19 16:55,   -0.2,    1.8,    0.7,   -1.8,   -5.3,   -5.1,   -5.2,   -5.7,   -2.8,   -2.0,   -3.0,   -2.7,   -2.1,   -1.2,   -1.3,   -2.1,   -3.0,   -3.0,   -2.1,    1.4,    4.1,    2.9,    1.5,   -1.1,   -1.7,    1.6,    2.4,    4.9,    6.3,    5.9,    3.7,    0.5,   -1.0,   -2.7,   -4.7,   -7.0,   -9.2,   -8.1,   -6.8,   -3.6,    0.1,    1.3,    3.4,    4.4,    4.5,    5.0,    6.3,    6.4,    5.5,    4.5,    4.9,    2.4,    0.8,    1.0,   -2.0,   -1.4,   -6.1,  -12.0,  -13.2,  -13.9,  -12.0,  -10.2,   -6.6,   -2.2,   -0.3,    1.7,    2.0,    4.9,    8.3,    7.3,    2.7,    4.3,  999.0,    5.0,    8.5,    6.9,    9.0,    6.1,    5.3,    1.8,    2.8,    3.4,    4.0,    3.8,    6.8,    6.2,    3.9,    6.9,  999.0,  999.0,   10.8,   11.0,    5.0,    6.0,  999.0,    2.9,  999.0,    4.5,    1.1,   -2.8,   -2.5,    1.1,    6.6,    6.9,    5.3,    6.8,  999.0,  999.0,  999.0,  999.0,  999.0,  999.0,  999.0,    3.7,   -0.8,   -0.9,   -1.3,   -6.0,   -4.1,  999.0
1992/02/19 17:05,    0.4,    0.2,   -1.2,   -3.7,   -4.7,   -5.8,   -6.5,   -5.1,   -4.7,   -4.4,   -4.7,   -4.2,   -2.3,   -2.0,   -2.3,   -2.9,   -2.8,   -2.6,    0.4,    2.2,    4.0,    1.6,   -1.1,   -2.9,   -0.7,    0.9,    2.3,    4.9,    6.4,    6.0,    3.4,   -0.1,   -2.1,   -3.5,   -6.4,   -8.5,   -7.2,   -4.1,   -2.7,    0.5,    2.0,    3.4,    5.6,    5.2,    5.7,    5.7,    6.2,    6.3,    6.4,    5.1,    5.2,    4.7,    2.8,    1.9,    0.9,   -2.1,   -2.8,   -9.8,  -11.7,  -11.6,  -10.7,  -10.2,   -6.1,   -1.1,    0.9,    2.2,    6.3,    6.6,    9.7,    8.5,    5.9,    6.0,    3.7,    6.7,    7.4,    5.5,    8.7,    8.9,    7.5,    5.6,    3.3,    0.3,    3.1,    4.4,    4.6,    4.0,    4.5,    8.7,    7.6,  999.0,    8.5,   10.3,    6.1,    2.6,    1.7,    6.2,    5.1,    4.2,    3.0,    2.3,   -1.4,    1.1,    5.3,    8.0,    9.5,  999.0,  999.0,  999.0,  999.0,  999.0,  999.0,   10.6,    6.2,    3.0,   -0.6,   -1.9,   -2.5,   -0.8,  999.0,  999.0
1992/02/19 17:15,    1.0,    1.7,    0.4,   -2.0,   -3.6,   -4.3,   -6.4,   -5.3,   -4.4,   -3.1,   -4.2,   -3.9,   -2.5,   -1.6,   -2.0,   -3.2,   -2.5,   -2.5,    0.5,    2.4,    3.2,    2.1,   -1.8,   -1.7,    0.4,    1.6,    2.4,    6.2,    7.4,    6.0,    4.0,    0.1,   -1.8,   -2.5,   -5.5,   -6.8,   -4.9,   -1.6,    2.3,    3.4,    5.5,    5.7,    6.5,    6.7,    5.1,    5.2,    5.3,    5.8,    5.1,    4.1,    3.8,    2.7,    1.5,    2.4,    0.9,   -0.7,   -1.6,   -8.9,   -9.2,   -9.1,   -9.9,   -9.1,   -6.8,   -2.9,    0.6,    2.6,    4.6,    7.3,    7.8,    7.4,    3.0,    6.6,    3.6,    7.5,    8.5,    9.9,    9.1,   10.6,    6.6,    3.7,    2.6,   -0.8,    0.9,    0.4,    1.9,    1.9,    6.1,    7.9,    8.8,    5.4,   10.1,   11.4,    7.2,  999.0,    2.2,  999.0,    6.7,    8.0,    5.2,    1.4,   -1.1,    1.6,    4.9,    6.7,    5.2,  999.0,  999.0,  999.0,  999.0,   10.2,   12.2,    5.9,    4.9,    0.9,   -2.8,   -3.3,    1.6,   -4.4,  999.0,  999.0
1992/02/19 17:25,    1.8,    1.0,   -1.2,   -3.3,   -5.5,   -6.2,   -6.7,   -6.0,   -4.0,   -4.3,   -5.4,   -3.3,   -2.7,   -2.2,   -2.7,   -4.2,   -2.6,   -1.8,    0.5,    2.7,    3.0,    2.3,   -1.2,   -1.5,    0.2,    1.5,    3.4,    6.1,    6.4,    4.1,    2.2,   -0.2,   -2.8,   -5.4,   -7.0,   -7.1,   -3.6,   -0.6,    3.0,    5.2,    6.6,    6.9,    7.0,    8.7,    9.6,    7.7,    7.8,    5.1,    3.6,    3.7,    1.5,    1.2,    1.5,    1.7,    0.3,    0.0,   -2.8,   -9.0,  -10.8,   -9.3,   -9.7,  -11.8,   -9.7,   -4.4,   -1.2,    2.3,    4.5,    6.9,    7.4,   11.0,    6.7,    5.2,    6.4,    5.9,    7.2,  999.0,    8.2,    9.4,    6.8,    6.2,    4.5,    1.1,    0.4,    1.9,    2.4,    1.7,  999.0,    5.9,   11.6,  999.0,   14.2,  999.0,   11.0,    5.1,    2.0,    2.5,  999.0,    6.1,  999.0,   -0.6,   -1.5,    2.8,    5.3,    8.7,  999.0,  999.0,  999.0,  999.0,  999.0,  999.0,   11.4,   10.4,    7.0,    4.4,   -2.1,   -3.1,  999.0,   -4.4,  999.0,   -4.1
1992/02/19 17:35,   -0.2,   -1.8,   -3.7,   -2.9,   -4.7,   -5.3,   -5.9,   -5.5,   -4.0,   -4.1,   -4.7,   -4.0,   -2.7,   -1.6,   -2.6,   -3.9,   -1.8,   -1.4,    1.1,    4.2,    2.4,    0.8,   -2.3,   -1.0,    0.9,    2.4,    3.5,    5.5,    3.7,    3.8,    0.9,   -2.1,   -4.3,   -5.3,   -7.6,   -5.5,   -2.1,    0.9,    3.5,    5.5,    7.0,    8.7,   10.1,   10.2,   12.8,    9.2,    7.4,    6.4,    4.9,    5.2,    4.0,    4.4,    5.4,    2.9,    3.3,    1.6,   -1.3,   -6.5,   -7.8,   -8.3,  999.0,   -9.6,   -8.1,   -2.2,    0.1,    1.9,    3.6,    8.1,    9.8,   10.4,    7.5,  999.0,  999.0,    5.6,    7.9,    8.8,  999.0,    9.8,  999.0,    7.4,    4.8,    2.9,    1.7,    0.7,    1.5,    2.1,    6.5,    5.8,    7.0,   13.3,  999.0,  999.0,  999.0,  999.0,  999.0,    4.2,    3.8,    4.1,  999.0,   -2.3,    0.1,    2.8,    6.3,  999.0,  999.0,  999.0,  999.0,  999.0,  999.0,  999.0,  999.0,   10.6,    9.6,    5.0,   -2.5,   -3.1,   -1.1,   -2.6,   -4.9,   -4.5
1992/02/19 17:45,   -1.1,   -0.5,   -2.9,   -3.7,   -3.7,   -5.2,   -6.6,   -5.1,   -3.9,   -4.1,   -5.3,   -3.9,   -2.0,   -1.9,   -2.8,   -3.4,   -1.1,    0.6,    2.8,    3.1,    2.7,   -0.8,   -2.2,   -0.5,    1.2,    3.3,    4.8,    4.2,    3.6,    3.5,    1.2,   -3.0,   -4.9,   -8.4,   -7.4,   -3.6,    0.1,    2.8,    4.6,    6.0,    8.5,   10.0,   12.1,   14.1,   12.0,   10.3,    7.8,    6.8,    5.9,    5.2,    4.5,    2.9,    2.8,    4.5,    2.7,    1.9,    1.1,   -3.7,   -6.2,   -7.1,   -9.5,  -10.3,   -5.0,    0.1,    2.4,    3.4,    6.5,    6.0,    9.6,   10.8,   13.4,    8.3,    9.7,    8.3,   10.1,   11.4,  999.0,   11.2,   10.6,    9.5,    8.3,    4.6,    2.5,    1.0,    0.6,    0.5,    1.7,    4.9,    7.4,   10.3,  999.0,  999.0,  999.0,    7.3,  999.0,    1.7,    4.4,    3.3,    2.7,    1.5,   -2.6,    1.4,    3.2,    8.9,    7.9,  999.0,  999.0,    6.1,    8.6,  999.0,    6.3,   11.7,    9.7,    2.3,   -2.7,   -2.7,   -1.5,   -5.5,   -4.2,   -5.3
1992/02/19 17:55,   -0.7,   -1.2,   -2.2,   -3.2,   -3.6,   -4.2,   -5.4,   -5.2,   -3.3,   -4.6,   -4.0,   -2.2,   -1.7,    0.3,   -0.5,   -2.0,    0.1,    1.4,    3.3,    3.5,    3.1,   -1.1,   -1.4,   -0.0,    2.4,    3.3,    4.9,    4.7,    3.8,    4.5,    2.6,   -2.1,   -5.0,   -6.6,   -6.0,   -1.3,    1.3,    4.2,    5.2,    7.3,    9.4,   11.1,   13.2,   12.9,   11.9,    9.1,    7.6,    7.0,    4.7,    4.7,    4.7,    3.5,    5.8,  999.0,    4.3,    3.8,    1.4,   -1.9,   -4.7,   -6.5,   -9.6,  -10.0,   -5.8,   -0.2,    2.3,    4.3,    6.5,    8.1,   11.5,    9.4,   12.1,    7.8,  999.0,   13.4,   13.9,   14.5,  999.0,   17.2,   10.0,   13.1,   10.9,    6.9,    5.0,    3.0,    1.4,    2.0,    3.0,    3.7,    8.9,    8.5,   10.3,   11.1,  999.0,  999.0,  999.0,    2.0,    3.1,    5.6,    4.9,   -0.5,   -0.7,    2.8,    6.5,  999.0,  999.0,  999.0,  999.0,  999.0,  999.0,  999.0,  999.0,   12.8,    9.9,    2.6,    0.1,  999.0,   -3.4,   -3.3,   -6.1,  999.0
1992/02/19 18:05,   -2.5,   -3.3,   -3.8,   -4.1,   -3.9,   -4.7,   -6.7,   -5.1,   -4.1,   -4.4,   -3.3,   -2.9,   -2.2,   -2.6,   -1.6,   -1.9,   -1.1,    2.2,    3.6,    3.7,    1.5,   -2.2,   -2.2,   -0.1,    3.0,    4.6,    6.7,    4.5,    5.6,    5.7,    1.2,   -1.3,   -3.2,   -5.3,   -1.7,    1.2,    3.8,    5.1,    6.7,    8.8,    9.9,   12.4,   14.2,   14.5,   11.9,   10.8,    8.7,    8.1,    6.7,    5.1,    3.4,    6.3,    1.9,    4.1,    2.3,    3.1,    2.5,   -3.7,   -7.0,   -8.5,  -10.9,  -10.7,   -5.9,   -0.2,    0.8,    2.8,    4.2,    7.9,    8.2,   12.9,   12.4,    8.1,    9.1,    6.3,    9.9,   13.0,  999.0,   12.7,    8.1,   13.1,    9.5,    8.5,    6.0,    5.0,    3.1,    2.4,    1.7,    2.5,    6.2,    7.4,    8.7,  999.0,  999.0,  999.0,  999.0,    2.5,    4.4,    3.4,    1.5,   -0.4,   -0.5,    1.0,    6.1,  999.0,  999.0,  999.0,  999.0,    4.6,  999.0,  999.0,  999.0,    9.8,    8.5,    2.2,   -0.1,  999.0,  999.0,   -4.2,  999.0,   -2.9
1992/02/19 18:15,   -2.5,   -2.6,   -2.6,   -3.6,   -3.8,   -4.4,   -6.0,   -4.7,   -3.8,   -5.0,   -3.7,   -3.3,   -3.0,   -3.3,   -3.9,   -1.9,    1.2,    3.0,    2.9,    2.6,    0.5,   -2.3,   -1.7,    1.0,    3.6,    5.4,    4.6,    3.1,    5.3,    4.6,    0.9,   -1.4,   -4.8,   -3.7,   -0.5,    2.8,    4.4,    6.7,    7.5,    9.9,   10.1,   12.2,   14.1,   13.5,   11.8,   10.2,    9.0,    7.8,    6.8,    5.7,    5.4,    4.5,    4.9,    3.8,    2.8,    4.0,    2.7,   -1.4,   -5.5,   -7.1,   -9.9,   -8.0,   -4.6,   -1.2,    1.8,    3.7,    4.9,    7.7,   10.3,   10.3,   10.2,   10.8,    9.0,   10.3,    9.8,   11.0,   11.0,    8.9,   12.4,   13.0,   11.8,   11.1,  999.0,    6.3,    3.1,    1.6,    0.3,    2.9,    2.7,    4.5,    5.7,    7.2,  999.0,  999.0,    5.8,    4.3,    3.4,    1.7,    1.5,   -1.1,   -2.6,    0.4,    4.5,    8.7,    9.7,  999.0,  999.0,  999.0,  999.0,  999.0,  999.0,    8.8,    9.2,    2.9,    0.4,    0.3,   -5.7,   -4.5,  999.0,   -4.0
1992/02/19 18:25,   -2.5,   -2.8,   -2.8,   -3.2,   -4.1,   -5.7,   -7.5,   -6.2,   -4.7,   -4.5,   -4.5,   -4.0,   -3.4,   -3.2,   -2.8,   -0.3,    0.1,    2.3,    3.3,    3.5,    0.8,   -0.9,    0.1,    2.3,    4.8,    6.1,    4.3,    3.2,    4.8,    4.5,    2.4,    0.5,   -1.9,   -1.5,    1.9,    4.2,    6.9,    7.9,    8.7,    9.9,   11.2,   13.7,   14.0,   13.5,   12.2,    9.8,    8.3,    7.1,    5.6,    6.8,    5.8,    5.3,    5.8,    6.1,    5.3,    4.5,    2.6,   -1.7,   -3.7,   -4.9,   -8.7,   -7.0,   -3.3,   -0.4,    0.8,    2.3,    4.5,    7.6,   10.3,    7.6,   10.0,  999.0,   10.1,    6.6,   12.0,   14.9,   10.5,   12.8,   13.7,   10.9,   12.9,   12.7,    4.7,    3.5,    2.3,    2.0,    1.3,    1.7,    1.0,    2.7,    4.0,    4.3,  999.0,  999.0,  999.0,  999.0,    3.2,    4.3,    1.9,   -0.1,   -2.1,    1.6,    6.0,    8.5,   10.6,  999.0,  999.0,  999.0,    3.9,  999.0,  999.0,    9.9,    9.2,    4.9,    1.6,    0.6,   -2.5,   -4.5,  999.0,   -3.6
1992/02/19 18:35,   -0.9,   -0.8,   -1.7,   -2.6,   -3.4,   -4.3,   -6.3,   -4.3,   -4.3,   -4.2,   -2.9,   -2.2,   -2.7,   -2.2,   -2.2,   -1.3,    0.8,    3.9,    4.6,    3.9,    1.0,    0.2,    0.5,    3.3,    6.1,    6.4,    3.7,    3.7,    4.4,    4.1,    4.1,    0.6,   -0.8,    1.1,    3.8,    5.8,    7.6,    9.3,   10.1,   11.6,   12.5,   14.5,   16.0,   13.3,   11.6,   10.8,    8.7,    7.0,    7.6,    5.4,    6.3,    5.8,    5.6,    7.2,    3.7,    3.6,    4.0,    0.1,   -2.1,   -4.7,   -7.3,   -6.1,   -3.1,   -1.5,    1.1,    2.6,    3.4,    5.3,    8.4,    7.5,    8.5,   11.0,    9.5,   10.0,    8.1,  999.0,  999.0,    9.8,   10.7,  999.0,   12.3,   13.6,  999.0,    4.3,    3.7,    3.1,    1.9,    0.9,    3.6,    2.0,    3.2,    3.2,  999.0,   10.0,  999.0,    2.0,    3.6,    4.3,    1.5,   -1.6,   -3.5,    3.6,    5.4,    7.1,    9.8,   12.4,  999.0,  999.0,  999.0,  999.0,  999.0,    3.6,    8.1,    5.4,    1.8,    1.9,   -3.0,   -2.6,   -2.7,   -1.1
1992/02/19 18:45,   -0.4,   -1.6,   -2.3,   -2.3,   -3.0,   -3.7,   -6.6,   -5.5,   -3.9,   -3.7,   -3.4,   -3.1,   -3.8,   -2.4,   -2.3,   -1.8,    0.8,    3.3,    5.1,    3.3,    1.5,    0.1,    2.1,    4.5,    7.0,    7.0,    4.8,    5.0,    5.1,    4.8,    5.2,    3.3,    2.1,    3.6,    5.7,    6.8,    8.7,   10.1,   11.5,   12.8,   14.2,   15.7,   17.2,   15.3,   14.2,   12.3,   10.1,    9.6,    7.9,    5.6,    8.2,    7.1,    8.5,    7.3,    7.0,    1.2,    2.2,   -0.2,   -2.3,   -3.9,   -6.0,   -6.6,   -2.0,   -1.1,    1.9,    2.0,    3.6,    5.3,    7.8,    8.4,    8.9,   11.5,   10.7,  999.0,   11.3,  999.0,  999.0,    9.4,  999.0,  999.0,   14.6,   16.7,   14.1,    7.4,    5.1,    2.9,    5.0,    4.6,    4.6,    1.4,    2.6,    3.3,    9.6,  999.0,  999.0,    4.8,    4.0,    3.0,    0.8,   -1.8,   -1.9,    1.8,    4.0,    6.3,  999.0,  999.0,  999.0,  999.0,  999.0,    6.7,  999.0,  999.0,    6.9,    5.0,    0.5,    1.1,   -0.7,   -2.8,   -2.4,    1.6
1992/02/19 18:55,   -1.7,   -1.9,   -3.2,   -2.6,   -3.5,   -6.0,   -6.8,   -6.0,   -4.9,   -4.1,   -3.6,   -3.5,   -4.0,   -5.1,   -3.3,   -1.6,    1.4,    3.6,    3.7,    1.5,   -0.4,    0.2,    1.7,    4.3,    5.7,    5.9,    4.3,    5.0,    5.9,    5.0,    4.8,    3.2,    1.3,    3.0,    5.4,    8.0,    9.2,   10.3,   11.9,   12.9,   15.1,   16.8,   16.6,   14.6,   13.3,   11.5,    9.6,    9.3,    9.3,    7.3,    9.3,    7.6,    7.2,    6.3,    6.5,    3.3,    2.2,   -0.5,   -2.9,   -5.1,   -7.0,   -5.7,  999.0,   -0.6,    0.5,    2.3,    3.9,    6.0,    5.8,    8.8,    9.0,   12.1,   10.2,   10.1,    8.2,   13.7,  999.0,   10.9,  999.0,  999.0,   14.2,   14.8,   15.3,    8.4,    5.0,    5.2,    4.2,    4.2,    3.8,    3.3,    3.8,    4.9,    7.8,    7.1,  999.0,    3.6,    4.3,    3.5,    1.3,   -2.4,   -2.8,    3.2,    4.7,    7.4,   11.2,    8.9,  999.0,  999.0,  999.0,  999.0,  999.0,  999.0,    6.7,    4.1,    2.0,    0.7,   -2.3,   -3.1,   -0.2,    1.3
1992/02/19 19:05,   -1.3,   -1.9,   -2.8,   -2.2,   -3.5,   -4.9,   -5.7,   -4.5,   -3.1,   -3.3,   -3.4,   -3.9,   -3.8,   -4.0,   -2.8,   -0.9,    1.8,    3.3,    2.7,    1.1,   -1.6,    0.7,    3.0,    5.0,    5.5,    4.3,    4.2,    5.0,    5.5,    3.8,    2.6,    2.3,    0.9,    2.2,    6.1,    7.7,    9.2,   10.8,   11.9,   12.9,   14.3,   16.3,   17.6,   14.0,   11.7,   11.4,    8.5,    7.9,    8.0,    6.4,    7.6,    6.8,    8.0,    6.0,    5.1,    3.2,    2.0,   -1.6,   -2.0,   -4.9,   -6.8,   -7.9,   -5.6,   -2.1,   -0.5,    2.5,    2.0,    5.1,    4.4,    6.6,    6.9,    9.4,  999.0,    9.2,  999.0,  999.0,    8.0,   11.0,   14.5,  999.0,   15.5,   14.1,   12.4,  999.0,    5.7,    5.0,    4.2,    4.2,    4.2,  999.0,    3.0,    5.7,    7.2,  999.0,  999.0,    4.6,    5.4,    4.2,    0.8,   -2.9,   -3.6,    0.4,    5.3,    7.4,  999.0,  999.0,  999.0,  999.0,  999.0,    7.9,  999.0,   12.8,    7.4,    2.9,    4.1,    1.6,   -0.3,   -1.7,    0.9,    1.3
1992/02/19 19:15,   -2.2,   -1.8,   -1.6,   -2.2,   -3.2,   -5.2,   -6.5,   -4.3,   -3.4,   -3.9,   -2.0,   -3.3,   -3.8,   -3.1,   -1.8,   -0.6,    2.1,    3.7,    3.8,    2.2,    0.5,    1.3,    4.7,    6.1,    7.2,    4.5,    5.2,    5.0,    4.2,    2.7,    1.7,    0.7,    0.8,    3.6,    6.0,    7.6,    9.4,   10.9,   11.8,   12.3,   14.2,   16.9,   18.3,   16.1,   13.9,   12.5,    9.0,   10.2,    8.5,    2.0,   11.4,    5.3,    6.4,    4.5,    3.8,    5.3,    4.5,    2.0,   -2.1,   -3.0,   -7.0,   -6.6,   -4.3,   -1.7,   -0.8,    1.3,    3.1,    7.8,    5.9,    8.1,    8.9,    9.7,   10.0,    7.8,  999.0,  999.0,  999.0,   15.4,   18.2,   13.8,   14.3,   12.7,   11.1,    8.5,    7.3,    5.4,    3.9,    3.4,    4.3,    1.3,    3.1,    4.8,  999.0,    8.5,    6.5,    3.0,    4.3,    3.0,   -2.7,   -4.1,   -4.0,   -0.7,    3.9,    6.2,  999.0,   13.5,  999.0,  999.0,  999.0,  999.0,  999.0,  999.0,    7.0,    7.8,    4.4,    5.6,    3.4,    2.2,    1.7,    4.4
1992/02/19 19:25,   -3.3,   -2.2,   -2.0,   -1.5,   -3.0,   -4.7,   -6.0,   -5.0,   -4.5,   -3.8,   -2.5,   -3.1,   -4.1,   -3.4,   -2.2,   -1.7,    1.2,    2.7,    3.3,    2.2,    0.3,    1.1,    4.2,    5.6,    6.8,    5.4,    5.0,    4.4,    3.6,    3.1,    2.6,    2.7,    2.3,    4.2,    7.3,    8.4,    9.9,   10.4,   11.6,   13.1,   15.0,   16.6,   17.4,   15.3,   13.9,   12.4,   10.3,    7.8,    7.5,    6.1,    7.2,    3.6,    5.5,    5.1,    3.2,    4.0,    4.0,    1.9,   -0.3,   -2.9,   -5.3,   -5.8,   -4.1,    0.4,    0.9,    0.9,    4.9,    4.7,    5.2,    7.3,    7.1,    7.9,   11.7,  999.0,   12.6,   12.9,  999.0,   11.9,   15.3,   14.4,   16.9,   13.3,    9.2,    8.0,    7.5,    5.3,    4.6,    5.2,    5.1,    3.5,    3.6,    4.9,    8.3,  999.0,    7.2,    5.1,    5.8,    3.4,    0.3,   -1.2,   -1.7,    2.5,    5.8,    8.0,    6.8,  999.0,  999.0,  999.0,  999.0,    1.1,  999.0,  999.0,    6.4,    6.7,    4.3,    5.4,    0.6,    0.3,    0.2,    4.5
1992/02/19 19:35,   -2.6,   -2.7,   -1.8,   -1.9,   -2.0,   -5.0,   -5.9,   -5.0,   -4.2,   -4.1,   -2.7,   -2.8,   -3.4,   -3.7,   -2.8,   -2.2,    1.4,    2.6,    3.6,    1.3,    0.2,    1.7,    4.5,    5.7,    6.7,    4.6,    4.6,    3.5,    3.2,    2.4,    2.3,    2.1,    2.0,    4.6,    7.0,    8.1,    9.9,    9.9,   11.6,   13.1,   15.5,   18.2,   19.8,   17.4,   14.6,   13.0,    9.5,    8.9,    7.0,    6.5,    5.3,    2.9,    3.3,    3.3,    2.8,    3.5,    2.9,    1.6,   -1.4,   -2.5,   -5.4,   -6.0,   -2.9,    0.7,    2.1,    2.0,    3.0,    3.3,    6.0,    8.0,    7.6,   10.0,    6.7,   10.2,   11.9,   11.4,    9.4,   12.4,   14.6,   16.0,   16.5,   14.3,   15.6,    8.7,   11.1,    7.9,    5.8,    5.6,    5.5,  999.0,    3.2,    3.7,    8.8,    6.3,    2.3,    6.2,    7.9,    7.2,    3.1,   -2.2,   -1.0,    1.3,    6.5,    8.9,   10.2,  999.0,  999.0,  999.0,  999.0,  999.0,    1.8,  999.0,    4.9,    1.7,    3.2,    2.0,   -0.9,    0.0,    1.4,  999.0
1992/02/19 19:45,   -3.3,   -2.9,   -1.8,   -2.9,   -3.8,   -5.9,   -4.8,   -4.8,   -4.6,   -3.5,   -3.6,   -3.3,   -3.7,   -4.2,   -2.2,   -1.2,    2.2,    2.4,    1.7,   -0.2,    1.1,    3.9,    4.9,    6.0,    6.3,    4.7,    5.7,    3.9,    3.7,    4.2,    4.3,    3.9,    3.9,    6.0,    8.2,    9.0,   10.0,   10.6,   13.0,   14.1,   16.4,   18.5,   18.0,   16.5,   14.9,   13.0,   10.0,    9.0,    7.4,    6.5,    5.8,    4.3,    4.7,    4.3,    6.1,    5.8,    5.9,    4.1,    1.5,   -1.3,   -4.6,   -4.7,   -3.4,   -3.1,    1.5,    2.4,    3.1,    4.7,    8.0,    6.8,    5.3,   10.6,   11.8,    7.0,   10.2,   11.5,  999.0,   14.5,   18.1,  999.0,   14.7,   15.9,   14.5,    8.2,    9.9,    7.8,  999.0,    5.5,    5.9,  999.0,    3.1,    3.9,    5.6,  999.0,    5.3,  999.0,    7.2,    4.3,    3.3,   -2.2,   -1.5,    1.6,    6.4,    9.1,  999.0,  999.0,  999.0,  999.0,  999.0,    1.1,  999.0,  999.0,    6.5,    5.4,    5.6,    4.2,    2.0,    1.1,    0.8,    6.1
1992/02/19 19:55,   -4.0,   -2.9,   -2.1,   -2.6,   -3.6,   -4.7,   -4.5,   -4.0,   -4.2,   -3.6,   -2.6,   -2.1,   -3.6,   -3.6,   -2.5,   -0.4,    2.5,    2.0,    2.0,   -0.0,    1.3,    2.3,    6.3,    8.1,    6.2,    5.0,    4.1,    2.9,    3.4,    5.1,    5.6,    3.0,    2.9,    5.2,    7.8,    9.3,   10.3,   11.8,   12.9,   14.4,   16.1,   19.3,   18.3,   16.3,   15.6,   13.1,   11.7,    9.5,    8.3,    7.1,    7.1,    6.0,    5.3,    6.2,    6.7,    6.1,    6.7,    3.4,    2.8,   -1.0,   -3.9,   -4.1,   -1.8,    0.9,    1.2,    4.1,    3.6,    3.0,   10.7,    7.7,    7.4,    9.9,   13.3,    9.7,    8.4,   11.9,   11.2,    9.3,  999.0,  999.0,  999.0,   14.8,   12.4,   12.7,   10.5,   11.3,    9.5,    6.1,    6.6,    6.0,    9.4,    1.9,    4.4,  999.0,  999.0,  999.0,    5.9,    5.8,  999.0,   -2.6,   -2.7,    0.7,    5.0,    7.5,  999.0,  999.0,  999.0,  999.0,    6.1,    8.5,  999.0,  999.0,  999.0,    4.2,    4.4,    0.6,    0.9,    1.9,    2.0,  999.0
1992/02/19 20:05,   -3.7,   -3.1,   -2.1,   -2.8,   -3.7,   -5.0,   -5.2,   -5.1,   -4.0,   -4.0,   -1.8,   -3.5,   -3.1,   -4.0,   -2.4,   -0.9,    3.0,    3.0,    1.7,    1.5,    2.9,    4.8,    6.5,    6.7,    5.6,    3.6,    2.7,    2.9,    3.7,    5.6,    4.9,    3.9,    4.1,    6.7,    9.3,   10.6,   12.2,   12.7,   14.3,   16.4,   18.8,   21.1,   20.7,   17.5,   17.0,   13.5,   12.3,   10.2,    7.2,    7.1,    7.1,    6.0,    5.7,    6.4,    6.6,    6.2,    5.7,    3.4,    2.6,   -0.0,   -2.3,   -3.0,   -2.5,   -0.3,    1.9,    2.8,    4.7,    4.9,    5.0,    5.2,    7.7,    8.1,  999.0,    8.5,    9.1,    9.4,    8.0,    9.1,  999.0,   13.3,   18.4,   18.8,   16.0,   12.0,    8.7,   10.6,  999.0,    6.3,    5.7,    4.7,    3.4,    4.6,    4.6,    4.4,    4.2,  999.0,    6.9,    7.1,    4.2,    0.2,   -1.0,    0.8,    6.9,    8.4,    9.9,  999.0,   11.9,  999.0,    6.4,    5.7,    2.6,  999.0,    3.5,    4.8,  999.0,    0.5,    0.3,    2.3,    5.1,  999.0
1992/02/19 20:15,   -3.4,   -3.5,   -2.9,   -4.0,   -3.6,   -5.1,   -5.4,   -5.9,   -5.4,   -3.8,   -1.6,   -3.2,   -4.0,   -3.9,   -2.8,   -0.8,    1.1,    1.4,   -0.4,    0.7,    2.7,    6.1,    7.5,    5.9,    4.0,    4.1,    3.6,    3.7,    6.1,    6.5,    3.7,    3.7,    4.0,    6.3,    8.5,    9.4,   10.8,   12.5,   13.6,   15.4,   18.4,   20.8,   19.9,   17.0,   15.6,   14.3,   13.6,   10.1,    9.1,    7.9,    8.2,    7.5,    6.0,    7.5,    6.8,    7.5,    6.0,    3.9,    3.6,   -0.0,   -2.6,   -4.8,   -3.0,   -1.1,    0.7,    2.9,    4.6,    5.6,    3.6,    4.3,    4.3,    7.5,    7.3,    7.6,    8.7,    7.8,    8.0,    7.9,   10.5,   15.8,   14.6,   17.7,   17.7,   10.8,   10.3,    9.0,    7.4,    5.2,    3.9,    3.9,    2.0,    3.0,    5.2,    7.4,  999.0,  999.0,    7.8,    8.7,    5.8,    1.6,    0.0,    2.8,    7.6,   10.5,    6.9,  999.0,  999.0,  999.0,    6.1,    6.6,  999.0,    5.0,    5.5,    5.8,    4.7,  999.0,    3.3,    4.1,    6.0,    4.9
1992/02/19 20:25,   -2.4,   -3.8,   -3.1,   -3.4,   -4.3,   -5.3,   -6.0,   -6.4,   -6.3,   -4.9,   -3.5,   -3.7,   -4.3,   -4.3,   -4.3,   -1.0,   -0.3,   -0.9,   -0.3,    0.8,    3.0,    5.8,    5.8,    4.1,    4.1,    3.4,    4.4,    6.1,    8.5,    9.6,    6.5,    5.1,    4.4,    5.7,    7.8,   10.0,   10.8,   12.4,   14.7,   16.4,   19.1,   22.0,   23.2,   20.9,   17.7,   16.1,   13.9,   12.7,   10.4,   11.7,   10.1,    9.4,    8.9,   10.3,    7.9,    8.1,    3.3,    4.3,    4.7,    2.4,   -1.0,   -3.7,   -1.0,    1.7,    3.3,    4.9,    5.9,    6.6,    5.4,    8.8,    6.3,   11.4,  999.0,    8.2,    9.8,    9.1,    8.0,   10.0,    9.6,  999.0,   17.6,   20.1,  999.0,   17.5,   10.2,    9.9,    7.5,    6.9,    5.0,    5.0,  999.0,    3.0,    4.4,    7.2,  999.0,  999.0,    8.1,    9.2,    8.5,  999.0,   -1.8,    2.5,    7.5,    8.3,    5.7,  999.0,  999.0,  999.0,    4.8,    4.2,    5.0,    4.6,    4.4,    5.8,    6.5,  999.0,  999.0,    3.2,    4.7,    4.8
1992/02/19 20:35,   -2.4,   -2.6,   -3.1,   -3.5,   -4.5,   -5.4,   -5.8,   -6.6,   -5.5,   -3.3,   -2.8,   -4.1,   -5.1,   -5.0,   -3.9,   -1.6,   -1.8,   -2.8,    0.2,    2.8,    3.9,    6.3,    5.5,    4.2,    3.6,    4.1,    6.0,    7.1,    8.9,    9.2,    7.2,    4.9,    4.1,    5.8,    8.2,    9.8,   10.9,   12.5,   14.5,   17.1,   19.8,   22.9,   22.8,   19.3,   17.7,   15.7,   14.7,   11.9,   11.0,    9.9,    8.6,    6.1,    7.0,    8.8,    8.3,    6.9,    5.5,    6.1,    5.6,    4.0,    0.4,   -1.5,   -1.4,    1.1,    2.5,    3.5,    5.6,    4.4,    4.4,    8.0,   10.5,   12.0,  999.0,  999.0,    9.0,   10.7,    9.1,   11.6,   12.7,   11.9,   15.4,   18.9,   18.2,   15.8,   12.8,   11.7,    8.6,    9.5,    5.9,    4.1,    3.4,    1.7,    4.9,    7.7,  999.0,    7.1,    9.6,   10.2,    8.7,  999.0,    0.9,    3.8,    8.1,    8.8,    4.1,  999.0,  999.0,    2.0,    6.4,    5.5,    4.2,    3.7,    4.7,    5.8,    4.2,    2.0,    2.4,    3.3,    2.8,    0.9
1992/02/19 20:45,   -1.5,   -2.2,   -2.9,   -3.5,   -3.7,   -4.6,   -5.5,   -6.1,   -6.1,   -3.5,   -2.1,   -3.8,   -5.5,   -4.4,   -3.0,   -0.6,   -0.8,   -0.8,    1.3,    3.6,    4.7,    5.7,    4.0,    4.2,    3.7,    5.5,    7.6,    9.4,   10.1,    9.7,    8.0,    5.0,    4.6,    5.9,    7.7,    9.3,   10.4,   11.9,   14.3,   15.8,   18.8,   22.1,   21.7,   19.9,   18.5,   16.0,   14.0,   12.7,    9.7,    9.5,    8.4,    6.6,    7.4,    6.6,    7.0,    5.7,    5.9,    2.8,    5.5,    4.0,   -1.8,   -1.9,   -0.9,    2.6,    2.5,    4.2,    5.6,    3.2,    4.2,    7.1,    9.6,  999.0,  999.0,    8.6,   10.7,   11.2,    9.3,   10.0,   12.8,   13.9,    9.3,   15.1,   14.8,   12.4,    9.3,    7.3,    6.1,    5.9,    5.0,    2.8,    2.7,    2.2,    3.7,    6.3,  999.0,    9.0,    8.3,    9.0,    5.4,  999.0,    0.7,    4.0,    7.9,   10.3,   11.6,    9.2,  999.0,    8.1,    8.9,    6.0,    5.6,    5.0,    6.3,    5.6,  999.0,    2.2,    1.0,    4.4,    3.2,    2.5
1992/02/19 20:55,   -1.4,   -1.7,   -3.0,   -4.2,   -3.7,   -5.3,   -7.1,   -7.4,   -6.7,   -3.3,   -2.6,   -3.6,   -4.9,   -4.7,   -3.7,   -1.8,   -0.9,   -2.0,    1.7,    2.7,    3.9,    6.0,    4.0,    4.0,    3.4,    6.7,    8.4,   10.2,   11.4,    9.0,    7.4,    5.9,    5.1,    6.8,    8.2,    9.9,   10.6,   12.5,   14.1,   16.5,   19.2,   22.6,   23.9,   21.8,   19.7,   18.4,   16.2,   13.5,   11.8,   11.6,    8.9,    8.3,    7.9,    6.8,    8.6,    8.9,    7.4,    7.3,    5.7,    2.2,   -0.9,   -1.1,   -0.3,    2.0,    2.2,    4.3,    6.4,    2.8,    4.6,    6.9,   10.0,   10.9,   14.8,    7.9,   11.7,   11.2,    8.0,   10.1,    6.7,   11.0,  999.0,   11.2,   13.5,   10.0,    8.1,    9.2,    4.8,    5.6,    4.3,    1.7,    1.4,   -1.9,    1.7,    5.2,  999.0,  999.0,    6.8,  999.0,  999.0,  999.0,    3.1,    2.2,    9.1,   12.1,  999.0,  999.0,  999.0,    9.8,    9.6,    8.3,    5.9,    6.2,    8.1,    7.1,    5.2,    4.3,    3.6,    3.9,    4.1,    4.0
1992/02/19 21:05,   -0.7,   -1.2,   -3.2,   -3.8,   -3.6,   -4.8,   -6.5,   -6.1,   -6.3,   -3.2,   -1.9,   -3.5,   -5.0,   -5.7,   -3.0,   -1.5,   -0.9,   -1.2,    0.6,    1.9,    3.0,    6.6,    5.1,    4.9,    4.1,    5.9,    8.1,   10.8,   10.7,    9.4,    6.6,    5.3,    5.1,    6.7,    8.2,    9.7,   11.0,   12.7,   15.0,   17.5,   20.1,   22.9,   23.7,   22.1,   20.3,   18.8,   16.7,   15.0,   13.0,   12.7,   11.3,   10.6,   10.4,   11.1,   10.2,   10.8,    9.3,    7.3,    7.0,    2.9,   -0.3,   -0.1,    1.5,    2.3,    2.9,    4.4,    5.1,    0.3,    3.6,    5.8,    9.8,  999.0,  999.0,  999.0,  999.0,   12.4,    9.9,  999.0,    9.1,    9.4,   10.3,    8.9,   13.8,   10.5,    8.8,    9.0,    6.3,    4.4,    4.0,    0.8,    0.0,   -2.1,    0.1,    2.7,    6.2,    7.5,    6.9,    6.7,  999.0,  999.0,    2.0,    3.7,    8.0,    9.8,    9.3,  999.0,   10.3,   10.6,    9.7,    6.4,    7.7,    6.6,    7.4,    7.3,    9.3,    6.1,    5.4,    4.9,    5.8,  999.0
1992/02/19 21:15,   -0.3,   -1.1,   -3.0,   -2.9,   -2.9,   -4.3,   -5.6,   -7.2,   -4.3,   -2.1,   -0.6,   -2.8,   -5.0,   -5.6,   -2.8,   -1.7,   -1.7,   -0.8,    1.3,    2.5,    4.4,    7.0,    4.9,    4.2,    3.0,    6.0,    8.2,   11.1,   11.6,    9.1,    6.0,    3.8,    3.8,    5.9,    8.6,    9.4,   11.2,   13.4,   16.2,   19.1,   21.6,   24.8,   23.5,   22.6,   19.9,   17.4,   15.5,   14.0,   13.0,   11.3,   10.7,    9.4,    9.4,   10.0,   10.3,   10.3,   11.2,    8.3,    7.7,    4.8,    0.5,   -0.9,    1.2,    2.4,    4.1,    4.4,    3.5,  999.0,    4.2,    7.3,    6.3,    8.9,    6.2,  999.0,   14.5,   13.0,   11.9,    8.0,   10.5,    9.3,    4.4,  999.0,   14.7,    9.0,   10.1,    8.9,    6.4,    6.2,    5.3,    2.6,    1.1,   -2.6,    1.8,    3.4,    6.5,   10.7,   10.1,    7.2,  999.0,    2.8,    0.6,    5.2,    8.6,  999.0,  999.0,  999.0,  999.0,    8.2,    9.4,  999.0,    6.7,    6.3,    7.0,    6.9,    3.8,    2.7,    3.9,    3.8,    5.1,  999.0
1992/02/19 21:25,   -1.3,   -2.4,   -2.8,   -3.8,   -2.9,   -3.9,   -5.7,   -5.6,   -4.4,   -1.3,   -1.4,   -2.5,   -3.7,   -4.6,   -2.9,   -1.5,   -1.7,   -0.6,    1.7,    2.8,    5.0,    5.9,    4.9,    3.0,    3.2,    6.5,    9.0,   11.2,   11.1,    9.3,    6.1,    4.0,    5.0,    7.4,    9.5,   10.6,   12.2,   13.8,   16.4,   19.4,   22.9,   24.2,   23.3,   21.1,   19.7,   17.3,   15.6,   13.8,   11.8,   11.7,    8.4,    9.9,    9.3,    9.9,   10.2,   10.1,   10.1,   10.3,   11.6,    7.3,    2.0,    0.4,    1.3,    2.1,    3.7,    4.0,  999.0,    2.7,    4.5,   12.7,    7.1,  999.0,  999.0,    3.3,   11.1,   14.9,   14.3,  999.0,   12.0,  999.0,  999.0,  999.0,   10.7,   14.0,   11.9,   10.7,    8.6,    8.4,    5.8,    4.1,    2.2,   -2.1,    1.5,    4.6,    5.6,    9.8,    6.3,    4.8,  999.0,  999.0,    4.5,    3.4,    7.8,   12.4,  999.0,  999.0,    8.2,    9.1,    9.4,    7.6,    5.8,    5.1,    5.7,    6.2,    2.3,    1.0,  999.0,  999.0,  999.0,    2.3
1992/02/19 21:35,   -1.3,   -2.6,   -2.7,   -3.6,   -3.6,   -3.1,   -4.8,   -5.2,   -5.6,   -2.7,   -2.3,   -3.3,   -4.0,   -4.7,   -3.3,   -3.7,   -1.7,   -1.4,  999.0,    2.2,    4.1,    3.8,    4.6,    3.9,    3.0,    7.3,    9.3,   11.2,   10.5,    8.0,    4.5,    4.4,    5.3,    7.9,    9.7,   11.6,   12.9,   15.9,   18.8,   21.7,   22.1,   22.5,   21.2,   19.5,   18.3,   16.2,   14.8,   12.7,    9.8,    6.7,    7.5,    8.1,  999.0,    7.0,    8.2,    6.8,    7.5,    7.5,    9.0,    5.9,    3.4,    0.7,    0.6,    3.1,    3.1,    5.1,  999.0,    5.3,    8.0,    7.1,   11.2,    8.6,    8.2,  999.0,   11.4,   13.9,   11.8,   12.4,    8.7,   12.3,  999.0,   13.1,   11.4,   12.0,   10.4,    9.7,    7.9,    7.0,    6.5,    3.0,    1.1,    0.0,    1.4,    2.8,    8.1,   10.9,  999.0,    7.8,  999.0,   -0.0,    1.1,    4.6,    8.6,   11.1,  999.0,    9.9,    8.0,    7.9,   10.1,  999.0,    6.2,    6.6,    6.0,    3.9,    2.2,    2.2,  999.0,  999.0,  999.0,  999.0
1992/02/19 21:45,   -0.1,   -1.3,   -1.4,   -3.2,   -2.9,   -1.9,   -3.5,   -3.9,   -5.1,   -3.0,   -1.9,   -1.9,   -2.8,   -3.4,   -3.6,   -3.0,   -1.4,   -1.0,    3.2,    3.0,    3.0,    4.1,    6.0,    5.0,    3.3,    7.4,    9.6,   11.1,    9.9,    8.4,    5.4,    5.1,    7.2,    9.0,   10.4,   12.1,   14.6,   16.7,   19.6,   22.2,   23.2,   22.9,   21.2,   19.1,   17.4,   16.1,   14.9,   12.0,    8.8,    6.7,    7.4,    6.4,    7.4,    9.4,    7.2,    6.1,    7.5,    8.1,    7.0,    6.1,    4.4,    0.5,    1.1,    2.3,    3.7,    4.3,    4.0,    6.3,    7.3,  999.0,   10.0,    6.4,    9.7,  999.0,   10.2,   14.8,   11.8,   11.8,    9.3,   10.2,  999.0,   12.7,   11.9,   13.9,   11.9,    8.9,    9.0,    6.3,    6.1,    3.4,    1.9,    1.2,    0.3,    3.4,   10.5,    9.3,    8.8,    7.7,    4.6,    2.3,    0.7,    5.5,    8.5,  999.0,   11.4,    9.4,    9.0,  999.0,   11.4,  999.0,    6.4,    7.7,    8.8,    7.0,    4.3,  999.0,  999.0,  999.0,    7.6,    5.4
1992/02/19 21:55,   -0.3,   -1.3,   -1.8,   -2.6,   -3.4,   -2.1,   -4.1,   -4.5,   -4.8,   -3.7,   -2.2,   -4.4,   -4.1,   -3.2,   -3.9,   -2.1,   -2.3,   -0.2,    1.5,    2.7,    5.0,    7.2,    6.5,    5.7,    5.1,    7.8,   10.2,   11.3,    9.6,    7.2,    5.2,    5.3,    7.4,    9.1,   11.5,   13.5,   16.3,   18.9,   22.0,   23.8,   23.6,   22.6,   20.5,   18.6,   17.9,   16.8,   16.4,   13.6,   11.4,   10.3,    9.7,    8.3,    8.9,    9.2,    8.0,    8.5,    9.1,    5.6,    6.1,    4.6,    2.1,    1.6,    1.4,    3.1,    4.6,    5.5,    4.4,    4.4,    5.3,    8.3,    7.3,    9.1,    8.1,    9.8,   11.4,   11.5,    9.0,   10.3,   10.4,   10.1,   10.8,   13.8,   13.8,   15.4,   11.5,    9.3,    7.5,    6.2,    5.4,    3.3,    0.6,    0.8,    0.1,    2.1,    2.8,    3.9,    7.8,    6.3,    3.3,    0.8,   -1.2,    4.0,    7.4,   12.9,   11.2,    8.0,    7.9,   10.0,   11.9,   11.4,    9.4,    7.9,    8.0,    8.2,    5.0,    2.9,  999.0,  999.0,  999.0,    6.8
1992/02/19 22:05,    0.3,   -1.1,   -1.4,   -2.9,   -2.6,   -1.9,   -3.8,   -3.9,   -3.4,   -2.3,   -1.6,   -3.9,   -4.6,   -4.1,   -3.2,   -1.9,   -1.5,    0.5,    2.9,    3.9,    5.5,    7.2,    7.1,    5.6,    4.4,    7.6,    9.6,   11.2,   10.4,    7.8,    5.1,    5.8,    8.2,   10.7,   12.8,   14.0,   17.2,   20.0,   23.5,   25.5,   24.0,   22.1,   20.0,   18.1,   16.4,   14.5,   13.4,   12.7,   10.7,    9.2,    9.9,    8.8,    8.9,    9.0,    8.6,   10.4,    9.3,    6.1,    4.3,    3.9,    3.7,    2.3,    3.9,    4.9,    6.4,    8.8,    5.3,    6.1,    6.9,    8.3,   12.1,   11.2,   10.3,   10.1,   11.8,    9.6,   10.2,   12.2,   12.1,    9.1,    8.7,    9.7,   12.5,   13.7,   12.8,    9.4,    6.0,    6.5,    5.7,    3.9,    2.8,    1.3,    1.5,   -1.6,    4.4,    5.9,    7.2,    7.2,    2.9,    0.4,   -0.2,    4.2,    9.4,   14.0,   15.7,    9.1,    9.5,   11.6,   10.5,   10.4,    7.0,    7.1,    9.3,    8.5,    5.7,    3.3,  999.0,    7.5,    8.4,    5.7
1992/02/19 22:15,    0.4,   -1.1,   -1.9,   -2.4,   -3.1,   -2.3,   -4.7,   -4.4,   -2.9,   -2.1,   -2.4,   -4.5,   -4.2,   -3.5,   -2.6,   -1.3,   -1.4,    0.2,    1.0,    3.3,    4.5,    6.7,    7.2,    5.6,    4.9,    7.2,    9.2,    9.8,    8.8,    6.3,    4.1,    5.4,    8.2,   10.1,   12.7,   16.2,   18.5,   21.6,   26.0,   26.2,   24.4,   21.4,   19.7,   18.6,   16.7,   15.3,   14.2,   12.1,   11.9,   11.0,    8.9,    7.8,    8.6,   10.4,    9.3,   10.0,   10.4,    6.8,    6.2,    3.3,    3.1,    3.5,    6.0,    6.0,    8.6,    7.9,    4.8,    7.4,    8.0,  999.0,   11.7,   12.2,    9.7,   10.5,   10.4,   10.4,   10.7,   10.4,    8.6,    8.6,   10.3,   10.9,   14.3,   15.8,   15.3,   11.2,   12.8,    7.0,    7.8,    5.1,    3.0,    3.0,    1.4,    2.3,    2.1,    9.1,    8.7,    7.4,    3.0,   -0.9,   -1.6,    2.4,    8.5,   13.4,   16.9,   12.2,    7.8,    7.5,   10.9,   11.3,    5.5,    6.1,    7.4,    3.8,    2.5,    4.0,    6.3,    6.9,    7.1,    6.9
1992/02/19 22:25,    0.5,   -1.7,   -1.4,   -2.8,   -2.3,   -2.8,   -4.3,   -5.2,   -1.7,   -1.3,   -1.4,   -4.3,   -4.4,   -3.2,   -1.9,   -1.4,   -1.8,   -0.4,    2.0,    2.8,    5.5,    7.1,    7.1,    5.1,    4.4,    7.1,   10.0,    9.8,    8.2,    5.1,    3.9,    6.6,    9.6,   11.6,   14.4,   16.7,   19.8,   23.5,   26.6,   25.2,   24.1,   21.6,   20.6,   18.9,   17.4,   15.4,   14.0,   13.1,   11.6,    9.5,   10.7,   11.1,   11.1,   10.9,   11.5,   10.6,    8.5,    5.6,    5.1,    2.6,    3.2,    3.8,    5.6,    6.3,    6.4,   12.1,    5.5,    7.7,   12.9,    7.8,    8.7,   10.7,   10.8,   10.0,   12.7,   12.4,   10.5,    9.6,    3.2,    7.7,  999.0,  999.0,   11.3,   14.1,   15.9,   12.7,    7.6,    9.4,    6.9,    5.7,    4.9,    3.1,    2.3,    3.0,    2.0,    4.5,    5.6,  999.0,    2.3,   -0.7,   -0.8,    2.4,    6.5,   12.6,   15.2,  999.0,    6.7,    7.3,   10.9,    5.6,    6.0,    6.6,    6.3,    4.1,    0.0,  999.0,  999.0,    6.8,    5.5,    4.6
1992/02/19 22:35,    0.7,   -0.3,   -1.9,   -2.7,   -2.8,   -3.2,   -5.1,   -3.8,   -2.2,   -0.5,   -0.3,   -2.7,   -3.9,   -2.6,   -2.5,   -1.4,   -0.9,   -0.1,    1.6,    3.0,    5.4,    6.5,    7.6,    3.9,    5.1,    8.3,   10.4,    9.6,    6.3,    4.3,    4.7,    7.9,   11.0,   12.9,   15.5,   18.6,   21.3,   24.4,   25.9,   24.0,   23.4,   21.9,   19.7,   18.4,   16.7,   15.1,   14.2,   11.1,   10.5,   10.2,   10.6,   11.1,   12.2,   12.3,   12.2,    9.2,    9.3,    7.2,    4.1,    2.6,    2.8,    4.4,    5.3,    7.3,    9.0,    6.8,    8.5,   10.0,  999.0,  999.0,   13.4,   11.9,   11.0,    9.8,   15.8,   13.2,   11.7,   10.5,   11.1,  999.0,    9.5,  999.0,   11.8,   14.9,   14.9,   13.0,    8.6,    8.2,    7.4,    7.6,    5.6,    5.2,    3.1,    5.9,    2.7,    7.0,  999.0,    6.4,    7.0,   -1.5,    0.1,    1.8,    5.6,   10.4,   14.4,  999.0,    6.7,    9.0,    7.9,    9.8,    6.0,    6.6,    7.3,    5.0,  999.0,  999.0,  999.0,    5.5,    6.3,    6.7
1992/02/19 22:45,   -0.2,   -2.0,   -3.4,   -4.6,   -2.8,   -2.7,   -4.8,   -5.1,   -2.5,   -1.3,   -0.5,   -2.2,   -5.1,   -3.3,   -2.1,   -1.2,   -0.9,   -0.8,    0.4,    2.1,    5.6,    6.8,    7.0,    4.6,    5.2,    8.4,    9.6,    7.5,    5.3,    4.7,    6.7,    9.3,   11.5,   14.2,   16.2,   19.3,   22.8,   25.5,   25.7,   25.3,   24.9,   23.2,   21.5,   18.4,   16.2,   15.3,   12.7,   12.2,   11.4,   11.8,   12.2,   12.9,   12.5,   12.0,   10.7,   10.2,   10.1,    6.9,    4.1,    2.6,    1.3,    4.2,    6.7,    6.8,    8.7,    7.4,    8.1,    8.6,    8.5,   10.2,    9.6,   11.4,    8.7,    9.6,   11.6,  999.0,   10.4,   10.7,  999.0,  999.0,    6.5,    7.8,   10.8,   13.0,   13.1,   11.1,    8.4,    7.8,    6.8,    6.7,    6.1,    6.4,    1.8,    5.2,    5.8,    5.2,    7.7,    7.8,    7.6,    4.0,    1.5,    2.7,    6.2,   11.8,   15.8,   15.5,    8.7,    8.5,  999.0,   10.6,    6.4,    7.9,    9.2,    6.3,    4.3,  999.0,    7.4,    7.9,    7.8,  999.0
1992/02/19 22:55,   -0.2,   -1.6,   -2.2,   -3.3,   -3.2,   -3.2,   -6.2,   -5.5,   -3.3,   -1.1,   -0.9,   -2.3,   -5.2,   -3.3,   -2.2,   -1.2,   -1.2,   -1.6,   -0.5,    1.4,    3.6,    6.4,    6.8,    5.5,    5.3,    8.1,    9.8,    7.4,    4.2,    3.9,    5.9,    8.9,   11.0,   13.3,   15.4,   19.0,   22.3,   26.6,   26.5,   26.9,   26.1,   24.4,   21.5,   19.3,   17.9,   16.3,   15.1,   12.5,   13.0,   13.9,   15.3,   13.4,   10.9,   11.7,   10.6,    9.2,    5.1,    4.6,    4.6,    3.7,    2.8,    3.4,    6.3,    8.2,    8.9,    8.3,    8.9,    9.1,    8.8,    3.9,    9.5,    7.5,    8.7,    9.1,   12.4,    9.4,   10.6,   10.3,   13.2,    7.0,    8.2,    8.7,   11.5,   13.5,   12.4,   11.3,   10.9,    7.2,    6.3,    7.0,    7.3,    2.8,  999.0,    5.0,    4.4,  999.0,    7.1,    8.1,    8.7,    3.3,    2.4,    2.3,    6.5,   12.5,   16.5,    8.8,   10.3,  999.0,   10.2,   10.6,    6.2,    7.5,    7.1,    2.9,    3.3,    7.1,    5.5,    6.6,    7.1,  999.0
1992/02/19 23:05,   -1.2,   -1.2,   -2.1,   -3.3,   -3.8,   -3.2,   -5.6,   -5.5,   -2.6,   -0.5,   -0.2,   -1.4,   -5.1,   -4.3,   -3.1,   -0.9,   -0.3,   -0.5,    0.6,    2.8,    3.8,    5.5,    6.2,    5.1,    5.2,    8.7,    9.4,    6.2,    3.7,    2.9,    6.4,    8.4,   11.2,   14.1,   16.5,   19.7,   23.6,   26.9,   26.9,   26.7,   25.5,   23.6,   21.7,   19.6,   18.0,   17.6,   16.3,   14.5,   14.9,   15.7,   15.9,   12.8,   11.5,   12.6,   11.9,   10.9,    7.8,    5.4,    4.4,    4.3,    3.4,    3.7,    7.0,    7.7,    9.7,    8.8,    9.0,    9.7,    9.4,    9.8,   11.5,   11.4,   10.2,   10.5,   13.6,    9.5,    9.1,   11.0,    9.7,  999.0,    8.9,   10.5,   12.6,   14.2,   11.9,   10.8,   11.4,    9.7,    7.2,    6.4,    5.3,    6.1,  999.0,    4.9,    4.3,    7.1,    7.4,    7.8,    8.0,    1.7,    2.3,    3.9,    7.4,   13.5,   15.7,   12.8,   11.1,   11.7,   10.5,   11.2,    6.8,    7.4,    7.7,  999.0,    0.9,  999.0,    7.3,    6.8,    8.4,  999.0
1992/02/19 23:15,   -1.6,   -2.1,   -2.8,   -3.3,   -4.7,   -3.6,   -5.2,   -5.3,   -2.7,   -0.1,   -0.3,   -2.6,   -5.6,   -3.8,   -2.3,   -0.1,    0.3,   -1.1,    0.3,    2.4,    3.9,    6.2,    6.6,    6.2,    6.6,    9.4,    9.4,    6.0,    3.7,    2.8,    7.0,    9.7,   12.2,   14.7,   18.0,   21.4,   25.4,   27.2,   27.7,   27.2,   26.6,   24.7,   24.0,   21.5,   20.6,   18.4,   17.5,   16.4,   16.5,   16.5,   15.7,   14.8,   14.6,   15.5,   12.3,   11.1,    9.4,    6.2,    4.3,    3.8,    3.3,    5.2,    7.9,    9.7,   11.4,   10.6,   11.0,    9.1,    8.7,   10.7,   13.6,   14.5,   11.3,   11.5,   12.5,   10.5,   10.2,   11.2,    6.3,    6.3,    7.2,   10.3,   11.2,   11.1,   12.9,   12.5,   11.8,    9.8,    7.3,    6.0,    5.1,    5.4,    5.3,    4.2,    5.1,    4.1,    6.5,    6.3,    5.1,    2.7,    2.9,    4.6,    7.9,   12.3,   14.8,   16.6,   12.7,   12.3,   11.9,   12.1,    7.0,    7.7,    7.0,    3.5,    2.0,    4.5,    7.5,    8.6,   10.8,  999.0
1992/02/19 23:25,   -1.4,   -1.6,   -3.2,   -3.2,   -3.9,   -3.4,   -5.5,   -4.6,   -1.7,    0.5,   -0.2,   -3.4,   -4.9,   -3.6,   -1.9,   -0.3,   -0.1,   -1.2,    1.1,    2.6,    4.0,    6.1,    6.5,    6.4,    8.3,   10.8,   10.6,    7.5,    4.0,    4.0,    7.0,   10.4,   12.5,   15.2,   18.2,   22.0,   26.4,   28.6,   28.1,   27.4,   26.7,   25.6,   23.4,   21.7,   19.9,   17.3,   17.5,   16.6,   16.2,   15.1,   15.5,   16.7,   14.6,   13.8,   12.4,   13.1,    9.1,    5.7,    5.1,    4.0,    3.0,    5.7,  999.0,    8.4,   11.5,   10.5,   11.0,    8.5,   10.9,   11.9,   15.3,   15.9,   15.3,   12.4,   12.7,   12.0,   10.3,    9.2,    5.7,    7.3,    9.2,    8.5,    9.9,   10.5,   11.8,   11.7,   12.0,    9.5,    8.4,    5.1,    4.6,    5.2,  999.0,    6.1,    6.5,    6.7,    6.2,    6.9,    5.5,    4.5,    4.4,    5.8,    8.7,   11.2,   14.3,   16.9,   13.8,   13.4,   11.4,   10.1,    6.9,    7.3,    6.6,    3.3,    3.0,    4.9,    8.2,   10.0,   10.3,  999.0
1992/02/19 23:35,   -0.4,   -1.6,   -2.2,   -2.7,   -2.4,   -2.3,   -3.4,   -4.0,   -0.7,    0.7,   -1.0,   -2.8,   -4.1,   -3.8,   -2.3,   -0.5,    0.3,   -1.6,   -0.2,    2.3,    3.1,    5.4,    5.8,    6.1,    8.3,   10.5,    9.0,    6.9,    5.2,    5.2,    8.3,   10.9,   13.3,   15.8,   19.0,   21.8,   26.0,   28.4,   28.6,   27.5,   26.5,   25.0,   23.0,   22.0,   20.1,   17.8,   18.6,   17.9,   17.1,   18.3,   17.1,   15.9,   15.9,   15.3,   14.2,   12.8,   11.7,    5.8,    5.1,    4.4,    2.6,    3.8,    5.7,    9.1,    8.6,   10.6,   10.6,    9.4,    9.4,   11.5,   13.2,   16.2,   14.0,   14.1,  999.0,   11.4,    9.6,   10.3,  999.0,    7.6,    8.2,    8.7,    9.8,    9.7,    9.3,    9.8,    9.3,   10.5,    9.9,    5.9,    6.1,    7.4,    5.5,    6.2,    6.0,  999.0,    5.2,    5.3,    7.6,    5.5,    3.4,    4.9,    8.2,   12.1,   15.6,   16.3,   13.7,   11.8,   10.5,    9.6,    6.8,    5.6,    5.4,    2.0,    1.9,    3.8,    7.6,    8.8,   10.4,  999.0
1992/02/19 23:45,   -0.8,   -1.1,   -2.2,   -3.5,   -3.4,   -2.3,   -3.4,   -4.2,   -1.5,    0.3,   -2.9,   -2.9,   -5.1,   -4.2,   -1.9,   -0.8,    0.3,   -1.7,   -0.8,    2.1,    3.5,    5.5,    5.4,    6.0,    7.8,   10.6,    9.5,    7.1,    4.6,    5.8,    8.8,   10.9,   13.2,   15.7,   18.1,   22.1,   25.1,   28.6,   27.9,   26.4,   26.2,   25.7,   25.1,   22.8,   22.1,   21.0,   19.2,   17.5,   17.1,   17.5,   17.8,   17.5,   11.0,   15.0,   16.4,   14.7,   10.4,    7.1,    6.6,    4.2,    2.6,    4.1,    7.0,    5.6,    8.5,    9.0,    7.8,    9.4,    7.5,   13.5,   16.3,   19.2,   13.4,   12.8,   12.4,   13.0,   11.3,    9.7,  999.0,    9.4,    7.8,    9.7,    9.6,   10.0,   10.8,    9.1,    9.6,    9.8,   11.5,    6.4,    8.3,    9.1,    9.0,    8.3,    6.5,    6.4,  999.0,    4.8,    7.6,    5.7,    3.4,    4.6,    8.3,   12.5,   14.9,   16.3,   12.1,   12.1,   10.2,    8.5,    7.4,    5.7,    6.6,    3.0,    2.7,    4.2,    7.5,    9.0,  999.0,  999.0
1992/02/19 23:55,   -0.2,   -0.4,   -1.5,   -3.1,   -2.9,   -1.8,   -2.9,   -4.4,   -2.3,    0.7,  999.0,   -3.0,   -5.1,   -3.6,   -2.4,   -0.6,    0.3,   -0.8,   -0.7,    2.4,    3.6,    5.6,    6.1,    7.7,    9.2,   11.2,    8.9,    6.1,    5.1,    6.3,    8.9,   11.4,   12.8,   15.1,   18.9,   22.1,   26.2,   27.7,   27.8,   27.2,   26.7,   25.1,   23.8,   21.9,   19.3,   17.5,   18.2,   17.0,   16.9,   17.6,   16.3,   17.1,   15.1,   17.3,   16.5,   15.0,   11.5,    6.6,    7.2,    4.5,    2.8,    4.5,    5.4,    4.3,   10.9,    7.5,    7.0,    7.4,   11.4,   11.9,   18.8,   18.7,   13.4,   12.7,   13.4,   12.1,   10.9,    9.7,    7.4,    6.1,    8.1,    9.5,    9.2,    9.2,    9.1,    7.6,    7.9,   10.8,   11.1,    8.5,    9.8,   10.1,    8.3,   10.3,    7.8,    8.4,    7.9,    5.7,    7.6,    5.7,    5.0,    5.9,    9.3,   13.0,   15.1,   16.6,   10.7,   10.4,    9.9,    8.5,    6.1,    6.7,    7.9,    3.9,    3.6,    5.3,    7.9,   10.9,   12.5,  999.0
